     2              OBSERVATION DATA    G (GPS)             RINEX VERSION / TYPE
ASRINEXO V2.9.9 LH AIUB 01-FEB- 1 16:15                     PGM / RUN BY / DATE
BERN ASHTECH Z-12                                           COMMENT
BIT 2 OF LLI (+4) FLAGS DATA COLLECTED UNDER "AS" CONDITION COMMENT
USNB                                                        MARKER NAME
                                                            OBSERVER / AGENCY
? ASHTECH Z-XII3 1D15                                       REC # / TYPE / VERS
? CHOKE RING                                                ANT # / TYPE
  1112146.5900 -4842861.9200  3985490.4100                  APPROX POSITION XYZ
        0.0000        0.0000        0.0000                  ANTENNA: DELTA H/E/N
     1     1                                                WAVELENGTH FACT L1/2
     5    C1    L1    L2    P1    P2                        # / TYPES OF OBSERV
  2000     3    23     0     0   30.000000                  TIME OF FIRST OBS
                                                            END OF HEADER
 00  3 23  0  0 30.0000000  0  7 04 06 26 13 24 10 30
  24265927.779    -1640168.894 7  -1253253.19345  24265925.685    24265940.4404
  21664270.173   -17662221.006 9 -13748525.02047  21664270.604    21664281.7234
  22597120.803   -11982906.088 8  -9290923.96646  22597123.449    22597136.7604
  21987945.319   -14858113.764 9 -11562574.62547  21987946.888    21987956.5404
  21261076.959   -18173166.742 9 -14143059.25347  21261080.209    21261090.3244
  20339762.433   -22980101.547 9 -17884029.04948  20339762.933    20339773.1564
  23994243.173    -4195245.727 8  -3251237.37045  23994247.754    23994264.1774
 00  3 23  0  1  0.0000000  0  7 04 06 26 13 24 10 30
  24280934.154    -1561238.853 7  -1191749.35945  24280946.033    24280959.9264
  21652717.176   -17722928.397 9 -13795829.39847  21652718.477    21652729.4364
  22576317.502   -12092211.354 8  -9376096.69546  22576323.566    22576336.6534
  21993874.644   -14826966.265 9 -11538303.81447  21993874.477    21993883.9394
  21268271.213   -18135356.532 9 -14113596.73547  21268274.668    21268285.8394
  20345081.773   -22952129.334 9 -17862232.50048  20345085.567    20345096.1474
  24007191.400    -4127216.905 8  -3198227.97945  24007193.044    24007208.9474
 00  3 23  0  1 30.0000000  0  7 04 06 26 13 24 10 30
  24295984.957    -1482202.825 7  -1130162.90245  24295987.059    24296002.2614
  21641247.032   -17783184.073 8 -13842781.77747  21641251.307    21641263.1354
  22555559.239   -12201317.489 8  -9461114.26346  22555561.159    22555574.2004
  21999907.351   -14795250.689 9 -11513590.36547  21999910.536    21999919.4544
  21275513.685   -18097302.656 9 -14083944.36647  21275515.982    21275526.8894
  20350477.759   -22923790.209 9 -17840150.04748  20350478.735    20350488.9264
  24020186.624    -4058920.441 8  -3145010.06145  24020188.850    24020205.4244
 00  3 23  0  2  0.0000000  0  7 04 06 26 13 24 10 30
  24311036.724    -1403072.617 7  -1068503.04045  24311044.755    24311058.3554
  21629865.521   -17842992.749 8 -13889385.84147  21629870.048    21629881.7824
  22534835.890   -12310215.256 8  -9545969.46146  22534838.859    22534851.3724
  22006052.085   -14762959.076 9 -11488428.05547  22006054.171    22006063.9354
  21282804.380   -18058991.665 9 -14054091.64747  21282806.028    21282817.4094
  20355942.006   -22895074.573 9 -17817774.21248  20355943.163    20355953.0644
  24033245.901    -3990327.643 8  -3091561.21545  24033242.622    24033259.1414
 00  3 23  0  2 30.0000000  0  7 04 06 26 13 24 10 30
  24326109.446    -1323862.125 7  -1006780.69345  24326118.368    24326132.0334
  21618572.696   -17902370.915 9 -13935654.44747  21618571.881    21618582.5494
  22514150.352   -12418882.340 8  -9630644.92146  22514160.353    22514172.0594
  22012309.473   -14730085.845 9 -11462812.53247  22012309.699    22012319.6354
  21290139.104   -18020426.308 9 -14024040.72147  21290145.452    21290156.6904
  20361475.267   -22865985.060 9 -17795107.04148  20361478.585    20361488.8414
  24046346.632    -3921436.945 8  -3037880.25745  24046351.383    24046368.3384
 00  3 23  0  3  0.0000000  0  7 04 06 26 13 24 10 30
  24341213.035    -1244576.975 7   -945000.18345  24341205.184    24341219.1364
  21607353.099   -17961319.079 9 -13981587.99447  21607353.791    21607364.9094
  22493529.327   -12527314.711 8  -9715137.49546  22493525.787    22493538.4014
  22018667.626   -14696639.978 8 -11436750.81847  22018674.402    22018684.2034
  21297527.169   -17981615.709 9 -13993798.69547  21297530.418    21297541.7604
  20367087.674   -22836519.172 9 -17772146.58948  20367085.930    20367095.9394
  24059514.051    -3852253.871 8  -2983971.52145  24059517.162    24059532.5754
 00  3 23  0  3 30.0000000  0  7 04 06 26 13 24 10 30
  24356303.336    -1165216.489 7   -883160.92745  24356308.031    24356319.7834
  21596220.176   -18019815.530 9 -14027169.55647  21596222.489    21596233.5434
  22472933.423   -12635509.546 8  -9799444.94446  22472936.519    22472949.9334
  22025145.945   -14662627.846 9 -11410247.83547  22025146.561    22025156.4134
  21304958.682   -17942567.503 9 -13963371.51447  21304961.247    21304972.3544
  20372759.941   -22806691.728 9 -17748904.40548  20372762.029    20372772.0284
  24072731.951    -3782793.734 8  -2929846.84545  24072734.814    24072750.8604
 00  3 23  0  4  0.0000000  0  7 04 06 26 13 24 10 30
  24371417.851    -1085775.494 7   -821258.89345  24371424.095    24371439.4324
  21585176.258   -18077844.837 9 -14072387.11647  21585178.803    21585190.1064
  22452386.585   -12743462.060 8  -9883563.58346  22452393.671    22452406.9154
  22031726.981   -14628042.281 8 -11383298.03147  22031727.787    22031737.8344
  21312432.609   -17903298.313 9 -13932772.14847  21312434.240    21312444.6004
  20378502.122   -22776522.997 9 -17725396.28448  20378502.928    20378512.9734
  24086003.492    -3713076.208 8  -2875521.56445  24086002.658    24086018.5174
 00  3 23  0  4 30.0000000  0  7 04 06 26 13 24 10 30
  24386565.232    -1006230.236 7   -759275.65045  24386561.621    24386575.3014
  21574225.089   -18135397.606 9 -14117233.34147  21574227.326    21574238.1394
  22431900.967   -12851161.185 8  -9967484.76146  22431899.589    22431912.1854
  22038414.385   -14592888.674 9 -11355905.59847  22038417.492    22038427.6714
  21319942.370   -17863814.124 9 -13902005.24147  21319947.172    21319958.3084
  20384306.440   -22746015.852 9 -17701624.46648  20384307.966    20384318.0404
  24099312.873    -3643128.934 8  -2821017.28645  24099311.665    24099329.0794
 00  3 23  0  5  0.0000000  0  7 04 06 26 13 24 10 30
  24401712.622     -926564.733 7   -697198.74845  24401719.367    24401735.1204
  21563366.875   -18192458.539 9 -14161696.31947  21563369.150    21563379.9354
  22411452.372   -12958597.408 8 -10051201.09046  22411454.750    22411467.2924
  22045214.646   -14557161.326 9 -11328066.09747  22045216.171    22045226.3604
  21327502.427   -17824099.807 9 -13871059.01847  21327504.772    21327515.8894
  20390179.053   -22715161.242 9 -17677581.89848  20390179.510    20390189.2934
  24112663.497    -3572972.538 8  -2766350.09845  24112659.827    24112677.9004
 00  3 23  0  5 30.0000000  0  7 04 06 26 13 24 10 30
  24416892.658     -846769.154 7   -635020.47545  24416905.195    24416921.5504
  21552602.553   -18249040.869 9 -14205786.37147  21552602.553    21552613.1634
  22391060.993   -13065759.878 8 -10134704.10246  22391062.069    22391074.6454
  22052118.961   -14520853.757 8 -11299774.47347  22052125.048    22052135.3554
  21335104.975   -17784139.497 9 -13839921.12447  21335109.086    21335120.2424
  20396114.894   -22683952.977 9 -17653263.74948  20396117.890    20396128.0064
  24126046.766    -3502603.788 7  -2711517.44145  24126052.715    24126070.7674
 00  3 23  0  6  0.0000000  0  7 04 06 26 13 24 10 30
  24432107.477     -766835.272 7   -572734.37845  24432116.884    24432130.3504
  21541921.752   -18305157.926 9 -14249513.85347  21541923.177    21541934.5144
  22370716.905   -13172641.098 8 -10217987.97346  22370723.276    22370736.4124
  22059141.474   -14483964.010 9 -11271029.21047  22059145.097    22059154.6554
  21342754.831   -17743940.569 9 -13808597.27747  21342758.719    21342769.4344
  20402125.940   -22652372.857 9 -17628655.84848  20402127.354    20402137.5654
  24139488.343    -3432012.633 8  -2656511.48145  24139488.140    24139503.4924
 00  3 23  0  6 30.0000000  0  7 04 06 26 13 24 10 30
  24447346.259     -686777.625 7   -510351.82645  24447351.508    24447366.6124
  21531328.851   -18360811.370 9 -14292880.10047  21531332.561    21531343.1974
  22350430.014   -13279243.605 8 -10301054.67246  22350437.014    22350449.5984
  22066271.656   -14446505.115 9 -11241840.45047  22066272.942    22066283.0044
  21350446.878   -17703505.758 9 -13777089.63947  21350453.062    21350464.3014
  20408207.665   -22620418.532 9 -17603756.36548  20408208.274    20408217.8094
  24152961.633    -3361202.166 8  -2601334.54445  24152960.619    24152978.0284
 00  3 23  0  7  0.0000000  0  7 04 06 26 13 24 10 30
  24462604.752     -606629.240 7   -447898.60245  24462603.341    24462618.2374
  21520825.132   -18416006.056 9 -14335888.84247  21520829.156    21520840.2264
  22330200.815   -13385576.810 8 -10383911.51046  22330201.994    22330215.6324
  22073506.849   -14408483.226 9 -11212212.98947  22073509.049    22073518.7344
  21358189.214   -17662831.038 9 -13745395.04747  21358193.175    21358204.5094
  20414355.858   -22588103.432 9 -17578575.75348  20414357.300    20414367.3884
  24166476.149    -3290159.626 8  -2545976.83645  24166480.202    24166496.9994
 00  3 23  0  7 30.0000000  0  7 04 06 26 13 24 10 30
  24477862.902     -526403.988 7   -385385.55345  24477870.776    24477885.3684
  21510410.778   -18470745.951 9 -14378543.21847  21510412.720    21510422.9334
  22310018.647   -13491652.783 8 -10466567.90646  22310016.614    22310029.1844
  22080848.337   -14369908.394 9 -11182154.66847  22080849.793    22080858.4874
  21365973.366   -17621935.587 9 -13713528.46747  21365975.736    21365986.5234
  20420572.834   -22555442.288 9 -17553125.49548  20420572.862    20420582.8584
  24180042.232    -3218873.030 7  -2490428.95945  24180044.298    24180062.7394
 00  3 23  0  8  0.0000000  0  7 04 06 26 13 24 10 30
  24493149.243     -446095.519 7   -322807.61845  24493152.564    24493166.0294
  21500084.293   -18525012.400 9 -14420828.66947  21500085.867    21500096.7854
  22289871.794   -13597476.888 8 -10549028.03146  22289878.892    22289891.2074
  22088289.360   -14330789.718 9 -11151672.56847  22088293.164    22088303.6334
  21373794.540   -17580834.309 9 -13681501.49747  21373797.038    21373807.4804
  20426846.699   -22522461.941 9 -17527426.50848  20426848.510    20426858.5694
  24193656.526    -3147355.816 8  -2434701.37245  24193655.624    24193671.8114
 00  3 23  0  8 30.0000000  0  7 04 06 26 13 24 10 30
  24508450.883     -365716.697 8   -260174.79945  24508449.509    24508462.0424
  21489849.395   -18578800.639 9 -14462741.49947  21489850.518    21489861.5854
  22269790.962   -13703043.034 8 -10631287.15846  22269790.807    22269802.6864
  22095839.726   -14291128.255 9 -11120767.52247  22095840.896    22095850.0684
  21381657.078   -17539512.499 9 -13649302.69247  21381660.127    21381671.5784
  20433179.657   -22489181.804 9 -17501493.91648  20433181.558    20433191.7954
  24207305.587    -3075627.237 8  -2378809.04245  24207304.884    24207320.3304
 00  3 23  0  9  0.0000000  0  7 04 06 26 13 24 10 30
  24523751.591     -285255.763 7   -197478.02245  24523758.685    24523773.6434
  21479705.168   -18632112.740 9 -14504283.30047  21479705.621    21479716.5684
  22249752.931   -13808339.518 8 -10713336.18846  22249753.799    22249765.5224
  22103491.350   -14250914.863 9 -11089432.39747  22103492.895    22103503.1924
  21389561.666   -17497957.670 9 -13616922.32547  21389567.278    21389578.9094
  20439571.196   -22455593.443 9 -17475321.15248  20439573.193    20439583.2704
  24220986.556    -3003690.582 8  -2322754.62745  24220994.052    24221010.8714
 00  3 23  0  9 30.0000000  0  7 04 06 26 13 24 10 30
  24539086.727     -204677.209 7   -134689.64945  24539091.627    24539108.8914
  21469648.299   -18684941.017 9 -14545448.08247  21469651.806    21469663.9544
  22229766.462   -13913356.842 8 -10795167.66746  22229769.063    22229780.8874
  22111247.445   -14210150.884 9 -11057668.25547  22111249.873    22111259.5534
  21397516.405   -17456171.449 9 -13584361.64547  21397518.625    21397530.7124
  20446023.146   -22421697.740 9 -17448908.90248  20446023.578    20446033.5564
  24234719.531    -2931560.166 8  -2266549.22445  24234719.425    24234737.0514
 00  3 23  0 10  0.0000000  0  7 04 06 26 13 24 10 30
  24554449.598     -123977.211 7    -71806.67345  24554446.200    24554463.4084
  21459687.244   -18737279.580 9 -14586231.29447  21459691.973    21459703.7864
  22209837.273   -14018079.834 8 -10876769.81346  22209840.243    22209852.1294
  22119113.323   -14168831.511 9 -11025471.32047  22119113.155    22119122.6954
  21405515.033   -17414136.637 9 -13551607.24647  21405518.205    21405528.9084
  20452533.159   -22387486.510 9 -17422250.79648  20452533.937    20452543.8544
  24248480.581    -2859245.876 7  -2210200.50845  24248480.963    24248498.1394
 00  3 23  0 10 30.0000000  0  7 04 06 26 13 24 10 30
  24569820.168      -43175.906 8     -8844.70645  24569826.624    24569840.9434
  21449824.656   -18789124.814 9 -14626630.08047  21449826.362    21449837.6904
  22189970.274   -14122507.833 8 -10958142.08546  22189968.587    22189980.1314
  22127083.325   -14126948.498 9 -10992835.19847  22127083.326    22127092.8334
  21413561.851   -17371843.278 9 -13518651.38947  21413566.542    21413577.4074
  20459106.298   -22352937.020 9 -17395329.10448  20459108.148    20459118.2794
  24262274.826    -2786745.820 8  -2153707.09545  24262276.565    24262294.5654
 00  3 23  0 11  0.0000000  0  7 04 06 26 13 24 10 30
  24585225.568       37747.357 7     54212.31745  24585225.105    24585238.8794
  21440053.316   -18840470.516 9 -14666639.61647  21440055.450    21440066.5474
  22170150.365   -14226644.656 8 -11039287.49446  22170151.599    22170162.7744
  22135156.636   -14084507.459 9 -10959764.24947  22135159.144    22135169.2994
  21421657.058   -17329304.981 9 -13485504.67447  21421661.094    21421672.3574
  20465746.169   -22318043.440 9 -17368139.29548  20465748.101    20465758.5184
  24276110.861    -2714043.572 8  -2097056.16745  24276111.924    24276130.0074
 00  3 23  0 11 30.0000000  0  8 04 17 06 26 13 24 10 30
  24600641.483      118792.504 7    117364.26544  24600644.961    24600660.4284
  24604250.234     -208189.57417   -142522.00655  24604266.230    24604288.9014
  21430374.325   -18891314.791 9 -14706258.43847  21430379.930    21430391.1534
  22150386.919   -14330494.975 8 -11120209.66246  22150389.429    22150400.8294
  22143340.051   -14041506.955 9 -10926257.36747  22143342.216    22143351.7974
  21429797.400   -17286533.280 9 -13452176.08347  21429800.003    21429811.7184
  20472449.264   -22282816.920 9 -17340690.04348  20472451.055    20472461.9764
  24289986.330    -2641136.522 8  -2040245.58745  24289986.753    24290003.4254
 00  3 23  0 12  0.0000000  0  7 17 06 26 13 24 10 30
  24587501.908     -296360.597 7   -211226.44545  24587491.789    24587509.4954
  21420796.252   -18941655.448 9 -14745484.84047  21420800.275    21420811.4284
  22130678.606   -14434062.384 8 -11200911.38346  22130681.350    22130692.9614
  22151622.087   -13997942.638 9 -10892311.14447  22151631.665    22151641.5734
  21437977.951   -17243527.690 9 -13418665.24047  21437983.923    21437995.2464
  20479221.586   -22247238.041 9 -17312966.23748  20479221.876    20479232.2704
  24303897.778    -2568024.248 8  -1983275.10645  24303898.786    24303916.2694
 00  3 23  0 12 30.0000000  0  7 17 06 26 13 24 10 30
  24570703.935     -384552.199 7   -279946.87945  24570706.310    24570726.4544
  21411312.386   -18991500.810 9 -14784325.27347  21411315.420    21411326.3044
  22111022.339   -14537357.889 8 -11281401.20746  22111024.613    22111036.4344
  22160023.978   -13953829.312 8 -10857937.12347  22160026.221    22160036.2444
  21446207.569   -17200297.216 9 -13384979.17247  21446210.593    21446221.6414
  20486058.666   -22211304.512 9 -17284966.07648  20486059.785    20486070.1254
  24317848.648    -2494697.189 7  -1926137.26045  24317851.591    24317869.3934
 00  3 23  0 13  0.0000000  0  7 17 06 26 13 24 10 30
  24553917.614     -472763.945 7   -348682.97745  24553922.539    24553938.7284
  21401918.371   -19040867.314 9 -14822792.58447  21401921.121    21401932.4524
  22091419.110   -14640367.648 8 -11361668.36446  22091422.268    22091433.6204
  22168520.730   -13909177.792 9 -10823143.72847  22168523.439    22168532.6764
  21454477.986   -17156842.400 9 -13351118.28947  21454479.617    21454490.8324
  20492961.475   -22175022.150 9 -17256694.09848  20492964.253    20492974.3314
  24331840.600    -2421159.697 7  -1868835.46845  24331845.729    24331864.0544
 00  3 23  0 13 30.0000000  0  7 17 06 26 13 24 10 30
  24537133.972     -561000.463 7   -417438.43145  24537130.699    24537150.1494
  21392617.891   -19089753.429 9 -14860885.57847  21392618.498    21392629.4544
  22071874.740   -14743085.362 8 -11441707.99346  22071875.536    22071886.5964
  22177120.513   -13863985.600 9 -10787929.02547  22177123.035    22177132.7444
  21462793.533   -17113144.953 9 -13317068.34147  21462795.348    21462805.8714
  20499932.055   -22138395.636 9 -17228153.94548  20499933.857    20499943.9974
  24345880.447    -2347429.063 8  -1811383.14145  24345877.033    24345894.4934
 00  3 23  0 14  0.0000000  0  7 17 06 26 13 24 10 30
  24520336.280     -649262.672 7   -486213.82845  24520336.234    24520353.7414
  21383406.151   -19138151.328 9 -14898598.12947  21383408.217    21383419.5314
  22052383.954   -14845509.231 8 -11521518.63846  22052385.269    22052395.9484
  22185817.237   -13818272.352 9 -10752308.31847  22185822.644    22185831.5274
  21471155.815   -17069194.339 9 -13282821.12447  21471158.582    21471169.5404
  20506966.097   -22101433.244 9 -17199352.06948  20506967.780    20506977.6674
  24359939.867    -2273500.478 8  -1753776.60945  24359945.391    24359963.7624
 00  3 23  0 14 30.0000000  0  7 17 06 26 13 24 10 30
  24503538.261     -737549.289 7   -555008.25145  24503534.380    24503553.2734
  21374288.208   -19186062.626 9 -14935931.51047  21374290.795    21374302.1404
  22032952.526   -14947629.737 8 -11601092.90646  22032951.866    22032963.8974
  22194619.046   -13772043.493 9 -10716285.83147  22194619.591    22194628.7574
  21479568.688   -17024990.325 9 -13248376.44647  21479570.463    21479581.6434
  20514058.095   -22064162.659 9 -17170310.04748  20514060.083    20514069.9654
  24374041.125    -2199380.521 7  -1696020.92145  24374049.257    24374067.8644
 00  3 23  0 15  0.0000000  0  7 17 06 26 13 24 10 30
  24486738.286     -825863.132 7   -623823.90945  24486728.531    24486745.1714
  21365269.323   -19233461.861 9 -14972865.89147  21365270.868    21365282.2274
  22013579.195   -15049427.876 8 -11680415.95646  22013580.220    22013592.2434
  22203517.267   -13725282.173 9 -10679848.42047  22203518.050    22203527.2564
  21488030.733   -16980525.216 9 -13213728.31647  21488031.891    21488043.0354
  20521205.290   -22026607.402 9 -17141046.20248  20521206.719    20521216.5304
  24388189.738    -2125092.160 8  -1638134.01145  24388186.669    24388204.2814
 00  3 23  0 15 30.0000000  0  7 17 06 26 13 24 10 30
  24469911.693     -914218.934 7   -692672.30445  24469914.463    24469933.2394
  21356349.558   -19280326.192 9 -15009383.46947  21356352.684    21356364.5994
  21994267.557   -15150908.387 8 -11759491.52747  21994269.613    21994281.1454
  22212515.791   -13677989.651 9 -10642997.11647  22212516.765    22212526.5074
  21496537.345   -16935803.280 9 -13178880.06347  21496542.259    21496553.1474
  20528402.544   -21988778.788 9 -17111569.34848  20528404.762    20528415.1314
  24402352.544    -2050635.293 8  -1580115.73645  24402355.784    24402372.3434
 00  3 23  0 16  0.0000000  0  7 17 06 26 13 24 10 30
  24453085.353    -1002627.635 7   -761561.84945  24453093.144    24453108.9734
  21347536.114   -19326649.883 9 -15045479.77147  21347537.736    21347548.9604
  21975014.082   -15252063.259 8 -11838313.33947  21975019.511    21975031.3984
  22221613.014   -13630168.896 9 -10605734.18247  22221616.809    22221626.1264
  21505095.625   -16890837.126 9 -13143841.50947  21505098.873    21505109.6354
  20535654.271   -21950674.896 9 -17081877.99148  20535656.134    20535666.2714
  24416550.426    -1976008.626 7  -1521965.13945  24416556.616    24416573.5184
 00  3 23  0 16 30.0000000  0  7 17 06 26 13 24 10 30
  24436258.730    -1091084.957 7   -830489.29445  24436258.310    24436276.1794
  21338820.985   -19372432.600 9 -15081154.53347  21338825.099    21338836.7034
  21955831.926   -15352878.346 8 -11916870.38747  21955834.814    21955846.3614
  22230818.550   -13581806.487 9 -10568049.19047  22230820.600    22230829.2204
  21513698.862   -16845631.017 9 -13108615.97147  21513701.586    21513712.0234
  20542960.753   -21912280.529 9 -17051960.28848  20542962.102    20542972.6194
  24430789.064    -1901237.695 8  -1463702.18445  24430785.160    24430803.2754
 00  3 23  0 17  0.0000000  0  7 17 06 26 13 24 10 30
  24419414.859    -1179605.543 7   -899466.10845  24419413.290    24419428.8604
  21330212.696   -19417677.942 9 -15116410.56547  21330215.598    21330226.9144
  21936717.104   -15453352.502 8 -11995161.76747  21936714.929    21936727.0454
  22240120.771   -13532909.670 9 -10529947.77347  22240124.673    22240134.1764
  21522347.288   -16800182.999 9 -13073201.95047  21522349.958    21522360.8344
  20550325.192   -21873578.380 9 -17021802.75848  20550327.121    20550337.4094
  24445031.470    -1826311.089 7  -1405317.90145  24445041.706    24445060.1454
 00  3 23  0 17 30.0000000  0  7 17 06 26 13 24 10 30
  24402553.155    -1268180.829 7   -968485.49345  24402556.448    24402573.5684
  21321699.824   -19462404.549 9 -15151262.38447  21321704.623    21321715.5994
  21917651.895   -15553484.986 8 -12073186.91647  21917661.018    21917672.1004
  22249525.507   -13483498.097 8 -10491445.25347  22249527.761    22249536.8984
  21531040.741   -16754499.491 9 -13037604.42747  21531043.058    21531054.4604
  20557753.311   -21834543.456 9 -16991385.91448  20557755.113    20557765.3704
  24459331.369    -1751224.213 7  -1346808.73845  24459332.012    24459348.5254
 00  3 23  0 18  0.0000000  0  7 17 06 26 13 24 10 30
  24385685.275    -1356791.707 7  -1037532.64945  24385693.541    24385711.5334
  21313284.947   -19506622.601 9 -15185717.93947  21313290.157    21313301.3754
  21898672.539   -15653275.497 8 -12150945.61547  21898671.136    21898682.7094
  22259029.564   -13433567.969 9 -10452538.66147  22259029.119    22259039.0534
  21539778.725   -16708576.681 9 -13001820.43447  21539781.966    21539792.5854
  20565244.446   -21795167.453 9 -16960703.30848  20565248.058    20565258.4524
  24473645.128    -1675986.164 7  -1288181.77945  24473646.717    24473665.0804
 00  3 23  0 18 30.0000000  0  7 17 06 26 13 24 10 30
  24368825.450    -1445430.024 7  -1106601.13045  24368827.547    24368843.7734
  21304968.450   -19550344.820 9 -15219787.13547  21304970.156    21304980.9724
  21879740.884   -15752730.266 8 -12228442.67047  21879745.436    21879757.1414
  22268626.055   -13383117.937 8 -10413226.95347  22268629.261    22268639.4184
  21548561.492   -16662415.847 9 -12965850.97147  21548565.711    21548577.4384
  20572803.491   -21755449.012 9 -16929753.85748  20572805.992    20572816.0284
  24487984.810    -1600603.048 7  -1229441.76345  24487992.643    24488012.0024
 00  3 23  0 19  0.0000000  0  7 17 06 26 13 24 10 30
  24351946.672    -1534087.288 7  -1175684.46745  24351955.237    24351972.3484
  21296742.549   -19593563.762 9 -15253464.16747  21296745.424    21296756.1664
  21860878.272   -15851853.511 8 -12305681.42347  21860883.141    21860894.4734
  22278326.787   -13332156.610 9 -10373516.83047  22278327.658    22278336.4484
  21557393.671   -16616018.065 9 -12929696.87047  21557395.206    21557406.2654
  20580426.460   -21715403.196 9 -16898549.31148  20580426.757    20580436.6084
  24502370.674    -1525066.636 8  -1170582.32045  24502369.502    24502386.7174
 00  3 23  0 19 30.0000000  0  7 17 06 26 13 24 10 30
  24335076.447    -1622744.351 7  -1244767.62445  24335084.285    24335101.5784
  21288614.755   -19636267.470 9 -15286739.72347  21288618.779    21288629.9814
  21842080.389   -15950641.430 8 -12382658.86747  21842083.896    21842095.7134
  22288119.125   -13280674.930 8 -10333401.23247  22288123.537    22288133.0974
  21566267.802   -16569374.771 9 -12893351.45647  21566271.702    21566281.8034
  20588106.859   -21675035.128 9 -16867093.66348  20588108.526    20588118.3904
  24516770.166    -1449391.046 8  -1111614.38245  24516770.557    24516786.4344
 00  3 23  0 20  0.0000000  0  7 17 06 26 13 24 10 30
  24318212.989    -1711410.965 7  -1313858.21545  24318212.993    24318229.2094
  21280589.384   -19678449.615 9 -15319608.86047  21280592.314    21280602.5854
  21823341.533   -16049107.148 8 -12459385.25547  21823346.559    21823357.7424
  22298018.839   -13228661.678 8 -10292871.41647  22298021.367    22298031.1274
  21575195.147   -16522479.366 9 -12856809.59447  21575195.129    21575206.5604
  20595849.108   -21634358.455 9 -16835397.54348  20595848.656    20595858.8564
  24531200.870    -1373573.172 7  -1052535.60045  24531195.959    24531213.4924
 00  3 23  0 20 30.0000000  0  7 17 06 26 13 24 10 30
  24301332.520    -1800090.854 7  -1382959.20245  24301338.027    24301353.9664
  21272666.077   -19720100.275 9 -15352063.85747  21272666.783    21272677.4844
  21804669.298   -16147248.143 8 -12535858.60647  21804670.342    21804682.6254
  22308013.829   -13176125.101 8 -10251933.82747  22308018.155    22308028.7084
  21584163.663   -16475328.738 9 -12820068.85347  21584167.722    21584178.4124
  20603646.420   -21593382.565 9 -16803468.27148  20603646.282    20603656.3824
  24545642.900    -1297607.504 7   -993341.61045  24545652.714    24545668.0684
 00  3 23  0 21  0.0000000  0  7 17 06 26 13 24 10 30
  24284454.580    -1888786.012 8  -1452072.13245  24284459.722    24284475.3914
  21264841.250   -19761206.671 9 -15384094.76047  21264843.942    21264855.1704
  21786051.839   -16245059.913 8 -12612075.41147  21786057.504    21786069.1774
  22318113.987   -13123065.108 8 -10210588.38747  22318115.727    22318125.2664
  21593185.133   -16427916.511 9 -12783124.27547  21593190.015    21593200.1224
  20611498.038   -21552112.725 9 -16771309.94448  20611499.742    20611509.7804
  24560132.206    -1221489.040 7   -934028.61845  24560136.918    24560154.7084
 00  3 23  0 21 30.0000000  0  7 17 06 26 13 24 10 30
  24267572.714    -1977504.924 7  -1521203.53145  24267576.906    24267592.5624
  21257121.561   -19801777.159 9 -15415708.07047  21257123.860    21257134.9654
  21767503.981   -16342544.709 8 -12688037.44247  21767505.929    21767518.6884
  22328311.722   -13069481.810 8 -10168835.17847  22328312.223    22328321.6444
  21602259.833   -16380242.161 9 -12745975.44547  21602262.550    21602273.3334
  20619407.705   -21510545.492 9 -16738919.87848  20619409.677    20619419.8904
  24574653.974    -1145218.438 8   -874597.07445  24574651.649    24574668.6994
 00  3 23  0 22  0.0000000  0  7 17 06 26 13 24 10 30
  24250682.270    -2066257.046 7  -1590360.81645  24250686.662    24250703.4554
  21249500.761   -19841815.091 9 -15446906.39847  21249504.699    21249515.8894
  21749013.828   -16439699.243 8 -12763742.11547  21749018.129    21749030.9384
  22338605.803   -13015384.468 9 -10126681.40547  22338607.661    22338615.8904
  21611373.992   -16332330.995 9 -12708642.07347  21611378.874    21611390.2524
  20627370.380   -21468687.793 9 -16706303.47948  20627374.881    20627385.1934
  24589188.377    -1068792.526 7   -815044.53645  24589194.592    24589212.3654
 00  3 23  0 22 30.0000000  0  7 17 06 26 13 24 10 30
  24233780.861    -2155038.197 7  -1659540.70745  24233791.979    24233808.8634
  21241982.254   -19881326.708 9 -15477694.61147  21241985.784    21241996.9054
  21730596.427   -16536499.173 8 -12839170.47447  21730597.723    21730609.9414
  22348995.957   -12960773.478 8 -10084127.39347  22348998.862    22349008.4904
  21620540.333   -16284193.063 9 -12671132.02147  21620539.619    21620550.8444
  20635392.887   -21426545.699 9 -16673465.47448  20635394.459    20635404.5894
  24603767.252     -992216.591 7   -755375.04945  24603766.558    24603783.2114
 00  3 23  0 23  0.0000000  0  7 17 06 26 13 24 10 30
  24216884.068    -2243847.275 7  -1728742.35645  24216890.902    24216908.5394
  21234562.650   -19920323.749 9 -15508081.86247  21234564.711    21234575.5484
  21712243.594   -16632924.580 8 -12914307.01647  21712248.915    21712259.7514
  22359487.895   -12905647.475 9 -10041172.07147  22359489.385    22359498.2624
  21629741.652   -16235829.879 9 -12633446.45947  21629742.985    21629753.8894
  20643464.712   -21384122.095 9 -16640408.10348  20643467.417    20643477.5494
  24618356.904     -915498.319 7   -695594.71145  24618366.842    24618384.1764
 00  3 23  0 23 30.0000000  0  7 17 06 26 13 24 10 30
  24199976.548    -2332676.389 7  -1797959.67745  24199988.003    24200003.9654
  21227238.315   -19958811.568 9 -15538072.31547  21227241.044    21227251.2774
  21693969.342   -16728968.761 8 -12989146.48947  21693972.094    21693982.9764
  22370070.496   -12850020.765 8  -9997826.58947  22370073.807    22370083.7504
  21638984.619   -16187241.916 9 -12595585.72347  21638988.747    21638999.9964
  20651592.111   -21341421.273 9 -16607134.72348  20651593.167    20651603.1054
  24632988.960     -838643.638 7   -635708.07145  24632991.191    24633008.7324
 00  3 23  0 24  0.0000000  0  7 17 06 26 13 24 10 30
  24183085.236    -2421517.249 7  -1867186.11045  24183083.216    24183097.6844
  21220012.398   -19996787.889 9 -15567664.19447  21220014.340    21220024.5964
  21675770.353   -16824621.587 9 -13063681.01947  21675770.168    21675781.2624
  22380758.032   -12793884.866 9  -9954084.34347  22380757.010    22380766.1924
  21648274.229   -16138427.247 9 -12557548.34847  21648277.801    21648288.9984
  20659767.530   -21298461.524 9 -16573659.57948  20659767.523    20659777.8364
  24647640.848     -761664.250 7   -575724.23345  24647638.245    24647657.7734
 00  3 23  0 24 30.0000000  0  7 17 06 26 13 24 10 30
  24166171.261    -2510365.210 7  -1936418.07645  24166175.615    24166191.1394
  21212882.584   -20034249.999 9 -15596855.38847  21212885.375    21212895.8004
  21657644.365   -16919877.082 9 -13137905.92147  21657643.690    21657655.1064
  22391533.702   -12737241.616 8  -9909946.76247  22391534.870    22391545.2974
  21657612.653   -16089356.194 9 -12519311.17847  21657615.975    21657627.6954
  20667990.449   -21255241.244 9 -16539981.42048  20667991.996    20668002.2894
  24662309.226     -684569.002 8   -515650.16245  24662311.059    24662328.0244
 00  3 23  0 25  0.0000000  0  7 17 06 26 13 24 10 30
  24149260.224    -2599221.589 7  -2005656.56145  24149265.624    24149281.9604
  21205853.623   -20071182.505 9 -15625633.90447  21205857.173    21205868.0254
  21639591.193   -17014743.745 8 -13211827.85547  21639590.070    21639602.1464
  22402404.019   -12680104.254 8  -9865424.15947  22402408.750    22402418.0254
  21667000.560   -16040020.370 9 -12480867.71447  21667004.477    21667015.7104
  20676267.192   -21211747.285 9 -16506090.01648  20676268.839    20676279.0594
  24677002.503     -607362.694 7   -455489.50745  24677002.319    24677020.3604
 00  3 23  0 25 30.0000000  0  7 17 06 26 13 24 10 30
  24132351.658    -2688085.528 8  -2074900.96445  24132355.010    24132371.4994
  21198930.925   -20107571.729 9 -15653989.08447  21198932.822    21198943.5534
  21621604.934   -17109234.863 8 -13285457.14547  21621608.877    21621621.0414
  22413375.653   -12622461.574 8  -9820507.80047  22413377.475    22413387.0524
  21676437.300   -15990429.337 9 -12442225.37047  21676441.357    21676452.5534
  20684596.797   -21167978.303 9 -16471984.30748  20684598.088    20684607.9174
  24691717.290     -530054.375 7   -395249.35545  24691714.193    24691732.0314
 00  3 23  0 26  0.0000000  0  7 17 06 26 13 24 10 30
  24115440.439    -2776965.115 7  -2144157.55245  24115441.709    24115458.1124
  21192110.334   -20143418.374 9 -15681921.46747  21192111.309    21192122.3224
  21603695.668   -17203341.810 8 -13358787.09747  21603701.356    21603712.4974
  22424441.331   -12564307.102 9  -9775192.64147  22424444.139    22424453.3244
  21685927.262   -15940585.753 9 -12403386.23447  21685926.438    21685937.1764
  20692978.842   -21123925.085 9 -16437657.10448  20692980.954    20692991.3904
  24706435.143     -452645.010 7   -334930.49745  24706444.669    24706462.2574
 00  3 23  0 26 30.0000000  0  7 17 06 26 13 24 10 30
  24098521.586    -2865878.393 7  -2213440.39645  24098523.197    24098537.0214
  21185391.940   -20178710.427 9 -15709421.71047  21185395.222    21185405.6114
  21585865.315   -17297067.536 9 -13431819.97947  21585866.385    21585877.6054
  22435603.132   -12505658.501 9  -9729492.44947  22435604.505    22435613.5624
  21695453.959   -15890488.206 8 -12364349.19347  21695459.103    21695470.0934
  20701422.567   -21079563.891 9 -16403089.92648  20701422.517    20701433.1464
  24721196.027     -375135.474 7   -274533.56245  24721193.523    24721213.3654
 00  3 23  0 27  0.0000000  0  6 17 06 26 13 24 10
  24081595.159    -2954824.124 8  -2282748.53845  24081596.894    24081611.2414
  21178781.853   -20213449.063 9 -15736490.72047  21178785.093    21178794.9214
  21568098.649   -17390420.438 8 -13504562.35247  21568101.056    21568112.7674
  22446850.485   -12446519.482 8  -9683410.10046  22446857.743    22446867.2524
  21705034.060   -15840159.841 9 -12325132.32047  21705036.264    21705047.8704
  20709917.756   -21034905.464 9 -16368291.12748  20709920.740    20709930.8854
 00  3 23  0 27 30.0000000  0  6 17 06 26 13 24 10
  24064666.415    -3043798.995 7  -2352079.34545  24064664.051    24064679.8994
  21172278.957   -20247628.141 9 -15763123.71047  21172281.326    21172290.3144
  21550403.918   -17483395.305 8 -13577010.15647  21550408.239    21550419.7934
  22458205.380   -12386895.616 9  -9636949.94846  22458204.319    22458213.6734
  21714652.925   -15789596.664 9 -12285732.46547  21714658.341    21714669.3354
  20718475.632   -20989964.227 9 -16333271.97548  20718473.064    20718483.0094
 00  3 23  0 28  0.0000000  0  6 17 06 26 13 24 10
  24047723.239    -3132804.822 7  -2421434.24345  24047727.161    24047743.0784
  21165880.094   -20281242.567 9 -15789316.71247  21165883.696    21165893.9234
  21532785.747   -17575985.977 9 -13649158.59747  21532789.442    21532800.2854
  22469637.370   -12326810.340 9  -9590130.26146  22469637.828    22469647.5034
  21724325.527   -15738784.581 9 -12246138.65447  21724327.630    21724338.3934
  20727077.325   -20944740.084 9 -16298032.36648  20727078.944    20727088.7244
 00  3 23  0 28 30.0000000  0  6 17 06 26 13 24 10
  24030784.893    -3221832.057 8  -2490805.88345  24030786.320    24030801.9524
  21159598.683   -20314267.122 9 -15815050.07647  21159599.843    21159609.3914
  21515240.274   -17668198.966 8 -13721012.72547  21515241.064    21515252.3354
  22481158.029   -12266264.812 9  -9542951.93746  22481159.840    22481168.9284
  21734041.864   -15687723.946 9 -12206351.17247  21734044.313    21734054.6924
  20735734.081   -20899243.990 9 -16262580.84948  20735735.885    20735746.3564
 00  3 23  0 29  0.0000000  0  6 17 06 26 13 24 10
  24013841.816    -3310858.029 8  -2560176.53945  24013844.698    24013860.7624
  21153424.776   -20346707.103 9 -15840327.91347  21153426.386    21153436.6814
  21497762.533   -17760024.861 9 -13792565.24447  21497767.757    21497778.3474
  22492767.621   -12205254.902 8  -9495411.74846  22492769.002    22492779.2574
  21743803.449   -15636415.614 8 -12166370.67347  21743807.455    21743818.7974
  20744442.917   -20853485.089 9 -16226924.54748  20744443.765    20744453.9504
 00  3 23  0 29 30.0000000  0  6 17 06 26 13 24 10
  23996905.674    -3399877.174 8  -2629541.87145  23996904.204    23996920.7194
  21147362.883   -20378555.146 9 -15865144.52247  21147366.187    21147376.3074
  21480366.825   -17851454.751 9 -13863809.18947  21480368.472    21480379.5784
  22504463.285   -12143774.953 8  -9447505.32746  22504468.683    22504478.3054
  21753615.454   -15584852.295 8 -12126191.50047  21753619.882    21753631.2364
  20753202.722   -20807457.447 9 -16191058.83448  20753202.737    20753212.6314
 00  3 23  0 30  0.0000000  0  6 17 06 26 13 24 10
  23979963.805    -3488890.382 8  -2698902.58445  23979965.972    23979982.9344
  21141414.408   -20409820.185 9 -15889506.83447  21141415.889    21141426.4314
  21463042.421   -17942490.755 9 -13934746.19147  21463044.894    21463055.9374
  22516256.968   -12081814.682 8  -9399224.61146  22516259.709    22516267.8104
  21763476.243   -15533046.165 9 -12085823.12047  21763478.688    21763490.0934
  20762011.493   -20761156.565 9 -16154980.20948  20762013.455    20762023.4934
 00  3 23  0 30 30.0000000  0  6 17 06 26 13 24 10
  23963026.344    -3577895.720 8  -2768257.15745  23963029.023    23963044.7554
  21135571.985   -20440515.412 9 -15913425.14747  21135574.893    21135585.4554
  21445793.026   -18033129.831 8 -14005373.92647  21445796.420    21445807.0024
  22528137.100   -12019361.145 8  -9350559.54446  22528143.642    22528153.4354
  21773376.784   -15481008.235 9 -12045274.12947  21773380.997    21773392.6084
  20770873.904   -20714586.615 9 -16118691.93348  20770875.727    20770885.9574
 00  3 23  0 31  0.0000000  0  6 17 06 26 13 24 10
  23946093.540    -3666894.549 8  -2837606.67645  23946093.216    23946109.5664
  21129833.321   -20470667.332 9 -15936920.09247  21129837.567    21129847.2864
  21428623.106   -18123364.440 9 -14075686.48047  21428625.603    21428636.8344
  22540120.727   -11956420.277 8  -9301514.74546  22540121.383    22540130.9854
  21783322.797   -15428732.183 8 -12004539.58147  21783328.638    21783340.3204
  20779789.560   -20667747.500 9 -16082193.91448  20779788.597    20779798.8624
 00  3 23  0 31 30.0000000  0  6 17 06 26 13 24 10
  23929153.214    -3755901.623 8  -2906962.61745  23929155.028    23929171.4374
  21124198.386   -20500281.249 9 -15959995.82047  21124201.966    21124212.5034
  21411534.322   -18213190.874 9 -14145680.96147  21411532.754    21411542.7764
  22552185.601   -11892993.409 8  -9252091.24146  22552190.294    22552200.3194
  21793318.868   -15376220.004 9 -11963621.04147  21793321.753    21793332.7164
  20788750.186   -20620647.715 9 -16045492.77648  20788751.584    20788760.8974
 00  3 23  0 32  0.0000000  0  6 17 06 26 13 24 10
  23912211.348    -3844920.064 8  -2976327.39045  23912214.455    23912232.2104
  21118664.496   -20529366.786 9 -15982659.81947  21118667.245    21118677.0734
  21394511.868   -18302607.762 9 -14215356.33147  21394516.937    21394527.2544
  22564349.911   -11829080.010 8  -9202288.63746  22564352.990    22564362.6204
  21803358.234   -15323462.259 9 -11922511.14447  21803361.283    21803371.8444
  20797761.910   -20573288.681 9 -16008589.62348  20797764.014    20797773.3514
 00  3 23  0 32 30.0000000  0  6 17 06 26 13 24 10
  23895271.069    -3933950.467 8  -3045701.48545  23895273.082    23895288.6674
  21113231.946   -20557923.897 9 -16004912.05647  21113232.925    21113243.1124
  21377581.156   -18391603.900 9 -14284703.84947  21377581.036    21377592.1264
  22576602.486   -11764690.023 8  -9152114.63846  22576605.363    22576615.3574
  21813446.141   -15270442.040 9 -11881196.72147  21813450.280    21813461.5404
  20806823.843   -20525680.114 9 -15971492.02748  20806823.257    20806833.1294
 00  3 23  0 33  0.0000000  0  6 17 06 26 13 24 10
  23878325.971    -4022996.204 8  -3115087.51646  23878328.609    23878343.7934
  21107898.155   -20585943.157 9 -16026745.18647  21107900.950    21107911.4054
  21360725.261   -18480169.905 9 -14353716.17947  21360727.433    21360738.8264
  22588942.303   -11699836.502 8  -9101579.45346  22588947.657    22588957.1524
  21823587.732   -15217146.979 8 -11839668.14847  21823591.951    21823604.0284
  20815924.710   -20477828.709 9 -15934205.21248  20815928.848    20815938.8734
 00  3 23  0 33 30.0000000  0  6 17 06 26 13 24 10
  23861376.115    -4112063.291 8  -3184490.16346  23861379.358    23861395.0334
  21102670.007   -20613407.306 9 -16048145.77247  21102674.214    21102685.0384
  21343949.162   -18568313.170 9 -14422399.11347  21343954.568    21343965.1914
  22601374.354   -11634516.012 8  -9050680.37446  22601377.036    22601386.7414
  21833781.225   -15163584.195 8 -11797930.95847  21833784.851    21833796.5624
  20825080.337   -20429740.201 9 -15896733.64048  20825080.302    20825090.0384
 00  3 23  0 34  0.0000000  0  6 17 06 26 13 24 10
  23844417.621    -4201142.420 7  -3253902.22145  23844425.895    23844443.5964
  21097555.607   -20640299.921 9 -16069100.99947  21097557.166    21097567.2014
  21327258.674   -18656029.692 9 -14490749.53747  21327262.352    21327273.6854
  22613887.684   -11568737.739 8  -8999424.59646  22613893.934    22613904.0804
  21844029.389   -15109747.977 8 -11755980.69447  21844029.051    21844041.1924
  20834274.490   -20381409.372 9 -15859073.25848  20834277.112    20834287.3604
 00  3 23  0 34 30.0000000  0  6 17 06 26 13 24 10
  23827465.583    -4290239.447 8  -3323328.25845  23827471.795    23827488.5364
  21092550.302   -20666608.677 9 -16089601.27447  21092550.709    21092560.6214
  21310653.155   -18743308.135 9 -14558758.58847  21310653.996    21310664.2954
  22626486.952   -11502525.090 8  -8947830.35146  22626493.609    22626503.7914
  21854320.053   -15055640.323 8 -11713818.92247  21854325.449    21854337.1084
  20843519.892   -20332830.150 9 -15821219.31048  20843521.135    20843531.2974
 00  3 23  0 35  0.0000000  0  6 17 06 26 13 24 10
  23810513.824    -4379348.120 8  -3392763.28145  23810516.724    23810530.3284
  21087654.609   -20692332.990 9 -16109646.14047  21087655.470    21087665.5214
  21294127.310   -18830149.477 9 -14626427.04747  21294128.601    21294139.2024
  22639171.299   -11435875.431 8  -8895895.57146  22639176.563    22639186.6254
  21864668.976   -15001274.907 8 -11671456.29747  21864670.580    21864682.6754
  20852813.452   -20283996.878 9 -15783167.41148  20852813.145    20852824.0134
 00  3 23  0 35 30.0000000  0  6 17 06 26 13 24 10
  23793557.406    -4468450.571 8  -3462193.52645  23793559.855    23793574.4644
  21082869.478   -20717474.995 9 -16129237.25947  21082871.065    21082880.8144
  21277678.232   -18916552.003 9 -14693753.56647  21277686.775    21277697.1084
  22651942.388   -11368787.449 8  -8843619.25346  22651943.390    22651954.2434
  21875056.287   -14946660.465 8 -11628899.63247  21875063.759    21875075.4304
  20862152.356   -20234902.056 9 -15744911.70547  20862155.835    20862166.0664
 00  3 23  0 36  0.0000000  0  6 17 06 26 13 24 10
  23776603.550    -4557531.595 8  -3531607.05945  23776608.055    23776623.3614
  21078190.197   -20742046.560 9 -16148383.87947  21078194.713    21078205.1914
  21261331.575   -19002495.685 9 -14760722.55447  21261332.151    21261341.6894
  22664792.132   -11301267.665 8  -8791006.46446  22664792.731    22664802.2664
  21885504.949   -14891786.244 8 -11586140.55247  21885505.979    21885517.8274
  20871549.244   -20185536.152 9 -15706444.76747  20871550.213    20871560.4004
 00  3 23  0 36 30.0000000  0  6 17 06 26 13 24 10
  23759656.749    -4646598.931 8  -3601009.92145  23759657.723    23759674.2324
  21073623.144   -20766058.080 9 -16167094.10247  21073626.176    21073636.1454
  21245060.830   -19087981.326 9 -14827334.63147  21245064.113    21245074.6894
  22677721.655   -11233301.964 8  -8738046.19046  22677726.078    22677736.0604
  21895989.796   -14836664.843 8 -11543188.85447  21895995.189    21896007.2254
  20880990.852   -20135900.076 9 -15667767.30147  20880995.283    20881005.8064
 00  3 23  0 37  0.0000000  0  6 17 06 26 13 24 10
  23742709.980    -4735642.463 8  -3670394.22345  23742712.334    23742727.3814
  21069161.548   -20789507.196 9 -16185366.08347  21069163.406    21069174.2214
  21228881.106   -19173015.293 9 -14893594.73647  21228883.122    21228892.8514
  22690748.791   -11164875.249 8  -8684726.71646  22690748.299    22690757.5274
  21906530.011   -14781311.989 8 -11500056.80347  21906529.268    21906540.5484
  20890491.846   -20086000.385 9 -15628884.42847  20890491.344    20890501.2684
 00  3 23  0 37 30.0000000  0  6 17 06 26 13 24 10
  23725774.111    -4824670.394 8  -3739766.41045  23725773.667    23725786.5924
  21064809.485   -20812382.158 9 -16203190.69247  21064810.708    21064820.7894
  21212783.924   -19257605.247 9 -14959508.86747  21212786.055    21212796.0254
  22703853.347   -11095994.123 8  -8631053.13846  22703854.581    22703863.9644
  21917102.177   -14725731.102 9 -11456747.05747  21917106.052    21917116.8664
  20900035.938   -20035835.028 9 -15589794.53347  20900037.666    20900047.3324
 00  3 23  0 38  0.0000000  0  6 17 06 26 13 24 10
  23708825.763    -4913703.860 8  -3809142.86846  23708829.851    23708843.8094
  21060565.967   -20834677.966 9 -16220563.99047  21060568.366    21060577.8494
  21196771.715   -19341754.591 9 -15025079.66947  21196772.720    21196783.2184
  22717049.269   -11026653.782 8  -8577021.70446  22717050.572    22717059.2554
  21927727.129   -14669922.637 9 -11413259.98347  21927726.210    21927736.7854
  20909633.317   -19985406.653 9 -15550499.69347  20909633.994    20909643.8104
 00  3 23  0 38 30.0000000  0  6 17 06 26 13 24 10
  23691874.424    -5002752.617 8  -3878531.25246  23691883.518    23691898.2054
  21056436.007   -20856385.649 9 -16237479.01847  21056437.350    21056447.0104
  21180838.288   -19425474.870 9 -15090316.13647  21180841.315    21180851.1434
  22730324.545   -10956866.118 8  -8522641.73046  22730329.830    22730339.8734
  21938385.148   -14613897.873 8 -11369604.36347  21938386.659    21938397.6004
  20919273.281   -19934733.725 9 -15511014.28747  20919276.289    20919286.4444
 00  3 23  0 39  0.0000000  0  6 17 06 26 13 24 10
  23674931.208    -5091807.079 8  -3947924.07545  23674936.600    23674951.7274
  21052416.366   -20877499.769 9 -16253931.53047  21052419.008    21052429.3704
  21164989.737   -19508766.402 9 -15155218.50847  21164991.027    21165001.4614
  22743691.153   -10886645.023 8  -8467924.00046  22743693.167    22743702.6244
  21949089.533   -14557644.453 8 -11325770.56047  21949091.496    21949102.8954
  20928960.198   -19883829.701 9 -15471348.80947  20928962.920    20928973.4424
 00  3 23  0 39 30.0000000  0  6 17 06 26 13 24 10
  23657985.869    -5180868.180 8  -4017322.08146  23657989.538    23658003.8894
  21048508.755   -20898034.827 9 -16269932.82547  21048511.590    21048521.4094
  21149223.118   -19591623.216 9 -15219782.15447  21149224.485    21149234.1444
  22757134.364   -10815991.625 8  -8412869.43046  22757137.401    22757148.1024
  21959840.663   -14501141.580 8 -11281742.40647  21959844.105    21959854.8214
  20938690.691   -19832709.277 9 -15431514.70647  20938690.865    20938701.1634
 00  3 23  0 40  0.0000000  0  6 17 06 26 13 24 10
  23641045.919    -5269925.557 8  -4086717.21246  23641042.692    23641056.1434
  21044711.627   -20917998.901 9 -16285489.19647  21044712.789    21044722.3894
  21133541.801   -19674027.224 9 -15283992.95547  21133543.095    21133553.3104
  22770660.826   -10744905.807 8  -8357477.91346  22770664.391    22770674.8264
  21970644.059   -14444373.522 8 -11237507.59347  21970646.867    21970658.0144
  20948457.063   -19781375.562 9 -15391514.41047  20948459.469    20948469.5644
 00  3 23  0 40 30.0000000  0  6 17 06 26 13 24 10
  23624093.215    -5358972.971 8  -4156104.55746  23624096.223    23624112.1404
  21041023.083   -20937380.525 9 -16300591.70747  21041024.466    21041034.2694
  21117945.010   -19755980.402 9 -15347852.48447  21117947.694    21117957.5694
  22784271.328   -10673398.989 8  -8301758.33546  22784272.169    22784282.8144
  21981491.763   -14387341.644 8 -11193067.20847  21981498.998    21981510.9744
  20958264.994   -19729832.558 9 -15351351.02347  20958267.743    20958277.8474
 00  3 23  0 41  0.0000000  0  6 17 06 26 13 24 10
  23607149.195    -5448017.713 8  -4225489.84146  23607151.916    23607166.5074
  21037443.222   -20956186.444 9 -16315245.62647  21037445.347    21037455.6044
  21102435.843   -19837476.330 9 -15411355.69147  21102439.054    21102449.5954
  22797958.542   -10601452.672 8  -8245696.29446  22797963.590    22797973.4004
  21992399.038   -14330031.617 8 -11148410.10347  21992404.895    21992417.0744
  20968118.062   -19678071.269 9 -15311017.55047  20968117.390    20968127.7954
 00  3 23  0 41 30.0000000  0  6 17 06 26 13 24 10
  23590201.615    -5537064.304 8  -4294876.57146  23590207.131    23590222.3474
  21033972.704   -20974417.333 9 -16329451.46447  21033976.299    21033985.9464
  21087018.279   -19918503.356 9 -15474493.52547  21087020.604    21087030.7034
  22811736.616   -10529065.241 8  -8189290.51846  22811736.985    22811747.6284
  22003361.527   -14272447.407 9 -11103539.33147  22003363.200    22003374.8004
  20978012.403   -19626066.795 9 -15270494.58647  20978013.516    20978023.9724
 00  3 23  0 42  0.0000000  0  6 17 06 26 13 24 10
  23573252.723    -5626118.753 8  -4364269.43646  23573260.814    23573274.7974
  21030617.828   -20992058.172 9 -16343197.52447  21030619.610    21030628.9624
  21071687.988   -19999061.508 9 -15537266.00347  21071690.808    21071700.4304
  22825597.098   -10456241.276 8  -8132544.60846  22825596.192    22825606.0354
  22014365.900   -14214599.260 8 -11058462.90047  22014371.095    22014382.5824
  20987957.291   -19573804.749 9 -15229770.92047  20987958.955    20987968.8254
 00  3 23  0 42 30.0000000  0  6 17 06 26 13 24 10
  23556311.146    -5715176.803 8  -4433665.12346  23556313.674    23556327.3944
  21027373.155   -21009108.889 9 -16356483.75147  21027374.619    21027383.8184
  21056446.722   -20079158.727 9 -15599679.30847  21056448.432    21056458.9044
  22839529.504   -10382992.829 8  -8075467.92646  22839534.310    22839544.7074
  22025426.181   -14156492.793 8 -11013185.17947  22025428.555    22025440.3104
  20997949.875   -19521293.931 9 -15188853.40247  20997951.996    20997961.2184
 00  3 23  0 43  0.0000000  0  6 17 06 26 13 24 10
  23539363.956    -5804219.145 8  -4503048.55846  23539368.984    23539382.8144
  21024236.108   -21025588.964 9 -16369325.32347  21024238.500    21024248.2024
  21041295.250   -20158772.299 9 -15661715.73947  21041298.162    21041308.6124
  22853548.039   -10309321.940 8  -8018062.07046  22853553.846    22853563.7154
  22036534.092   -14098121.535 8 -10967701.13447  22036536.010    22036548.8084
  21007990.466   -19468532.295 9 -15147740.44747  21007992.049    21008001.5204
 00  3 23  0 43 30.0000000  0  6 17 06 26 13 24 10
  23522430.386    -5893220.515 8  -4572400.09946  23522433.389    23522446.5964
  21021213.728   -21041484.390 9 -16381711.32647  21021214.320    21021223.8204
  21026238.947   -20237895.370 9 -15723369.97647  21026241.841    21026252.1384
  22867641.940   -10235257.196 8  -7960349.28246  22867648.067    22867658.1514
  22047689.791   -14039497.171 8 -10922019.85547  22047692.057    22047704.0804
  21018074.598   -19415527.330 9 -15106437.87747  21018078.090    21018087.6494
 00  3 23  0 44  0.0000000  0  6 17 06 26 13 24 10
  23505505.881    -5982167.663 8  -4641709.38346  23505507.381    23505519.5804
  21018298.599   -21056788.550 9 -16393636.60147  21018301.561    21018311.5154
  21011274.406   -20316533.264 9 -15784646.15047  21011276.929    21011287.7214
  22881811.831   -10160815.892 8  -7902343.09946  22881813.698    22881823.9554
  22058894.841   -13980618.073 8 -10876140.09947  22058896.822    22058908.1194
  21028204.073   -19362313.644 9 -15064972.66747  21028204.545    21028214.7394
 00  3 23  0 44 30.0000000  0  6 17 06 26 13 24 10
  23488591.169    -6071052.138 8  -4710969.79646  23488591.767    23488604.6924
  21015496.959   -21071503.781 9 -16405102.96547  21015501.352    21015511.1104
  20996405.029   -20394676.905 9 -15845537.18247  20996407.449    20996417.8924
  22896048.763   -10086007.633 8  -7844050.96946  22896049.410    22896059.4554
  22070143.781   -13921475.849 8 -10830055.30047  22070151.170    22070163.3394
  21038367.325   -19308904.706 9 -15023355.30847  21038367.842    21038378.0304
 00  3 23  0 45  0.0000000  0  6 17 06 26 13 24 10
  23471687.271    -6159898.396 8  -4780200.49546  23471685.284    23471698.1474
  21012813.489   -21085627.253 9 -16416108.22747  21012814.063    21012823.4084
  20981628.253   -20472319.029 9 -15906037.43247  20981632.228    20981642.4284
  22910351.228   -10010819.451 8  -7785462.81446  22910356.259    22910366.5234
  22081451.032   -13862072.185 8 -10783766.79747  22081455.082    22081466.9834
  21048567.032   -19255302.626 9 -14981587.46447  21048568.039    21048578.1394
 00  3 23  0 45 30.0000000  0  6 17 06 26 13 24 10
  23454782.485    -6248725.594 8  -4849416.31346  23454781.627    23454795.3794
  21010239.874   -21099146.990 9 -16426643.04447  21010240.924    21010250.5484
  20966943.353   -20549487.575 9 -15966168.66247  20966947.813    20966957.3234
  22924734.411    -9935246.160 8  -7726574.55846  22924737.959    22924748.0104
  22092807.286   -13802406.807 8 -10737274.33747  22092809.446    22092821.2084
  21058800.567   -19201519.527 9 -14939678.57447  21058802.290    21058812.4244
 00  3 23  0 46  0.0000000  0  6 17 06 26 13 24 10
  23437879.380    -6337554.793 8  -4918633.70646  23437878.360    23437891.3954
  21007778.908   -21112075.343 9 -16436717.04647  21007780.532    21007790.1904
  20952348.323   -20626191.477 9 -16025937.82647  20952351.106    20952360.8504
  22939198.652    -9859266.455 8  -7667369.62746  22939196.153    22939205.8054
  22104208.129   -13742477.538 8 -10690576.26147  22104213.734    22104224.3424
  21069069.886   -19147551.709 9 -14897625.73047  21069071.874    21069081.7834
 00  3 23  0 46 30.0000000  0  6 17 06 26 13 24 10
  23420970.342    -6426401.962 8  -4987865.08646  23420970.428    23420984.0484
  21005428.896   -21124422.311 9 -16446338.01547  21005430.962    21005440.8794
  20937844.962   -20702425.401 9 -16085340.77347  20937844.203    20937854.1254
  22953730.403    -9782862.038 8  -7607833.75746  22953736.046    22953744.7594
  22115665.448   -13682283.692 8 -10643672.00946  22115667.859    22115679.3944
  21079379.872   -19093379.354 9 -14855413.51147  21079381.025    21079390.4284
 00  3 23  0 47  0.0000000  0  6 17 06 26 13 24 10
  23404060.440    -6515261.837 8  -5057106.37246  23404060.270    23404075.5154
  21003189.988   -21136182.344 9 -16455501.63247  21003193.098    21003203.0614
  20923424.026   -20778192.716 9 -16144380.13947  20923426.390    20923436.0224
  22968359.542    -9706026.966 8  -7547962.28046  22968357.862    22968365.6944
  22127169.554   -13621837.920 8 -10596571.46246  22127169.906    22127181.6624
  21089729.573   -19038994.288 9 -14813035.53547  21089730.667    21089739.9554
 00  3 23  0 47 30.0000000  0  6 17 06 26 13 24 10
  23387153.347    -6604097.344 8  -5126328.67146  23387156.252    23387170.9524
  21001066.012   -21147352.359 9 -16464205.50047  21001067.521    21001077.5854
  20909096.275   -20853481.905 9 -16203046.93047  20909098.820    20909108.8374
  22983054.116    -9628776.483 8  -7487767.12446  22983057.261    22983066.6684
  22138721.628   -13561142.529 8 -10549276.39546  22138720.209    22138732.0444
  21100120.538   -18984391.179 9 -14770487.66147  21100120.652    21100130.6454
 00  3 23  0 48  0.0000000  0  6 17 06 26 13 24 10
  23370260.384    -6692898.941 8  -5195524.52746  23370258.573    23370272.4194
  20999052.277   -21157932.182 9 -16472449.47947  20999054.575    20999063.8014
  20894866.369   -20928269.903 9 -16261323.19347  20894867.445    20894877.0374
  22997833.023    -9551121.761 8  -7427256.99546  22997834.530    22997843.7994
  22150309.004   -13500208.205 8 -10501795.16146  22150315.451    22150327.6264
  21110549.187   -18929569.857 9 -14727769.75147  21110552.513    21110562.6464
 00  3 23  0 48 30.0000000  0  6 17 06 26 13 24 10
  23353364.264    -6781664.667 8  -5264692.44146  23353366.200    23353379.9684
  20997156.674   -21167905.411 9 -16480220.78547  20997156.901    20997166.0594
  20880733.358   -21002535.947 9 -16319192.73847  20880734.470    20880744.1894
  23012682.889    -9473078.215 8  -7366443.83346  23012685.676    23012695.6214
  22161957.485   -13439038.313 8 -10454130.37846  22161955.909    22161968.0384
  21121026.755   -18874528.391 9 -14684880.29347  21121027.147    21121036.8034
 00  3 23  0 49  0.0000000  0  6 17 06 26 13 24 10
  23336479.065    -6870388.179 8  -5333827.46046  23336482.239    23336495.1474
  20995369.886   -21177271.639 9 -16487519.09547  20995373.635    20995383.2714
  20866697.453   -21076283.522 9 -16376658.27947  20866700.882    20866710.7874
  23027604.701    -9394666.162 8  -7305343.57746  23027606.543    23027618.2764
  22173634.725   -13377635.968 8 -10406284.45746  22173639.927    22173652.1284
  21131538.248   -18819271.215 9 -14641822.76047  21131541.963    21131551.7324
 00  3 23  0 49 30.0000000  0  6 17 06 26 13 24 10
  23319601.647    -6959084.442 8  -5402941.25746  23319603.953    23319616.6504
  20993701.509   -21186042.273 9 -16494353.32047  20993704.675    20993714.4664
  20852766.018   -21149508.597 9 -16433716.68347  20852766.641    20852776.0194
  23042595.968    -9315883.316 8  -7243954.39546  23042599.869    23042610.1734
  22185371.475   -13315999.742 8 -10358256.27146  22185369.979    22185381.0904
  21142097.194   -18763795.909 9 -14598595.25147  21142098.389    21142108.4904
 00  3 23  0 50  0.0000000  0  6 17 06 26 13 24 10
  23302720.204    -7047782.969 8  -5472056.77146  23302725.388    23302737.3884
  20992146.932   -21194220.167 9 -16500725.67447  20992148.983    20992158.7184
  20838926.926   -21222220.467 9 -16490375.19647  20838930.132    20838939.5294
  23057658.570    -9236722.907 8  -7182270.98046  23057663.186    23057673.0464
  22197142.625   -13254125.868 8 -10310042.91946  22197143.857    22197155.6614
  21152697.569   -18708091.615 9 -14555189.32747  21152698.349    21152708.7584
 00  3 23  0 50 30.0000000  0  6 17 06 26 13 24 10
  23285844.288    -7136481.781 8  -5541172.50246  23285845.491    23285858.1044
  20990701.221   -21201803.173 9 -16506634.47547  20990705.528    20990715.4544
  20825188.962   -21294418.423 9 -16546633.24747  20825191.262    20825200.7084
  23072793.398    -9157177.995 8  -7120287.95046  23072800.262    23072809.7504
  22208963.729   -13192002.474 8 -10261635.13846  22208966.659    22208977.7684
  21163339.676   -18652142.828 9 -14511592.87447  21163344.939    21163355.5674
 00  3 23  0 51  0.0000000  0  6 17 06 26 13 24 10
  23268969.801    -7225158.214 8  -5610270.81046  23268971.314    23268984.1504
  20989370.576   -21208802.526 9 -16512088.48647  20989373.489    20989382.8684
  20811545.464   -21366121.380 9 -16602505.58347  20811546.509    20811555.9364
  23088010.163    -9077236.626 8  -7057996.01346  23088012.507    23088022.5434
  22220836.786   -13129627.835 8 -10213031.57746  22220835.387    22220847.1474
  21174034.703   -18595958.433 9 -14467812.83647  21174036.751    21174046.8674
 00  3 23  0 51 30.0000000  0  6 17 06 26 13 24 10
  23252097.051    -7313811.641 8  -5679351.20546  23252101.584    23252113.4054
  20988152.195   -21215208.697 9 -16517080.26847  20988154.473    20988163.9394
  20797992.956   -21437321.873 9 -16657986.39547  20797997.288    20798006.7474
  23103297.391    -8996894.724 8  -6995391.95746  23103301.019    23103310.0804
  22232749.761   -13067000.830 8 -10164231.36346  22232752.664    22232763.0314
  21184769.542   -18539544.279 9 -14423853.74347  21184771.906    21184782.0284
 00  3 23  0 52  0.0000000  0  6 17 06 26 13 24 10
  23235235.311    -7402431.683 8  -5748405.55546  23235237.187    23235249.5234
  20987047.793   -21221016.124 9 -16521605.50147  20987048.949    20987059.1684
  20784541.097   -21508021.112 9 -16713076.61347  20784543.773    20784553.4214
  23118657.377    -8916169.761 8  -6932489.41346  23118661.693    23118670.9654
  22244714.378   -13004113.827 8 -10115228.54946  22244718.474    22244730.9584
  21195549.653   -18482915.936 9 -14379727.76047  21195548.416    21195558.4064
 00  3 23  0 52 30.0000000  0  6 17 06 26 13 24 10
  23218379.706    -7490999.648 8  -5817419.33146  23218382.760    23218394.4564
  20986054.459   -21226228.696 9 -16525667.21647  20986057.263    20986067.3314
  20771185.809   -21578219.383 9 -16767776.46347  20771185.311    20771194.6694
  23134090.545    -8835069.825 8  -6869294.69146  23134094.889    23134103.6254
  22256734.594   -12940973.056 8 -10066028.00446  22256734.566    22256746.3374
  21206357.130   -18426094.451 9 -14335451.27847  21206361.086    21206370.7824
 00  3 23  0 53  0.0000000  0  6 17 06 26 13 24 10
  23201534.834    -7579522.157 8  -5886397.69646  23201537.725    23201549.9164
  20985175.565   -21230856.692 9 -16529273.41847  20985176.856    20985186.0414
  20757922.861   -21647915.802 9 -16822085.27547  20757922.340    20757932.3714
  23149591.000    -8753614.595 8  -6805823.10646  23149595.390    23149605.4934
  22268796.135   -12877583.850 8 -10016633.89046  22268798.045    22268808.9504
  21217206.709   -18369093.629 9 -14291035.05247  21217207.562    21217217.7744
 00  3 23  0 53 30.0000000  0  6 17 06 26 13 24 10
  23184697.952    -7668016.484 8  -5955354.12246  23184698.068    23184709.3534
  20984406.133   -21234893.302 9 -16532418.80747  20984409.066    20984418.0224
  20744757.359   -21717084.131 9 -16875982.58447  20744759.792    20744769.3254
  23165158.404    -8671817.000 8  -6742084.75946  23165161.351    23165170.8564
  22280907.130   -12813937.579 8  -9967039.46846  22280909.272    22280919.9134
  21228085.083   -18311911.273 9 -14246477.37547  21228089.184    21228099.3564
 00  3 23  0 54  0.0000000  0  6 17 06 26 13 24 10
  23167862.757    -7756467.822 8  -6024277.06346  23167865.214    23167877.5764
  20983748.307   -21238345.363 9 -16535108.69747  20983751.718    20983761.2984
  20731696.842   -21785718.527 9 -16929463.84847  20731699.641    20731708.9704
  23180796.058    -8589677.279 8  -6678079.82746  23180792.048    23180801.5314
  22293068.769   -12750034.092 8  -9917244.59946  22293069.961    22293079.7474
  21239006.335   -18254549.741 9 -14201780.08847  21239004.625    21239014.8514
 00  3 23  0 54 30.0000000  0  7 17 06 26 13 24 08 10
  23151038.104    -7844875.164 8  -6093165.69846  23151041.008    23151054.7974
  20983205.771   -21241203.013 9 -16537335.41347  20983207.806    20983217.4384
  20718741.564   -21853815.040 9 -16982525.98448  20718741.146    20718750.6484
  23196484.593    -8507181.700 8  -6613797.61246  23196490.187    23196500.3764
  22305272.755   -12685874.119 8  -9867249.86546  22305279.089    22305290.3794
  24398099.098    -3719201.28617  -2888247.85455  24398094.297    24398106.0964
  21249952.881   -18197011.030 9 -14156944.73447  21249954.321    21249964.0684
 00  3 23  0 55  0.0000000  0  7 17 06 26 13 24 08 10
  23134221.946    -7933249.355 8  -6162028.47746  23134224.383    23134237.8854
  20982777.010   -21243449.406 9 -16539085.82647  20982780.290    20982789.7224
  20705881.582   -21921365.718 9 -17035162.79248  20705886.212    20705895.8714
  23212252.512    -8424334.953 8  -6549241.72446  23212255.159    23212264.8934
  22317537.247   -12621445.305 8  -9817045.65546  22317539.046    22317551.4754
  24392827.728    -3746857.078 7  -2909797.73845  24392831.418    24392844.4134
  21260936.509   -18139297.089 9 -14111972.82447  21260936.545    21260946.9234
 00  3 23  0 55 30.0000000  0  7 17 06 26 13 24 08 10
  23117415.813    -8021584.496 8  -6230860.85746  23117414.922    23117428.3344
  20982466.728   -21245078.479 9 -16540355.21647  20982470.649    20982479.7074
  20693132.317   -21988378.535 9 -17087380.47648  20693133.823    20693143.7974
  23228082.721    -8341131.565 8  -6484407.94446  23228088.849    23228097.6164
  22329849.232   -12556744.929 8  -9766629.83546  22329851.563    22329864.1884
  24387658.021    -3774037.896 7  -2930977.46945  24387658.798    24387671.5984
  21271946.383   -18081416.025 9 -14066870.69947  21271951.204    21271961.3494
 00  3 23  0 56  0.0000000  0  7 17 06 26 13 24 08 10
  23100609.789    -8109875.146 8  -6299658.58846  23100613.493    23100626.7314
  20982275.682   -21246094.214 9 -16541146.67047  20982277.249    20982286.5674
  20680475.255   -22054879.407 9 -17139199.25748  20680479.618    20680488.9944
  23243983.207    -8257572.599 8  -6419297.09946  23243989.858    23243999.1274
  22342204.683   -12491787.011 8  -9716013.34846  22342212.915    22342224.1774
  24382578.579    -3800740.013 7  -2951784.20645  24382575.825    24382590.3134
  21282994.583   -18023368.861 9 -14021639.14047  21282997.249    21283006.9684
 00  3 23  0 56 30.0000000  0  7 17 06 26 13 24 08 10
  23083814.426    -8198136.005 8  -6368433.10746  23083817.724    23083830.7884
  20982198.311   -21246491.758 9 -16541456.41847  20982201.363    20982211.3004
  20667918.861   -22120872.612 9 -17190622.44048  20667921.304    20667930.6324
  23259950.706    -8173661.276 8  -6353911.67546  23259957.318    23259966.9144
  22354622.466   -12426568.020 8  -9665193.42546  22354622.815    22354635.4954
  24377583.299    -3826955.179 7  -2972211.54945  24377587.120    24377601.0334
  21294074.214   -17965152.623 9 -13976275.84147  21294075.646    21294085.1654
 00  3 23  0 57  0.0000000  0  7 17 06 26 13 24 08 10
  23067029.706    -8286354.755 8  -6437174.82946  23067029.853    23067043.3594
  20982238.480   -21246292.715 9 -16541301.30447  20982239.408    20982249.0424
  20655459.184   -22186347.586 9 -17241641.83547  20655462.040    20655471.2164
  23275986.842    -8089412.588 8  -6288263.37346  23275988.979    23275998.9424
  22367079.903   -12361096.307 8  -9614176.58446  22367082.310    22367095.1994
  24372694.341    -3852666.749 7  -2992246.39545  24372695.408    24372708.4304
  21305188.777   -17906751.258 9 -13930768.29347  21305188.936    21305198.9644
 00  3 23  0 57 30.0000000  0  7 17 06 26 13 24 08 10
  23050252.855    -8374514.645 8  -6505870.65546  23050254.519    23050267.0674
  20982384.017   -21245514.091 9 -16540694.56047  20982387.244    20982397.0544
  20643098.109   -22251296.484 9 -17292251.28447  20643102.183    20643111.6364
  23292088.365    -8004815.384 8  -6222343.50346  23292087.662    23292097.7264
  22379578.435   -12295390.326 8  -9562977.20046  22379585.250    22379597.8504
  24367891.090    -3877883.453 7  -3011895.67745  24367896.199    24367910.4994
  21316335.146   -17848159.142 9 -13885112.10247  21316338.304    21316348.6064
 00  3 23  0 58  0.0000000  0  7 17 06 26 13 24 08 10
  23033486.405    -8462610.080 8  -6574516.28346  23033489.379    23033502.9294
  20982644.921   -21244147.310 9 -16539629.51447  20982647.902    20982656.7644
  20630840.910   -22315700.924 9 -17342436.48447  20630845.978    20630855.4244
  23308250.601    -7919864.295 8  -6156147.89346  23308253.395    23308263.5104
  22392129.935   -12229455.025 8  -9511599.12546  22392133.077    22392145.1654
  24363189.190    -3902621.633 7  -3031172.07245  24363188.228    24363202.2844
  21327525.611   -17789369.804 9 -13839302.24247  21327525.553    21327536.0624
 00  3 23  0 58 30.0000000  0  7 17 06 26 13 24 08 10
  23016740.539    -8550637.065 8  -6643108.57446  23016738.890    23016752.6184
  20983017.857   -21242191.133 9 -16538105.19247  20983019.952    20983029.5424
  20618698.252   -22379536.432 9 -17392178.36047  20618698.868    20618708.3654
  23324485.682    -7834567.338 8  -6089682.79146  23324484.952    23324495.3374
  22404722.320   -12163278.599 8  -9460033.13746  22404726.201    22404737.5754
  24358562.984    -3926889.678 7  -3050082.13145  24358570.382    24358584.7164
  21338745.037   -17730380.345 9 -13793336.43047  21338750.769    21338761.2754
 00  3 23  0 59  0.0000000  0  7 17 06 26 13 24 08 10
  22999997.587    -8638592.797 8  -6711645.34646  23000001.176    23000013.9674
  20983501.750   -21239645.821 9 -16536121.81347  20983504.305    20983514.1454
  20606661.060   -22442795.111 9 -17441470.75848  20606661.493    20606670.5274
  23340783.249    -7748934.573 8  -6022956.00446  23340780.823    23340790.8874
  22417356.818   -12096872.209 8  -9408287.96446  22417362.354    22417374.6064
  24354040.855    -3950691.549 7  -3068628.93045  24354041.715    24354055.7914
  21350012.691   -17671196.005 9 -13747218.77547  21350013.358    21350023.5004
 00  3 23  0 59 30.0000000  0  7 17 06 26 13 24 08 10
  22983271.696    -8726496.749 8  -6780141.79146  22983273.587    22983285.2444
  20984101.433   -21236493.815 9 -16533665.68947  20984104.130    20984113.7444
  20594729.656   -22505485.624 9 -17490320.43048  20594731.505    20594740.9534
  23357139.660    -7662968.566 8  -5955969.54546  23357138.778    23357149.5434
  22430042.464   -12030219.453 8  -9356350.81346  22430046.516    22430058.0964
  24349609.553    -3974025.697 7  -3086811.28545  24349602.721    24349614.3504
  21361306.034   -17611836.268 9 -13700964.44247  21361309.285    21361319.3304
 00  3 23  1  0  0.0000000  0  7 17 06 26 13 24 08 10
  22966550.494    -8814365.114 8  -6848610.48846  22966552.521    22966565.4544
  20984814.131   -21232737.311 9 -16530738.52147  20984818.720    20984828.4024
  20582901.707   -22567620.652 9 -17538737.25848  20582907.150    20582916.6874
  23373553.124    -7576692.702 8  -5888741.62946  23373556.847    23373567.0754
  22442778.745   -11963299.150 8  -9304205.19846  22442781.339    22442793.9044
  24345252.406    -3996878.556 7  -3104618.64245  24345252.165    24345265.0704
  21372636.335   -17552304.512 9 -13654576.07147  21372637.785    21372647.8754
 00  3 23  1  0 30.0000000  0  7 17 06 26 13 24 08 10
  22949835.429    -8902199.517 8  -6917052.73046  22949838.052    22949850.2514
  20985643.745   -21228389.606 9 -16527350.68547  20985646.026    20985656.0064
  20571185.978   -22629206.306 9 -17586726.00548  20571188.344    20571197.4414
  23390023.949    -7490119.112 8  -5821281.70846  23390031.595    23390041.7164
  22455563.051   -11896108.321 8  -9251848.78146  22455567.906    22455578.7244
  24340998.081    -4019218.623 7  -3122026.39845  24341000.556    24341014.8064
  21383998.581   -17492603.495 9 -13608055.80347  21383998.661    21384008.4944
 00  3 23  1  1  0.0000000  0  8 17 23 06 26 13 24 08 10
  22933128.910    -8989993.387 8  -6985463.38946  22933132.208    22933143.5284
  24829159.217     -910336.91317   -689095.01755  24829158.976    24829178.4624
  20986585.423   -21223448.266 9 -16523500.27047  20986586.582    20986595.8974
  20559566.233   -22690251.750 9 -17634293.79648  20559571.089    20559580.5134
  23406564.303    -7403244.001 8  -5753586.85146  23406563.240    23406573.1914
  22468398.854   -11828645.228 8  -9199280.21646  22468405.034    22468416.9684
  24336849.399    -4041028.637 7  -3139021.11045  24336850.464    24336863.2564
  21395389.885   -17432738.030 9 -13561407.38947  21395390.179    21395400.3104
 00  3 23  1  1 30.0000000  0  8 17 23 06 26 13 24 08 10
  22916431.670    -9077731.653 8  -7053830.74646  22916436.321    22916446.9474
  24814634.433     -986670.204 7   -748575.26045  24814636.240    24814652.2274
  20987634.538   -21217917.549 9 -16519190.60347  20987638.943    20987648.4494
  20548055.158   -22750763.174 9 -17681445.47948  20548056.497    20548065.5434
  23423150.328    -7316059.779 8  -5685651.15746  23423154.590    23423163.7024
  22481290.928   -11760897.557 8  -9146489.89246  22481296.517    22481307.8134
  24332804.680    -4062309.884 7  -3155603.82045  24332801.852    24332812.7154
  21406812.569   -17372700.611 9 -13514624.99747  21406814.950    21406825.4564
 00  3 23  1  2  0.0000000  0  8 17 23 06 26 13 24 08 10
  22899749.809    -9165394.138 8  -7122139.04946  22899753.236    22899765.1314
  24800129.072    -1062868.924 7   -807950.61744  24800134.675    24800150.4994
  20988798.676   -21211803.323 9 -16514426.25647  20988802.287    20988812.1794
  20536644.776   -22810729.716 9 -17728172.59348  20536645.495    20536654.2504
  23439808.380    -7228556.610 8  -5617466.91246  23439806.277    23439815.0334
  22494229.032   -11692880.614 8  -9093489.75146  22494239.717    22494251.9084
  24328850.960    -4083063.138 8  -3171775.09245  24328852.443    24328864.6574
  21418271.207   -17312477.981 9 -13467698.27247  21418274.784    21418285.6214
 00  3 23  1  2 30.0000000  0  8 17 23 06 26 13 24 08 10
  22883085.211    -9252966.932 8  -7190377.45346  22883088.431    22883101.0904
  24785660.309    -1138935.005 7   -867222.65245  24785659.927    24785672.8974
  20990078.930   -21205089.767 9 -16509194.89747  20990079.873    20990089.6134
  20525337.377   -22870137.442 9 -17774464.25148  20525340.409    20525349.7784
  23456520.164    -7140719.588 8  -5549022.50746  23456520.563    23456529.9184
  22507229.609   -11624609.391 8  -9040291.46546  22507231.729    22507243.6424
  24324996.285    -4103296.407 7  -3187541.20645  24324999.770    24325014.6094
  21429771.348   -17252066.045 9 -13420624.04147  21429770.950    21429781.2504
 00  3 23  1  3  0.0000000  0  8 17 23 06 26 13 24 08 10
  22866440.492    -9340452.534 8  -7258547.92146  22866441.179    22866453.2044
  24771210.755    -1214852.547 7   -926378.89845  24771212.169    24771230.9534
  20991468.290   -21197776.302 9 -16503496.07847  20991471.763    20991480.9314
  20514137.494   -22928977.970 9 -17820313.93548  20514142.868    20514152.5764
  23473293.883    -7052545.938 8  -5480315.81046  23473298.788    23473308.8004
  22520270.975   -11556073.398 8  -8986886.87446  22520273.725    22520286.5034
  24321237.144    -4123040.038 7  -3202925.76045  24321243.827    24321257.3754
  21441303.550   -17191466.345 9 -13373403.49947  21441302.778    21441312.8674
 00  3 23  1  3 30.0000000  0  8 17 23 06 26 13 24 08 10
  22849805.725    -9427866.143 8  -7326662.26946  22849806.861    22849818.8354
  24756790.047    -1290621.246 7   -985419.16245  24756792.798    24756811.5984
  20992975.954   -21189866.019 9 -16497332.20947  20992977.120    20992986.8224
  20503052.077   -22987250.727 9 -17865721.20348  20503053.725    20503063.2364
  23490134.543    -6964037.304 8  -5411348.07846  23490141.200    23490151.1494
  22533360.990   -11487280.281 8  -8933281.91546  22533364.357    22533376.7314
  24317571.120    -4142308.427 7  -3217939.98445  24317578.700    24317590.4284
  21452868.836   -17130676.571 9 -13326034.84947  21452870.878    21452880.7324
 00  3 23  1  4  0.0000000  0  8 17 23 06 26 13 24 08 10
  22833174.952    -9515227.065 8  -7394735.58546  22833181.333    22833193.8454
  24742384.781    -1366257.134 7  -1044355.87745  24742398.671    24742417.2954
  20994595.807   -21181345.025 9 -16490692.46047  20994598.318    20994608.2444
  20492072.505   -23044946.922 9 -17910679.20448  20492074.995    20492084.0564
  23507041.975    -6875195.436 8  -5342120.68146  23507047.133    23507057.1954
  22546501.360   -11418239.493 8  -8879483.98146  22546502.968    22546514.6694
  24314007.521    -4161092.499 7  -3232576.82945  24314003.104    24314016.4864
  21464474.023   -17069698.477 9 -13278519.44847  21464474.732    21464484.5144
 00  3 23  1  4 30.0000000  0  8 17 23 06 26 13 24 08 10
  22816559.007    -9602542.252 8  -7462773.24746  22816566.070    22816579.1134
  24728033.665    -1441767.242 7  -1103194.59745  24728031.260    24728048.5444
  20996336.774   -21172208.374 9 -16483572.98947  20996337.017    20996346.5164
  20481199.344   -23102077.964 9 -17955196.83448  20481203.084    20481212.0784
  23524009.494    -6786039.353 8  -5272648.44646  23524013.123    23524022.8694
  22559688.040   -11348948.943 8  -8825491.41846  22559689.436    22559700.7704
  24310523.871    -4179389.832 7  -3246834.38545  24310519.534    24310534.8054
  21476109.376   -17008546.320 9 -13230868.42347  21476111.387    21476121.4164
 00  3 23  1  5  0.0000000  0  8 17 23 06 26 13 24 08 10
  22799955.850    -9689814.022 8  -7530777.09046  22799958.322    22799971.6644
  24713683.651    -1517144.649 7  -1161929.93145  24713687.377    24713704.5244
  20998189.174   -21162466.089 9 -16475981.58347  20998190.861    20998200.1844
  20470429.892   -23158656.773 9 -17999284.15148  20470436.558    20470445.6504
  23541028.794    -6696580.328 8  -5202940.16646  23541036.761    23541046.3724
  22572918.131   -11279411.905 8  -8771306.78446  22572921.033    22572933.6604
  24307120.277    -4197195.259 7  -3260708.64545  24307131.195    24307144.9544
  21487781.340   -16947229.227 9 -13183088.88247  21487779.556    21487789.9384
 00  3 23  1  5 30.0000000  0  8 17 23 06 26 13 24 08 10
  22783354.510    -9777044.396 8  -7598748.67346  22783359.009    22783372.4884
  24699365.089    -1592399.316 7  -1220569.63845  24699367.796    24699381.3304
  21000159.012   -21152111.199 9 -16467912.82047  21000161.528    21000170.8674
  20459770.858   -23214686.380 9 -18042943.51948  20459774.154    20459783.7544
  23558115.896    -6606824.215 8  -5133000.36746  23558116.684    23558126.6664
  22586193.160   -11209660.613 8  -8716955.22146  22586194.700    22586205.9714
  24303843.431    -4214491.327 7  -3274185.99545  24303842.165    24303854.5044
  21499476.635   -16885758.444 9 -13135189.57547  21499476.878    21499487.6894
 00  3 23  1  6  0.0000000  0  8 17 23 06 26 13 24 08 10
  22766766.429    -9864214.914 8  -7666673.61346  22766770.227    22766784.2844
  24685068.386    -1667527.304 7  -1279110.61645  24685070.238    24685086.9204
  21002245.060   -21141152.302 9 -16459373.41447  21002246.793    21002256.2054
  20449213.945   -23270167.780 9 -18086175.71248  20449216.570    20449225.6924
  23575255.011    -6516782.840 8  -5062838.31146  23575251.504    23575261.1394
  22599504.751   -11139702.230 8  -8662442.26646  22599507.231    22599519.5574
  24300640.266    -4231267.469 7  -3287258.19745  24300648.247    24300661.7714
  21511199.674   -16824148.922 9 -13087182.15947  21511200.637    21511211.3374
 00  3 23  1  6 30.0000000  0  8 17 23 06 26 13 24 08 10
  22750197.662    -9951305.920 8  -7734536.58546  22750196.563    22750211.1004
  24670793.339    -1742529.627 7  -1337553.63145  24670797.632    24670813.0544
  21004442.532   -21129604.970 9 -16450375.48947  21004444.148    21004453.2854
  20438759.979   -23325102.769 9 -18128982.12448  20438762.703    20438771.9184
  23592435.240    -6426468.970 8  -4992463.91846  23592437.732    23592446.5824
  22612853.116   -11069538.036 8  -8607768.93846  22612858.234    22612870.3634
  24297557.659    -4247532.449 7  -3299932.07845  24297553.053    24297567.7094
  21522950.303   -16762405.802 9 -13039070.65547  21522950.479    21522960.9104
 00  3 23  1  7  0.0000000  0  8 17 23 06 26 13 24 08 10
  22733633.577   -10038322.477 8  -7802341.54446  22733637.827    22733652.7094
  24656547.529    -1817424.767 7  -1395913.16945  24656545.399    24656560.4194
  21006750.975   -21117471.953 9 -16440921.18147  21006752.796    21006762.5744
  20428418.001   -23379467.330 9 -18171344.04548  20428417.548    20428426.3024
  23609684.307    -6335870.962 8  -4921868.12746  23609677.788    23609687.4834
  22626244.372   -10999167.466 8  -8552934.81146  22626249.363    22626262.2634
  24294549.157    -4263291.918 7  -3312212.09545  24294555.508    24294568.9934
  21534725.678   -16700513.046 9 -12990842.54947  21534728.380    21534738.6154
 00  3 23  1  7 30.0000000  0  8 17 23 06 26 13 24 08 10
  22717092.118   -10125260.885 8  -7870085.61746  22717093.972    22717107.9934
  24642312.280    -1892212.896 7  -1454189.32545  24642313.043    24642328.4154
  21009171.075   -21104746.486 9 -16431005.22047  21009174.104    21009184.3024
  20418182.141   -23433244.441 9 -18213248.22148  20418184.071    20418192.9634
  23626967.590    -6244989.311 8  -4851051.30046  23626971.531    23626981.7284
  22639679.269   -10928578.681 8  -8497930.63746  22639683.038    22639694.5054
  24291653.705    -4278537.400 7  -3324091.60845  24291653.829    24291666.3654
  21546534.394   -16638461.110 9 -12942490.41547  21546536.069    21546546.6654
 00  3 23  1  8  0.0000000  0  8 17 23 06 26 13 24 08 10
  22700566.922   -10212104.752 8  -7937756.00746  22700568.803    22700582.4134
  24628102.418    -1966893.674 7  -1512381.83945  24628099.569    24628117.0594
  21011705.739   -21091425.011 9 -16420624.84947  21011709.093    21011718.3094
  20408061.656   -23486426.642 9 -18254688.83948  20408063.695    20408072.3054
  23644316.536    -6153822.608 8  -4780012.35245  23644320.198    23644330.4594
  22653163.289   -10857743.773 8  -8442734.70746  22653162.334    22653174.3814
  24288849.214    -4293270.654 7  -3335571.97145  24288849.476    24288862.8094
  21558377.499   -16576235.043 9 -12894002.59247  21558377.302    21558387.9514
 00  3 23  1  8 30.0000000  0  8 17 23 06 26 13 24 08 10
  22684056.334   -10298860.380 8  -8005357.65146  22684060.148    22684072.8314
  24613903.107    -2041460.945 7  -1570485.94845  24613911.227    24613928.1774
  21014358.304   -21077493.188 9 -16409768.87947  21014360.531    21014370.0044
  20398058.769   -23538998.569 9 -18295653.91948  20398059.779    20398068.6604
  23661717.154    -6062359.728 8  -4708742.60545  23661725.604    23661735.1694
  22666690.329   -10786651.164 8  -8387337.96146  22666689.885    22666702.9574
  24286135.998    -4307490.460 7  -3346652.28845  24286144.566    24286156.1654
  21570251.292   -16513825.670 9 -12845371.92347  21570253.686    21570264.1544
 00  3 23  1  9  0.0000000  0  8 17 23 06 26 13 24 08 10
  22667561.028   -10385530.522 8  -8072892.67346  22667566.240    22667580.3404
  24599744.191    -2115893.120 7  -1628484.74145  24599746.891    24599762.1774
  21017124.863   -21062954.396 9 -16398439.93947  21017127.326    21017136.8594
  20388166.652   -23590965.644 9 -18336147.67648  20388170.538    20388179.2434
  23679185.322    -5970591.509 8  -4637234.96745  23679187.785    23679198.5514
  22680267.850   -10715285.434 8  -8331728.39446  22680270.739    22680284.1374
  24283535.723    -4321188.624 7  -3357326.10745  24283537.187    24283548.9954
  21582159.569   -16451236.615 9 -12796601.25947  21582164.358    21582174.6354
 00  3 23  1  9 30.0000000  0  8 17 23 06 26 13 24 08 10
  22651089.485   -10472095.721 8  -8140345.90846  22651093.564    22651106.7594
  24585613.077    -2190164.688 7  -1686358.39645  24585612.068    24585629.8454
  21020006.361   -21047822.267 9 -16386648.65947  21020006.761    21020016.6304
  20378392.008   -23642345.557 9 -18376183.90748  20378393.045    20378402.1054
  23696707.828    -5878538.404 8  -4565505.36046  23696704.982    23696715.7094
  22693900.038   -10643641.238 8  -8275901.84946  22693904.525    22693916.9544
  24281022.221    -4334363.351 7  -3367592.03645  24281028.717    24281042.3744
  21594104.501   -16388486.230 9 -12747704.87847  21594105.589    21594115.2544
 00  3 23  1 10  0.0000000  0  8 17 23 06 26 13 24 08 10
  22634637.352   -10558562.422 8  -8207722.40246  22634639.496    22634652.1844
  24571503.941    -2264286.282 7  -1744115.14045  24571506.832    24571523.3684
  21022991.776   -21032111.091 9 -16374406.18247  21022995.758    21023005.9684
  20368724.209   -23693147.953 9 -18415770.11848  20368725.921    20368734.7934
  23714278.786    -5786199.233 8  -4493552.80445  23714277.428    23714286.8934
  22707584.648   -10571722.454 8  -8219861.34546  22707590.662    22707603.2774
  24278616.734    -4347018.604 7  -3377453.18645  24278621.778    24278634.6264
  21606074.624   -16325581.921 9 -12698688.53647  21606075.607    21606085.2264
 00  3 23  1 10 30.0000000  0  8 17 23 06 26 13 24 08 10
  22618197.292   -10644951.730 8  -8275038.61746  22618201.115    22618213.3454
  24557433.487    -2338258.978 7  -1801755.89145  24557430.825    24557446.7534
  21026091.166   -21015835.179 9 -16361723.64947  21026093.435    21026103.1874
  20359164.288   -23743380.042 9 -18454911.94448  20359167.282    20359176.1684
  23731904.006    -5693580.361 8  -4421382.28145  23731901.980    23731911.5114
  22721327.091   -10499526.567 8  -8163604.88746  22721329.808    22721341.0334
  24276307.185    -4359149.623 7  -3386905.85645  24276313.739    24276325.8324
  21618072.044   -16262531.998 9 -12649558.74847  21618073.546    21618083.1194
 00  3 23  1 11  0.0000000  0  8 17 23 06 26 13 24 08 10
  22601772.482   -10731268.811 8  -8342298.55346  22601775.769    22601786.9084
  24543371.934    -2412099.376 7  -1859293.61345  24543379.851    24543395.5634
  21029293.964   -20999005.279 9 -16348609.43147  21029295.853    21029305.7134
  20349712.164   -23793048.889 9 -18493614.88048  20349715.589    20349724.2504
  23749570.142    -5600702.936 8  -4349010.30545  23749575.147    23749585.7314
  22735116.744   -10427059.271 8  -8107136.93946  22735119.512    22735131.5794
  24274102.949    -4370764.849 7  -3395956.58645  24274103.011    24274115.0914
  21630098.194   -16199345.034 9 -12600322.18047  21630097.321    21630106.9834
 00  3 23  1 11 30.0000000  0  8 17 23 06 26 13 24 08 10
  22585355.391   -10817525.074 8  -8409511.08346  22585360.473    22585373.3034
  24529346.835    -2485828.612 7  -1916744.65645  24529348.457    24529365.3064
  21032605.773   -20981605.790 9 -16335051.38147  21032606.919    21032616.7244
  20340370.699   -23842144.065 9 -18531870.80148  20340372.777    20340381.8284
  23767298.034    -5507573.297 8  -4276441.78845  23767296.892    23767307.5264
  22748958.931   -10354336.279 8  -8050469.75646  22748958.524    22748970.4744
  24271982.804    -4381866.827 7  -3404607.38245  24271989.379    24272002.3614
  21642147.097   -16136025.459 9 -12550982.27647  21642146.733    21642156.7064
 00  3 23  1 12  0.0000000  0  8 17 23 06 26 13 24 08 10
  22568954.235   -10903733.737 8  -8476686.51246  22568957.157    22568967.1034
  24515336.794    -2559465.337 7  -1974123.64845  24515335.672    24515352.4544
  21036028.455   -20963614.933 9 -16321032.52647  21036030.850    21036040.0704
  20331140.005   -23890657.571 9 -18569673.47348  20331140.742    20331149.6614
  23785069.383    -5414182.721 8  -4203669.97545  23785068.999    23785079.9194
  22762845.430   -10281355.526 8  -7993601.72246  22762846.321    22762858.2624
  24269980.291    -4392452.584 7  -3412855.93945  24269974.774    24269985.5094
  21654220.037   -16072569.696 9 -12501536.24747  21654222.153    21654232.1474
 00  3 23  1 12 30.0000000  0  8 17 23 06 26 13 24 08 10
  22552559.912   -10989875.719 8  -8543810.02546  22552563.607    22552575.3774
  24501342.217    -2633008.151 7  -2031429.44345  24501339.997    24501356.4904
  21039564.763   -20945024.449 9 -16306546.42647  21039568.780    21039578.4604
  20322019.385   -23938580.255 9 -18607015.76648  20322021.381    20322030.0394
  23802885.577    -5320546.338 8  -4130706.59545  23802887.929    23802897.3644
  22776776.683   -10208123.703 8  -7936538.06046  22776781.772    22776793.4644
  24268054.272    -4402539.463 7  -3420715.77845  24268056.150    24268068.6174
  21666321.141   -16008977.490 9 -12451983.89047  21666323.358    21666333.4544
 00  3 23  1 13  0.0000000  0  8 17 23 06 26 13 24 08 10
  22536185.503   -11075927.022 8  -8610862.84746  22536188.421    22536200.0624
  24487364.088    -2706459.127 7  -2088663.69245  24487364.558    24487378.8734
  21043218.390   -20925827.709 9 -16291587.92747  21043221.562    21043231.1234
  20313008.900   -23985919.451 9 -18643903.38848  20313012.892    20313021.9334
  23820752.451    -5226671.156 8  -4057557.13545  23820751.996    23820761.6254
  22790754.463   -10134657.083 8  -7879291.43346  22790761.468    22790773.6404
  24266227.245    -4412128.378 7  -3428187.58345  24266230.419    24266243.9424
  21678448.315   -15945244.783 9 -12402322.05747  21678450.646    21678461.4524
 00  3 23  1 13 30.0000000  0  8 17 23 06 26 13 24 08 10
  22519830.425   -11161868.982 8  -8677830.46546  22519834.345    22519845.7664
  24473404.525    -2779815.388 7  -2145824.13545  24473404.568    24473420.7784
  21046989.841   -20906019.900 9 -16276153.27447  21046990.835    21047000.5714
  20304111.817   -24032675.013 9 -18680336.23348  20304115.282    20304124.4804
  23838663.824    -5132551.946 8  -3984217.52145  23838661.893    23838672.1364
  22804785.667   -10060952.962 8  -7821859.73646  22804788.033    22804799.8574
  24264505.899    -4421201.010 7  -3435257.03645  24264504.623    24264517.9614
  21690606.823   -15881362.523 9 -12352543.69047  21690607.153    21690617.2304
 00  3 23  1 14  0.0000000  0  8 17 23 06 26 13 24 08 10
  22503504.356   -11247684.973 8  -8744699.94746  22503504.832    22503514.9674
  24459464.307    -2853060.007 7  -2202897.62745  24459465.754    24459482.2054
  21050871.925   -20885612.088 9 -16260251.07247  21050874.083    21050883.7124
  20295326.412   -24078846.122 9 -18716313.65648  20295329.246    20295338.3214
  23856608.570    -5038189.405 8  -3910688.33145  23856617.934    23856628.7894
  22818855.203    -9987011.651 8  -7764243.22446  22818857.731    22818870.6624
  24262885.395    -4429747.169 7  -3441916.29645  24262879.702    24262892.3444
  21702789.853   -15817328.798 9 -12302647.29847  21702792.773    21702802.1854
 00  3 23  1 14 30.0000000  0  8 17 23 06 26 13 24 08 10
  22487197.506   -11333368.746 8  -8811466.40146  22487199.707    22487210.1084
  24445548.015    -2926179.873 7  -2259873.90545  24445552.321    24445568.8594
  21054867.186   -20864610.933 9 -16243886.53247  21054870.204    21054879.9534
  20286651.910   -24124437.044 9 -18751838.98948  20286653.585    20286662.5524
  23874624.275    -4943584.223 8  -3836970.03345  23874620.535    23874631.7744
  22832967.357    -9912837.647 8  -7706445.40046  22832973.184    22832985.1854
  24261356.552    -4437759.149 7  -3448159.32845  24261353.020    24261366.3334
  21715002.722   -15753146.693 8 -12252635.28547  21715005.962    21715016.1034
 00  3 23  1 15  0.0000000  0  8 17 23 06 26 13 24 08 10
  22470912.563   -11418928.986 8  -8878136.57846  22470916.989    22470927.5894
  24431664.170    -2999168.627 7  -2316748.01245  24431663.872    24431678.0104
  21058977.322   -20843011.716 9 -16227055.96747  21058980.553    21058989.7754
  20278086.973   -24169439.792 9 -18786906.00748  20278089.899    20278098.8624
  23892675.654    -4848722.768 8  -3763052.04745  23892672.528    23892683.2674
  22847133.561    -9838422.587 8  -7648459.71946  22847133.530    22847146.0504
  24259937.499    -4445205.916 7  -3453961.90545  24259936.557    24259950.0454
  21727243.535   -15688826.083 8 -12202515.34347  21727245.567    21727255.4834
 00  3 23  1 15 30.0000000  0  8 17 23 06 26 13 24 08 10
  22454657.538   -11504375.567 8  -8944718.19446  22454657.327    22454667.8964
  24417799.651    -3072014.225 7  -2373510.58645  24417799.711    24417815.3464
  21063202.874   -20820810.738 9 -16209756.50147  21063205.310    21063214.8714
  20269640.119   -24213827.748 9 -18821493.96748  20269643.046    20269651.9604
  23910766.601    -4753593.501 8  -3688925.39145  23910774.801    23910785.5104
  22861336.415    -9763762.261 8  -7590282.91146  22861341.219    22861353.8574
  24258622.527    -4452085.010 7  -3459322.11345  24258626.913    24258638.9364
  21739507.476   -15624369.889 8 -12152289.75347  21739511.292    21739521.3464
 00  3 23  1 16  0.0000000  0  8 17 23 06 26 13 24 08 10
  22438416.301   -11589718.859 8  -9011219.33246  22438416.678    22438427.6314
  24403964.122    -3144709.874 8  -2430156.31145  24403965.940    24403980.9194
  21067540.253   -20798016.433 9 -16191994.71247  21067543.160    21067552.7914
  20261312.553   -24257592.904 9 -18855596.62848  20261315.086    20261323.9084
  23928918.335    -4658188.822 8  -3614584.13845  23928930.027    23928940.3914
  22875589.875    -9688863.844 8  -7531920.56746  22875593.173    22875605.6384
  24257418.149    -4458405.630 7  -3464247.19845  24257425.328    24257438.0964
  21751801.155   -15559781.979 9 -12101961.53147  21751802.593    21751812.5814
 00  3 23  1 16 30.0000000  0  8 17 23 06 26 13 24 08 10
  22422193.232   -11674965.630 8  -9077645.24746  22422195.028    22422205.2524
  24390148.128    -3217266.109 7  -2486693.42745  24390158.804    24390175.3914
  21071994.605   -20774631.788 9 -16173772.92047  21071993.277    21072002.5674
  20253101.542   -24300736.269 9 -18889214.77348  20253104.995    20253113.7014
  23947139.365    -4562517.757 8  -3540035.30045  23947136.487    23947146.2564
  22889889.827    -9613727.041 8  -7473372.52646  22889892.004    22889904.4434
  24256320.457    -4464172.595 7  -3468740.85945  24256327.068    24256339.4704
  21764119.334   -15495056.305 9 -12051525.96947  21764119.892    21764129.1504
 00  3 23  1 17  0.0000000  0  8 17 23 06 26 13 24 08 10
  22405986.664   -11760124.656 8  -9144002.78646  22405990.067    22405999.8174
  24376375.331    -3289686.921 8  -2543124.99045  24376377.051    24376393.0094
  21076549.495   -20750669.725 9 -16155101.17847  21076553.106    21076561.9714
  20245013.333   -24343255.126 9 -18922346.29348  20245013.663    20245022.6294
  23965388.601    -4466583.467 8  -3465281.33745  23965391.938    23965401.7684
  22904233.496    -9538357.814 8  -7414643.36346  22904234.754    22904246.2844
  24255332.054    -4469391.711 7  -3472807.60945  24255334.791    24255348.1014
  21776463.714   -15430182.531 9 -12000974.98147  21776464.654    21776474.4624
 00  3 23  1 17 30.0000000  0  8 17 23 06 26 13 24 08 10
  22389801.174   -11845195.749 8  -9210291.84346  22389801.253    22389810.7054
  24362620.518    -3361969.598 8  -2599448.92845  24362623.833    24362638.1914
  21081218.618   -20726140.501 9 -16135987.48947  21081221.070    21081230.0824
  20237035.488   -24385169.376 9 -18955006.69248  20237037.877    20237046.5334
  23983696.508    -4370398.039 8  -3390331.68045  23983695.968    23983706.0104
  22918615.729    -9462758.718 8  -7355735.06346  22918619.870    22918633.1944
  24254441.898    -4474087.316 7  -3476466.41945  24254440.262    24254451.4804
  21788835.853   -15365159.217 9 -11950307.48347  21788837.673    21788848.3574
 00  3 23  1 18  0.0000000  0  8 17 23 06 26 13 24 08 10
  22373626.576   -11930177.250 8  -9276511.05046  22373629.336    22373639.4624
  24348892.657    -3434120.723 8  -2655670.36245  24348892.754    24348907.8034
  21085992.173   -20701049.444 9 -16116436.01347  21085995.118    21086004.4424
  20229171.401   -24426499.886 9 -18987212.23148  20229173.135    20229181.3874
  24002044.032    -4273982.484 8  -3315202.72145  24002042.749    24002053.3824
  22933049.063    -9386918.287 8  -7296638.73246  22933051.542    22933065.6614
  24253647.934    -4478262.645 7  -3479719.86545  24253644.409    24253659.1444
  21801237.328   -15299996.270 9 -11899531.19147  21801237.917    21801248.5654
 00  3 23  1 18 30.0000000  0  8 17 23 06 26 13 24 08 10
  22357472.351   -12015071.261 8  -9342662.07446  22357473.887    22357485.1114
  24335182.774    -3506139.531 8  -2711788.69345  24335188.470    24335203.8204
  21090878.127   -20675389.613 9 -16096441.34147  21090878.022    21090887.7224
  20221412.984   -24467259.860 9 -19018973.20148  20221416.522    20221425.1034
  24020420.408    -4177352.519 8  -3239906.69345  24020430.415    24020442.0034
  22947527.069    -9310825.398 8  -7237345.67046  22947532.723    22947545.1134
  24252942.453    -4481921.013 7  -3482570.48245  24252948.336    24252962.4594
  21813660.603   -15234697.414 9 -11848648.99747  21813664.261    21813674.1414
 00  3 23  1 19  0.0000000  0  8 17 23 06 26 13 24 08 10
  22341335.583   -12099868.306 8  -9408737.55447  22341337.552    22341349.1164
  24321505.896    -3578018.101 8  -2767797.75245  24321509.500    24321524.8104
  21095867.772   -20649156.995 9 -16076000.34147  21095870.159    21095879.3964
  20213767.525   -24507446.949 9 -19050287.76248  20213768.700    20213777.8284
  24038853.527    -4080509.180 8  -3164444.39345  24038858.416    24038871.2564
  22962063.534    -9234476.215 8  -7177852.87446  22962061.450    22962073.9064
  24252354.098    -4485059.709 7  -3485016.13345  24252352.371    24252364.5584
  21826111.365   -15169273.409 8 -11797669.27747  21826113.906    21826123.8544
 00  3 23  1 19 30.0000000  0  8 17 23 06 26 13 24 08 10
  22325222.453   -12184553.395 8  -9474725.78247  22325222.934    22325233.3024
  24307858.001    -3649758.819 8  -2823699.40545  24307856.998    24307871.7984
  21100969.751   -20622343.306 9 -16055106.54947  21100972.455    21100981.8384
  20206230.551   -24547048.837 9 -19081146.32848  20206232.546    20206241.4934
  24057323.429    -3983459.823 8  -3088821.57045  24057326.717    24057338.8064
  22976634.534    -9157869.176 8  -7118159.17846  22976639.908    22976651.0154
  24251855.312    -4487669.656 7  -3487049.74945  24251856.713    24251868.0364
  21838585.912   -15103736.338 9 -11746601.45547  21838585.145    21838594.8544
 00  3 23  1 20  0.0000000  0  8 17 23 06 26 13 24 08 10
  22309126.769   -12269124.550 8  -9540625.25347  22309129.761    22309140.9944
  24294224.323    -3721374.555 8  -2879503.66645  24294230.203    24294244.4754
  21106182.536   -20594947.109 9 -16033758.87047  21106185.819    21106195.1024
  20198810.351   -24586039.687 9 -19111528.76148  20198813.314    20198822.0474
  24075831.467    -3886205.697 8  -3013039.16345  24075833.976    24075844.7484
  22991259.503    -9081015.319 8  -7058273.12346  22991263.433    22991275.9524
  24251463.859    -4489734.372 7  -3488658.53645  24251461.316    24251475.0994
  21851078.494   -15038083.069 9 -11695443.08947  21851078.672    21851088.9914
 00  3 23  1 20 30.0000000  0  8 17 23 06 26 13 24 08 10
  22293058.803   -12353565.713 8  -9606423.42947  22293060.632    22293070.9844
  24280623.985    -3792871.695 7  -2935215.53045  24280623.988    24280638.9594
  21111508.391   -20566967.505 9 -16011956.58947  21111510.461    21111519.8874
  20191511.142   -24624407.157 9 -19141425.43948  20191512.353    20191520.6954
  24094383.104    -3788731.157 8  -2937084.99445  24094382.343    24094393.8954
  23005929.884    -9003929.742 8  -6998206.55046  23005932.746    23005945.4204
  24251168.291    -4491250.917 7  -3489840.17945  24251172.561    24251185.8104
  21863592.171   -14972309.479 9 -11644190.96647  21863594.802    21863605.2004
 00  3 23  1 21  0.0000000  0  8 17 23 06 26 13 24 08 10
  22277017.933   -12437860.659 8  -9672107.67647  22277019.580    22277030.9574
  24267038.590    -3864265.913 8  -2990847.12345  24267038.133    24267052.6164
  21116943.075   -20538406.359 9 -15989701.14947  21116945.557    21116954.9874
  20184331.353   -24662131.555 9 -19170821.02048  20184333.413    20184342.0254
  24112980.460    -3691027.666 8  -2860952.42845  24112974.783    24112985.9984
  23020641.292    -8926624.674 8  -6937968.93046  23020643.735    23020656.9174
  24250987.425    -4492213.792 7  -3490590.39845  24250990.385    24251004.2464
  21876134.653   -14906413.702 9 -11592843.64547  21876134.397    21876144.1804
 00  3 23  1 21 30.0000000  0  8 17 23 06 26 13 24 08 10
  22261003.468   -12522008.451 8  -9737677.24547  22261007.205    22261017.8564
  24253467.939    -3935559.442 8  -3046400.30345  24253469.911    24253485.7464
  21122489.326   -20509264.477 9 -15966993.19147  21122490.691    21122500.2984
  20177272.575   -24699218.284 9 -19199719.72248  20177275.669    20177284.2594
  24131603.692    -3593088.706 8  -2784636.40145  24131611.520    24131623.1244
  23035393.053    -8849097.203 8  -6877558.02646  23035396.571    23035410.4574
  24250909.242    -4492632.129 7  -3490916.30545  24250912.393    24250923.7084
  21888697.257   -14840395.997 9 -11541401.31647  21888697.217    21888707.0544
 00  3 23  1 22  0.0000000  0  8 17 23 06 26 13 24 08 10
  22245019.997   -12606002.898 8  -9803127.31747  22245022.878    22245033.5844
  24239924.930    -4006744.598 8  -3101869.05545  24239925.406    24239938.7714
  21128144.407   -20479541.726 9 -15943832.60047  21128146.751    21128156.3844
  20170333.270   -24735682.835 9 -19228133.61148  20170336.529    20170345.0734
  24150283.711    -3494907.868 7  -2708131.91645  24150295.492    24150307.5644
  23050181.741    -8771351.908 8  -6816977.37846  23050191.089    23050204.1174
  24250937.339    -4492510.807 7  -3490821.69945  24250933.497    24250946.3294
  21901282.180   -14774249.531 8 -11489858.65247  21901284.502    21901294.7884
 00  3 23  1 22 30.0000000  0  8 17 23 06 26 13 24 08 10
  22229067.274   -12689845.729 8  -9868459.26047  22229067.964    22229079.4454
  24226393.205    -4077811.899 8  -3157245.93345  24226401.003    24226414.9104
  21133911.275   -20449238.435 9 -15920219.65447  21133913.416    21133923.2964
  20163510.496   -24771547.170 9 -19256079.80248  20163512.170    20163520.5544
  24169012.572    -3396491.028 8  -2631443.51345  24169023.224    24169035.3294
  23065023.811    -8693382.130 8  -6756221.80646  23065027.910    23065041.3654
  24251055.946    -4491850.603 7  -3490307.21545  24251059.720    24251071.4724
  21913895.803   -14707965.850 9 -11438209.06047  21913898.131    21913908.3514
 00  3 23  1 23  0.0000000  0  8 17 23 06 26 13 24 08 10
  22213133.076   -12773555.248 8  -9933687.32647  22213138.513    22213150.5824
  24212897.361    -4148748.613 8  -3212521.03345  24212901.269    24212916.2464
  21139786.735   -20418363.451 9 -15896161.22847  21139788.684    21139798.1584
  20156799.135   -24806812.335 9 -19283559.09748  20156801.564    20156810.1234
  24187794.732    -3297855.942 8  -2554585.03645  24187794.010    24187805.1394
  23079913.089    -8615183.225 8  -6695287.69446  23079909.875    23079922.2134
  24251295.394    -4490648.889 7  -3489370.72145  24251288.893    24251300.0044
  21926537.594   -14641541.639 8 -11386449.96847  21926538.137    21926548.5924
 00  3 23  1 23 30.0000000  0  8 17 23 06 26 13 24 08 10
  22197234.326   -12857138.236 8  -9998816.79447  22197232.637    22197244.6374
  24199428.998    -4219538.156 8  -3267681.49245  24199430.949    24199444.6374
  21145768.401   -20386921.347 9 -15871660.90647  21145771.767    21145781.6164
  20150199.476   -24841489.812 9 -19310580.45948  20150202.671    20150210.9214
  24206604.262    -3199022.355 8  -2477571.88245  24206601.485    24206611.6044
  23094830.392    -8536757.169 8  -6634176.60146  23094833.336    23094846.4444
  24251617.830    -4488902.828 7  -3488010.13945  24251621.517    24251631.8384
  21939204.598   -14574975.302 8 -11334580.13847  21939205.317    21939215.7194
 00  3 23  1 24  0.0000000  0  8 17 23 06 26 13 24 08 10
  22181347.748   -12940608.906 8 -10063858.74347  22181348.863    22181361.0924
  24185986.926    -4290191.521 8  -3322735.76445  24185985.912    24185999.8214
  21151859.955   -20354924.459 9 -15846728.26847  21151860.574    21151870.0904
  20143713.358   -24875569.513 9 -19337136.02048  20143717.293    20143725.9464
  24225433.619    -3100009.471 8  -2400419.01645  24225443.453    24225453.0394
  23109797.691    -8458109.955 8  -6572893.16946  23109799.439    23109812.4594
  24252050.914    -4486602.824 7  -3486217.87645  24252055.851    24252069.8024
  21951900.644   -14508258.047 8 -11282592.70347  21951900.809    21951911.1554
 00  3 23  1 24 30.0000000  0  8 17 23 06 26 13 24 08 10
  22165481.476   -13023982.040 8 -10128824.69747  22165483.515    22165495.3314
  24172564.490    -4360715.061 8  -3377688.93645  24172565.828    24172579.6364
  21158049.810   -20322377.907 9 -15821367.32747  21158053.804    21158063.8494
  20137345.924   -24909038.025 9 -19363215.33648  20137348.348    20137356.8964
  24244310.994    -3000835.404 8  -2323140.56445  24244315.049    24244326.2084
  23124807.553    -8379225.178 8  -6511424.61246  23124811.217    23124823.1674
  24252598.345    -4483750.742 7  -3483995.38445  24252600.703    24252613.2064
  21964621.587   -14441400.061 8 -11230495.60747  21964623.474    21964633.6534
 00  3 23  1 25  0.0000000  0  8 17 23 06 26 13 24 08 10
  22149630.847   -13107255.237 8 -10193712.78347  22149636.746    22149648.3814
  24159168.148    -4431098.726 8  -3432533.08345  24159170.068    24159186.5884
  21164351.331   -20289277.221 9 -15795574.59847  21164352.789    21164362.5024
  20131095.655   -24941885.023 9 -19388810.35948  20131097.891    20131106.2404
  24263217.064    -2901495.215 8  -2245732.66445  24263219.075    24263229.8044
  23139868.564    -8300100.685 8  -6449769.25346  23139869.016    23139881.0324
  24253244.770    -4480351.549 7  -3481346.61245  24253247.817    24253259.2524
  21977374.108   -14374417.577 9 -11178301.50347  21977370.490    21977380.3234
 00  3 23  1 25 30.0000000  0  8 17 23 06 26 13 24 08 10
  22133807.944   -13190426.450 8 -10258521.40047  22133810.082    22133821.0144
  24145794.942    -4501348.686 7  -3487273.02745  24145801.957    24145818.4064
  21170755.663   -20255614.347 9 -15769343.80347  21170758.761    21170768.7074
  20124961.657   -24974110.745 9 -19413921.26248  20124965.380    20124973.9034
  24282154.923    -2801980.838 8  -2168189.02445  24282156.757    24282166.9774
  23154968.744    -8220723.397 8  -6387916.92046  23154973.661    23154985.9134
  24253990.330    -4476414.565 7  -3478278.76645  24253996.463    24254009.6994
  21990137.206   -14307313.958 8 -11126013.00647  21990139.747    21990149.8664
 00  3 23  1 26  0.0000000  0  8 17 23 06 26 13 24 08 10
  22118000.621   -13273494.052 8 -10323249.30447  22118002.928    22118014.6324
  24132464.864    -4571463.498 8  -3541907.72445  24132462.118    24132474.6524
  21177269.811   -20221391.898 9 -15742676.97847  21177271.119    21177281.0494
  20118950.249   -25005712.784 9 -19438546.18548  20118951.726    20118960.3464
  24301124.378    -2702280.360 8  -2090500.37745  24301128.807    24301138.4044
  23170126.595    -8141068.536 8  -6325848.30646  23170130.764    23170144.1174
  24254845.003    -4471943.113 8  -3474794.47145  24254847.769    24254860.0664
  22002932.153   -14240099.004 8 -11073637.75047  22002929.736    22002940.5834
 00  3 23  1 26 30.0000000  0  8 17 23 06 26 13 24 08 10
  22102216.376   -13356435.760 8 -10387879.08547  22102219.200    22102230.8274
  24119144.049    -4641433.171 8  -3596429.29945  24119146.110    24119158.6464
  21183893.217   -20186591.728 9 -15715559.97347  21183893.353    21183903.3404
  20113053.310   -25036696.584 9 -19462689.36348  20113055.908    20113064.0624
  24320136.483    -2602380.425 8  -2012656.29545  24320138.504    24320148.6414
  23185333.411    -8061133.708 8  -6263561.54946  23185341.050    23185356.1304
  24255793.114    -4466941.300 7  -3470896.91045  24255799.649    24255811.4494
  22015738.163   -14172786.885 8 -11021186.78447  22015739.197    22015749.9434
 00  3 23  1 27  0.0000000  0  8 17 23 06 26 13 24 08 10
  22086460.968   -13439230.581 8 -10452394.43947  22086463.334    22086475.1664
  24105852.873    -4711254.647 8  -3650835.38845  24105858.895    24105871.8164
  21190624.039   -20151216.179 9 -15687994.63147  21190625.559    21190634.7134
  20107274.502   -25067066.234 9 -19486353.97948  20107276.651    20107284.8474
  24339196.569    -2502271.047 8  -1934649.01745  24339188.976    24339199.9474
  23200603.127    -7980928.897 8  -6201064.41846  23200603.872    23200618.1074
  24256846.403    -4461413.754 7  -3466589.65445  24256850.243    24256863.0364
  22028566.920   -14105376.784 8 -10968659.47547  22028567.066    22028578.0094
 00  3 23  1 27 30.0000000  0  8 17 23 06 26 13 24 08 10
  22070735.414   -13521864.816 8 -10516784.65147  22070739.206    22070750.4344
  24092593.725    -4780954.772 8  -3705146.95745  24092595.425    24092608.3054
  21197462.746   -20115276.111 9 -15659989.39947  21197464.592    21197473.8954
  20101611.725   -25096816.524 9 -19509535.98348  20101615.096    20101623.7614
  24358280.395    -2401959.050 8  -1856483.84245  24358277.508    24358287.8674
  23215907.173    -7900463.905 8  -6138364.52646  23215916.776    23215930.2804
  24258001.469    -4455359.288 7  -3461871.81245  24258002.332    24258015.5384
  22041410.931   -14037868.936 8 -10916055.99347  22041413.289    22041423.8634
 00  3 23  1 28  0.0000000  0  8 17 23 06 26 13 24 08 10
  22055042.902   -13604320.698 8 -10581035.89047  22055048.205    22055059.5374
  24079352.112    -4850533.838 8  -3759364.17245  24079353.488    24079369.2064
  21204409.288   -20078768.226 9 -15631541.71047  21204411.363    21204421.0874
  20096069.292   -25125951.878 9 -19532238.80648  20096071.147    20096079.6064
  24377403.398    -2301455.424 8  -1778169.32945  24377403.485    24377413.4704
  23231270.652    -7819766.169 8  -6075483.27046  23231273.112    23231286.9154
  24259262.597    -4448759.991 7  -3456729.40345  24259259.596    24259271.5004
  22054275.861   -13970266.551 8 -10863378.82647  22054278.095    22054288.4224
 00  3 23  1 28 30.0000000  0  8 17 23 06 26 13 24 08 10
  22039390.272   -13686592.257 8 -10645143.50747  22039392.638    22039403.6274
  24066133.130    -4920002.556 8  -3813495.39145  24066134.651    24066149.4444
  21211466.579   -20041687.685 9 -15602647.80847  21211467.963    21211477.6314
  20090642.535   -25154467.240 9 -19554458.52748  20090644.424    20090652.5924
  24396562.551    -2200764.202 8  -1699708.65045  24396564.096    24396574.4924
  23246663.307    -7738870.749 8  -6012447.96946  23246666.869    23246679.9394
  24260625.534    -4441615.260 7  -3451162.03045  24260620.250    24260631.3984
  22067162.325   -13902560.998 8 -10810621.27747  22067161.984    22067172.0064
 00  3 23  1 29  0.0000000  0  8 17 23 06 26 13 24 08 10
  22023765.445   -13768690.604 8 -10709116.14947  22023769.633    22023781.4674
  24052937.778    -4989361.935 8  -3867541.43945  24052936.114    24052950.0244
  21218629.646   -20004054.878 9 -15573323.56747  21218629.540    21218638.2704
  20085335.249   -25182361.793 9 -19576194.49848  20085336.056    20085344.7684
  24415761.490    -2099894.984 8  -1621109.26445  24415758.430    24415769.7844
  23262090.646    -7657791.731 8  -5949269.61346  23262095.632    23262108.6944
  24262078.471    -4433916.450 7  -3445162.87645  24262084.426    24262095.1944
  22080065.610   -13834738.017 8 -10757772.23147  22080068.160    22080078.1354
 00  3 23  1 29 30.0000000  0  8 17 23 06 26 13 24 08 10
  22008172.387   -13850637.212 8 -10772970.55947  22008175.733    22008187.0844
  24039753.716    -5058616.184 8  -3921505.54745  24039756.826    24039771.0454
  21225893.079   -19965875.003 9 -15543573.03247  21225894.812    21225904.0494
  20080142.683   -25209639.517 9 -19597449.82948  20080145.413    20080154.0354
  24434983.515    -1998855.667 8  -1542377.33645  24434985.700    24434996.5764
  23277553.579    -7576532.384 8  -5885950.74646  23277559.369    23277571.0434
  24263652.545    -4425646.809 7  -3438718.90445  24263655.255    24263667.5804
  22092996.432   -13766786.521 8 -10704823.05647  22092998.696    22093009.0714
 00  3 23  1 30  0.0000000  0  8 17 23 06 26 13 24 08 10
  21992607.751   -13932436.744 8 -10836710.36147  21992609.874    21992619.7024
  24026594.494    -5127744.791 8  -3975371.77145  24026600.885    24026616.3454
  21233259.232   -19927149.415 9 -15513397.27047  21233263.400    21233272.9544
  20075066.869   -25236311.802 9 -19618233.39248  20075069.843    20075078.4564
  24454238.061    -1897649.543 8  -1463515.41245  24454245.115    24454255.6434
  23293057.043    -7495088.686 8  -5822488.23246  23293057.348    23293070.3264
  24265346.937    -4416800.707 7  -3431825.77345  24265339.521    24265350.9474
  22105957.201   -13698690.170 8 -10651760.98447  22105957.438    22105967.6594
 00  3 23  1 30 30.0000000  0  8 17 23 06 26 13 24 08 10
  21977069.835   -14014091.139 9 -10900337.08347  21977072.406    21977081.8844
  24013464.272    -5196752.548 8  -4029143.82445  24013469.800    24013483.2034
  21240731.643   -19887895.306 9 -15482809.68547  21240733.585    21240742.7224
  20070109.303   -25262372.440 9 -19638540.34148  20070110.734    20070119.1584
  24473537.616    -1796272.683 8  -1384520.46445  24473536.313    24473546.9884
  23308583.996    -7413456.516 8  -5758878.87546  23308591.876    23308605.2474
  24267127.210    -4407393.503 7  -3424495.36545  24267130.218    24267141.7954
  22118945.221   -13630450.229 8 -10598587.04147  22118942.393    22118952.9714
 00  3 23  1 31  0.0000000  0  8 17 23 06 26 13 24 08 10
  21961558.151   -14095607.732 8 -10963856.42047  21961559.714    21961569.8224
  24000363.883    -5265636.615 8  -4082819.50045  24000362.704    24000374.8394
  21248304.722   -19848110.488 9 -15451808.54847  21248304.797    21248313.8934
  20065262.911   -25287830.185 9 -19658377.49848  20065266.220    20065274.8134
  24492856.414    -1694728.843 8  -1305395.40845  24492859.280    24492869.2444
  23324164.163    -7331615.775 8  -5695106.97346  23324166.245    23324178.7654
  24269031.448    -4397417.981 7  -3416722.15845  24269028.460    24269042.1424
  22131952.036   -13562073.442 8 -10545306.45747  22131954.405    22131964.8404
 00  3 23  1 31 30.0000000  0  8 17 23 06 26 13 24 08 10
  21946075.293   -14176968.675 8 -11027254.47547  21946077.036    21946087.0514
  23987273.497    -5334398.958 8  -4136400.35045  23987276.691    23987289.9814
  21255976.395   -19807779.091 9 -15420381.51347  21255978.896    21255988.8864
  20060532.852   -25312688.295 9 -19677747.41548  20060535.660    20060544.3294
  24512214.806    -1593014.279 7  -1226137.29445  24512214.625    24512224.6964
  23339782.108    -7249546.859 8  -5631157.24046  23339782.738    23339795.4604
  24271033.374    -4386881.139 7  -3408511.58845  24271032.818    24271044.0744
  22144991.764   -13493569.545 8 -10491926.83447  22144990.214    22145000.7524
 00  3 23  1 32  0.0000000  0  8 17 23 06 26 13 24 08 10
  21930626.347   -14258156.578 9 -11090517.67547  21930626.957    21930637.1944
  23974215.380    -5403032.572 8  -4189880.90245  23974215.416    23974230.0244
  21263757.675   -19766896.979 9 -15388525.35547  21263758.770    21263768.4464
  20055920.527   -25336936.900 9 -19696642.39548  20055921.559    20055929.7374
  24531603.436    -1491126.843 7  -1146744.46145  24531603.917    24531611.7414
  23355438.983    -7167238.673 8  -5567021.12346  23355444.836    23355458.9374
  24273143.761    -4375791.460 7  -3399870.22145  24273143.270    24273155.3354
  22158046.950   -13424953.793 8 -10438460.05047  22158048.300    22158057.8514
 00  3 23  1 32 30.0000000  0  8 17 23 06 26 13 24 08 10
  21915208.263   -14339181.155 9 -11153653.61247  21915208.810    21915218.6484
  23961175.125    -5471542.620 8  -4243265.16645  23961179.536    23961191.7714
  21271643.818   -19725457.709 9 -15356235.03647  21271644.796    21271654.3624
  20051422.248   -25360565.738 9 -19715054.43748  20051424.858    20051433.2734
  24551027.229    -1389068.917 7  -1067218.81545  24551023.430    24551033.6564
  23371152.026    -7084672.656 8  -5502684.06146  23371156.196    23371170.9824
  24275360.131    -4364154.351 7  -3390802.31145  24275358.414    24275370.4664
  22171121.138   -13356249.997 8 -10384924.65147  22171122.042    22171131.4254
 00  3 23  1 33  0.0000000  0  8 17 23 06 26 13 24 08 10
  21899816.673   -14420047.159 8 -11216666.00847  21899820.540    21899830.0664
  23948165.711    -5539920.278 8  -4296546.22846  23948167.508    23948180.9434
  21279632.594   -19683457.183 9 -15323507.37547  21279636.869    21279646.9954
  20047045.983   -25383572.310 9 -19732981.60448  20047046.826    20047055.3064
  24570482.113    -1286843.404 7   -987562.55245  24570476.321    24570487.1914
  23386922.802    -7001827.451 8  -5438129.45746  23386921.999    23386935.5474
  24277675.667    -4351955.787 7  -3381296.83445  24277680.104    24277691.8094
  22184206.698   -13287454.184 8 -10331317.54047  22184212.142    22184223.1274
 00  3 23  1 33 30.0000000  0  8 17 23 06 26 13 24 08 10
  21884457.927   -14500740.954 8 -11279544.20547  21884464.696    21884475.0784
  23935179.498    -5608167.697 8  -4349725.83645  23935179.040    23935192.7684
  21287731.368   -19640919.016 9 -15290360.78247  21287731.780    21287742.1034
  20042790.302   -25405933.793 9 -19750406.09748  20042791.979    20042800.3624
  24589953.868    -1184455.409 7   -907779.67445  24589959.041    24589969.6324
  23402742.366    -6918707.235 8  -5373360.56346  23402740.703    23402753.6404
  24280099.891    -4339203.974 7  -3371360.27645  24280106.064    24280118.7114
  22197319.828   -13218573.824 8 -10277644.56947  22197319.865    22197330.6114
 00  3 23  1 34  0.0000000  0  8 17 23 06 26 13 24 08 10
  21869135.909   -14581274.239 8 -11342297.30847  21869138.421    21869149.9594
  23922216.155    -5676289.314 8  -4402807.40545  23922216.032    23922229.4074
  21295923.416   -19597856.884 9 -15256805.89847  21295926.220    21295936.5244
  20038657.782   -25427642.253 9 -19767321.74548  20038660.870    20038669.2214
  24609469.907    -1081915.387 7   -827878.36045  24609473.856    24609482.8174
  23418601.970    -6835329.339 8  -5308390.88946  23418605.657    23418619.4294
  24282638.981    -4325898.781 7  -3360992.56745  24282638.313    24282650.4454
  22210438.909   -13149618.954 8 -10223913.52947  22210442.032    22210451.9354
 00  3 23  1 34 30.0000000  0  8 17 23 06 26 13 24 08 10
  21853847.520   -14661635.059 8 -11404916.03147  21853847.057    21853858.0244
  23909274.260    -5744299.445 8  -4455802.16245  23909273.603    23909286.8944
  21304215.538   -19554279.008 9 -15222849.14247  21304218.967    21304228.8384
  20034650.681   -25448703.194 9 -19783732.83248  20034652.713    20034661.3664
  24629008.480     -979230.917 7   -747864.48345  24629013.616    24629023.6504
  23434521.527    -6751713.372 8  -5243235.70846  23434516.435    23434530.8594
  24285276.934    -4312043.127 7  -3350195.91145  24285274.750    24285286.5374
  22223571.294   -13080587.204 8 -10170122.58247  22223578.339    22223588.6314
 00  3 23  1 35  0.0000000  0  8 17 23 06 26 13 24 08 10
  21838586.595   -14741805.297 8 -11467386.26947  21838590.937    21838601.9474
  23896355.048    -5812200.332 8  -4508711.75946  23896354.454    23896366.3994
  21312607.364   -19510199.398 9 -15188501.41447  21312607.364    21312616.6714
  20030763.991   -25469119.621 9 -19799641.70548  20030767.666    20030776.0494
  24648580.428     -876404.482 7   -667739.99345  24648580.210    24648591.6034
  23450463.250    -6667885.896 8  -5177915.73346  23450469.787    23450482.5184
  24288015.443    -4297640.345 7  -3338972.87745  24288015.702    24288027.3464
  22236732.740   -13011467.659 8 -10116263.23847  22236731.576    22236742.2174
 00  3 23  1 35 30.0000000  0  8 17 23 06 26 13 24 08 10
  21823365.851   -14821786.402 8 -11529709.13047  21823370.544    21823382.0294
  23883452.273    -5879995.962 8  -4561539.37146  23883452.273    23883464.7894
  21321085.859   -19465619.352 9 -15153763.72847  21321090.425    21321099.8724
  20026999.387   -25488904.799 9 -19815058.69448  20027002.877    20027010.8444
  24668177.713     -773451.519 7   -587516.89245  24668172.068    24668183.4274
  23466457.850    -6583864.207 8  -5112444.37246  23466459.639    23466472.5654
  24290855.149    -4282711.816 7  -3327340.20945  24290856.056    24290868.2484
  22249895.924   -12942257.542 8 -10062333.31647  22249901.864    22249912.3854
 00  3 23  1 36  0.0000000  0  8 17 23 06 26 13 24 08 10
  21808180.890   -14901589.501 8 -11591893.28447  21808184.019    21808195.9244
  23870568.120    -5947676.970 8  -4614277.62946  23870571.222    23870586.3414
  21329667.418   -19420521.076 9 -15118622.23647  21329672.063    21329681.7744
  20023351.627   -25508081.214 9 -19830001.32448  20023353.728    20023361.9964
  24687784.688     -670385.821 7   -507205.96745  24687784.258    24687795.4204
  23482478.205    -6499654.999 8  -5046826.91846  23482483.507    23482496.7964
  24293795.859    -4267264.023 7  -3315302.88945  24293795.387    24293808.3124
  22263091.346   -12872941.684 8 -10008320.98147  22263091.858    22263102.1464
 00  3 23  1 36 30.0000000  0  8 17 23 06 26 13 24 08 10
  21793029.473   -14981222.393 8 -11653944.78047  21793030.785    21793041.6724
  23857717.386    -6015227.754 8  -4666914.44446  23857718.718    23857732.7334
  21338350.810   -19374901.630 9 -15083074.64747  21338353.644    21338362.9324
  20019817.833   -25526648.457 9 -19844469.27848  20019820.152    20019828.6624
  24707418.433     -567205.336 7   -426805.57745  24707418.111    24707429.7174
  23498545.823    -6415252.262 8  -4981058.68546  23498544.571    23498559.3034
  24296822.487    -4251294.973 7  -3302859.42845  24296833.264    24296846.5644
  22276299.586   -12803507.733 8  -9954216.64447  22276304.894    22276315.1694
 00  3 23  1 37  0.0000000  0  8 17 23 06 26 13 24 08 10
  21777900.848   -15060707.989 8 -11715881.50747  21777905.195    21777917.0594
  23844887.514    -6082632.922 8  -4719437.81846  23844891.124    23844904.0604
  21347132.845   -19328740.824 9 -15047105.21847  21347137.512    21347146.6834
  20016400.625   -25544597.943 9 -19858455.85648  20016404.585    20016413.2684
  24727070.289     -463909.025 7   -346314.96345  24727075.993    24727085.7184
  23514636.640    -6330649.612 8  -4915134.67846  23514643.215    23514658.1394
  24299970.912    -4234810.340 7  -3290014.19745  24299971.056    24299982.7254
  22289541.755   -12733957.277 8  -9900021.51947  22289540.408    22289550.4284
 00  3 23  1 37 30.0000000  0  8 17 23 06 26 13 24 08 10
  21762804.549   -15140050.456 9 -11777706.71847  21762807.019    21762817.4874
  23832091.742    -6149897.831 8  -4771851.87146  23832090.735    23832104.6034
  21356024.759   -19282020.110 9 -15010699.48947  21356028.092    21356036.9604
  20013104.083   -25561929.653 9 -19871961.05848  20013106.484    20013114.8894
  24746755.448     -360494.470 7   -265732.17045  24746755.748    24746765.1544
  23530768.600    -6245848.417 8  -4849055.91446  23530780.614    23530795.2934
  24303200.620    -4217797.260 7  -3276757.20045  24303207.982    24303219.7064
  22302796.284   -12664298.036 8  -9845741.62747  22302796.464    22302806.2264
 00  3 23  1 38  0.0000000  0  8 17 23 06 26 13 24 08 10
  21747737.817   -15219229.300 8 -11839404.44547  21747739.951    21747750.3554
  23819308.957    -6217028.673 8  -4824161.46546  23819315.087    23819330.1644
  21365026.147   -19234727.861 9 -14973848.40347  21365027.643    21365037.0234
  20009926.834   -25578630.030 9 -19884974.31048  20009928.809    20009936.9054
  24766457.954     -256944.975 7   -185044.21845  24766460.206    24766470.2514
  23546952.730    -6160841.644 8  -4782817.00546  23546957.432    23546971.9584
  24306554.874    -4200229.664 7  -3263068.08645  24306551.900    24306562.5104
  22316064.922   -12594540.816 8  -9791385.38546  22316069.778    22316080.3224
 00  3 23  1 38 30.0000000  0  8 17 23 06 26 13 24 08 10
  21732701.475   -15298230.344 8 -11900963.61347  21732706.048    21732717.0214
  23806563.687    -6284037.775 8  -4876376.20046  23806565.198    23806577.3974
  21374134.567   -19186864.946 9 -14936552.64747  21374135.212    21374145.8244
  20006868.729   -25594691.416 9 -19897489.64648  20006872.078    20006880.4104
  24786186.428     -153246.632 7   -104240.31345  24786192.449    24786202.8354
  23563177.232    -6075617.129 8  -4716408.39946  23563176.461    23563189.0374
  24310002.136    -4182092.874 7  -3248935.48545  24310002.869    24310014.3134
  22329363.313   -12524689.005 8  -9736955.44146  22329362.375    22329372.2874
 00  3 23  1 39  0.0000000  0  8 17 23 06 26 13 24 08 10
  21717708.015   -15377023.705 9 -11962360.94347  21717712.524    21717723.0734
  23793830.065    -6350942.098 8  -4928509.30246  23793833.313    23793846.1824
  21383346.978   -19138435.689 9 -14898815.59247  21383350.839    21383361.6134
  20003932.800   -25610127.406 9 -19909517.66148  20003934.272    20003942.7314
  24805960.530      -49404.914 7    -23324.68145  24805954.449    24805964.8454
  23579430.517    -5990170.491 8  -4649826.69646  23579435.656    23579448.3804
  24313562.525    -4163383.865 7  -3234356.99545  24313562.915    24313574.4184
  22342671.005   -12454735.455 8  -9682446.21146  22342674.505    22342684.3294
 00  3 23  1 39 30.0000000  0  8 17 23 06 26 13 24 08 10
  21702760.295   -15455591.923 8 -12023582.85247  21702761.362    21702772.0684
  23781113.560    -6417741.104 8  -4980560.31946  23781121.654    23781135.2374
  21392667.636   -19089470.034 9 -14860660.57347  21392669.030    21392679.4224
  20001110.855   -25624951.368 9 -19921068.77548  20001114.011    20001122.1334
  24825733.153       54570.262 7     57694.94645  24825738.777    24825749.2584
  23595737.955    -5904489.660 8  -4583062.51846  23595740.113    23595753.8844
  24317224.165    -4144087.041 7  -3219320.47945  24317233.877    24317247.8464
  22356007.069   -12384677.459 8  -9627855.60946  22356005.709    22356016.4734
 00  3 23  1 40  0.0000000  0  8 17 23 06 26 13 24 08 10
  21687851.025   -15533938.080 8 -12084631.70547  21687852.692    21687862.5064
  23768436.938    -6484420.980 8  -5032518.53946  23768433.240    23768445.9314
  21402079.203   -19039999.245 9 -14822111.94047  21402083.122    21402093.0844
  19998405.676   -25639163.670 9 -19932143.26648  19998409.017    19998417.5844
  24845549.086      158675.115 7    138815.62945  24845550.406    24845559.6204
  23612087.395    -5818557.592 8  -4516102.60146  23612092.759    23612105.1964
  24321007.108    -4124215.607 7  -3203836.12845  24321016.110    24321028.2444
  22369352.898   -12314500.367 8  -9573172.21146  22369359.316    22369370.2314
 00  3 23  1 40 30.0000000  0  8 17 23 06 26 13 24 08 10
  21672978.140   -15612071.685 8 -12145514.94647  21672983.946    21672994.2604
  23755761.591    -6550973.923 8  -5084377.83646  23755767.462    23755781.0294
  21411585.139   -18990052.470 9 -14783192.41247  21411587.953    21411597.7454
  19995815.929   -25652771.547 9 -19942746.78448  19995819.803    19995827.7464
  24865385.956      262906.318 7    220034.78045  24865385.041    24865394.8904
  23628494.024    -5732384.884 8  -4448955.14046  23628490.888    23628503.9334
  24324894.719    -4103795.596 7  -3187924.35345  24324902.421    24324914.3434
  22382735.975   -12244204.250 8  -9518396.05346  22382737.030    22382747.2574
 00  3 23  1 41  0.0000000  0  8 17 23 06 26 13 24 08 10
  21658153.867   -15689998.481 9 -12206237.04447  21658155.259    21658165.0034
  23743130.198    -6617397.015 8  -5136135.95946  23743128.236    23743140.9164
  21421177.604   -18939641.390 9 -14743911.08947  21421180.687    21421190.7564
  19993340.454   -25665776.833 9 -19952880.74248  19993344.909    19993352.8854
  24885244.428      367259.591 7    301349.05745  24885242.711    24885251.8554
  23644926.890    -5645985.223 8  -4381630.82346  23644932.411    23644943.8634
  24328887.733    -4082826.857 7  -3171584.98645  24328891.885    24328900.0824
  22396133.081   -12173813.538 8  -9463546.18446  22396132.160    22396142.0754
 00  3 23  1 41 30.0000000  0  8 17 23 06 26 13 24 08 10
  21643359.769   -15767735.507 9 -12266811.26147  21643362.025    21643373.0504
  23730511.001    -6683682.995 8  -5187787.27146  23730514.205    23730527.5754
  21430858.371   -18888764.407 9 -14704266.71647  21430862.003    21430872.1414
  19990984.189   -25678167.578 9 -19962535.84248  19990986.728    19990994.9394
  24905130.156      471731.315 7    382755.63345  24905123.098    24905132.8834
  23661413.679    -5559374.571 8  -4314142.12945  23661413.276    23661426.0864
  24332986.919    -4061315.024 7  -3154822.47945  24332985.595    24332997.0574
  22409541.037   -12103340.269 8  -9408631.98646  22409543.229    22409552.7964
 00  3 23  1 42  0.0000000  0  7 17 23 06 26 13 24 10
  21628604.363   -15845273.847 9 -12327230.66647  21628607.603    21628617.9904
  23717920.523    -6749848.337 8  -5239344.54246  23717923.197    23717936.1334
  21440632.488   -18837397.040 8 -14664240.23447  21440637.005    21440647.3444
  19988744.210   -25689933.474 9 -19971704.04548  19988748.065    19988756.2504
  24925019.872      576325.453 7    464257.61645  24925026.211    24925036.7324
  23677924.540    -5472575.673 8  -4246506.73645  23677930.018    23677944.9514
  22422967.654   -12032783.253 8  -9353652.52046  22422969.780    22422980.0814
 00  3 23  1 42 30.0000000  0  7 17 23 06 26 13 24 10
  21613888.895   -15922610.583 9 -12387492.96647  21613891.273    21613901.0744
  23705350.172    -6815903.442 8  -5290815.94546  23705352.638    23705365.5144
  21450508.551   -18785512.139 9 -14623810.48547  21450510.148    21450520.7684
  19986627.283   -25701071.644 9 -19980383.10948  19986628.496    19986636.6624
  24944946.307      681037.102 7    545851.17345  24944952.750    24944963.2734
  23694487.177    -5385602.368 8  -4178735.44845  23694479.649    23694495.3634
  22436404.648   -11962166.183 8  -9298626.27446  22436406.946    22436417.1654
 00  3 23  1 43  0.0000000  0  6 17 23 06 26 24 10
  21599209.719   -15999746.934 9 -12447599.12847  21599212.327    21599222.5844
  23692802.223    -6881844.548 8  -5342198.49246  23692804.993    23692817.9194
  21460483.057   -18733091.155 9 -14582963.01447  21460486.189    21460496.1734
  19984625.428   -25711583.073 9 -19988573.80448  19984628.160    19984636.1814
  23711059.904    -5298448.355 8  -4110823.35445  23711066.276    23711079.3274
  22449861.395   -11891476.834 8  -9243543.69446  22449859.168    22449868.9534
 00  3 23  1 43 30.0000000  0  6 17 23 06 26 24 10
  21584571.247   -16076674.788 9 -12507542.82347  21584572.857    21584582.7694
  23680276.039    -6947662.539 8  -5393485.13446  23680280.526    23680292.5124
  21470560.170   -18680136.248 9 -14541699.49047  21470563.556    21470573.1794
  19982744.601   -25721464.080 9 -19996273.26048  19982747.919    19982755.8724
  23727689.492    -5211105.996 8  -4042764.47045  23727688.017    23727700.0164
  22463327.058   -11820693.155 8  -9188387.62446  22463328.770    22463339.4414
 00  3 23  1 44  0.0000000  0  6 17 23 06 26 24 10
  21569966.153   -16153390.729 9 -12567321.40047  21569973.691    21569983.9544
  23667778.192    -7013362.340 8  -5444679.67346  23667778.310    23667791.3614
  21480737.625   -18626664.606 9 -14500033.31347  21480738.503    21480748.1504
  19980985.907   -25730711.651 9 -20003479.13348  19980987.935    19980996.3644
  23744344.111    -5123561.848 8  -3974548.39145  23744344.703    23744359.4294
  22476814.600   -11749821.736 8  -9133163.18846  22476815.151    22476826.2394
 00  3 23  1 44 30.0000000  0  6 17 23 06 26 24 10
  21555411.782   -16229903.193 9 -12626941.42547  21555414.384    21555424.4704
  23655297.963    -7078925.521 8  -5495767.72346  23655301.538    23655315.3284
  21491003.905   -18572706.101 9 -14457987.76447  21491006.789    21491016.2934
  19979345.142   -25739333.052 9 -20010197.07848  19979347.548    19979355.5734
  23761038.463    -5035797.126 8  -3906160.40645  23761046.348    23761061.0104
  22490316.683   -11678860.783 8  -9077868.97846  22490318.650    22490329.3434
 00  3 23  1 45  0.0000000  0  6 17 23 06 26 24 10
  21540888.301   -16306204.510 9 -12686396.91247  21540894.593    21540904.7814
  23642855.371    -7144352.006 8  -5546749.27046  23642852.565    23642863.9654
  21501358.623   -18518284.609 9 -14415581.44747  21501362.396    21501372.3724
  19977822.843   -25747331.290 9 -20016429.44248  19977825.318    19977833.5174
  23777790.124    -4947800.037 8  -3837591.33945  23777793.677    23777808.7944
  22503841.413   -11607793.925 8  -9022492.25146  22503842.615    22503852.6914
 00  3 23  1 45 30.0000000  0  6 17 23 06 26 24 10
  21526415.469   -16382286.018 9 -12745681.13647  21526416.984    21526426.6304
  23630421.807    -7209650.985 8  -5597631.45746  23630426.009    23630436.8824
  21511799.835   -18463406.567 9 -14372819.38347  21511805.111    21511815.2514
  19976419.720   -25754699.633 9 -20022170.98848  19976423.213    19976431.4874
  23794579.946    -4859578.555 8  -3768847.43345  23794581.340    23794595.9414
  22517383.751   -11536631.803 8  -8967041.29346  22517384.565    22517394.9984
 00  3 23  1 46  0.0000000  0  6 17 23 06 26 24 10
  21511979.384   -16458152.793 9 -12804798.01947  21511979.971    21511990.0564
  23618021.839    -7274830.160 8  -5648420.29646  23618022.131    23618034.1014
  21522335.093   -18408066.908 9 -14329697.60547  21522336.503    21522345.8234
  19975136.831   -25761450.199 9 -20027431.14348  19975138.620    19975146.7054
  23811407.953    -4771141.260 8  -3699935.38545  23811409.068    23811424.8854
  22530944.968   -11465385.637 8  -8911524.83946  22530942.024    22530952.2784
 00  3 23  1 46 30.0000000  0  6 17 23 06 26 24 10
  21497580.987   -16533800.936 9 -12863744.55947  21497584.871    21497594.3714
  23605634.567    -7339883.806 8  -5699111.35946  23605643.088    23605655.8074
  21532954.506   -18352243.352 8 -14286198.78247  21532959.130    21532968.9454
  19973966.342   -25767595.986 9 -20032220.04048  19973969.129    19973977.0834
  23828269.307    -4682490.146 8  -3630856.69545  23828279.718    23828294.6314
  22544513.611   -11394058.341 8  -8855945.17446  22544514.920    22544525.7084
 00  3 23  1 47  0.0000000  0  6 17 23 06 26 24 10
  21483228.963   -16609228.536 9 -12922519.24347  21483231.259    21483240.9634
  23593288.732    -7404818.934 8  -5749710.01646  23593286.811    23593298.6464
  21543676.524   -18295914.661 9 -14242306.34647  21543678.560    21543688.3454
  19972911.097   -25773139.675 9 -20036539.77448  19972914.135    19972922.4104
  23845187.156    -4593640.660 8  -3561623.44745  23845187.871    23845200.5474
  22558096.811   -11322656.732 8  -8800307.59646  22558101.864    22558113.0674
 00  3 23  1 47 30.0000000  0  6 17 23 06 26 24 10
  21468916.401   -16684443.001 9 -12981127.85247  21468918.418    21468927.7584
  23580954.783    -7469629.042 8  -5800211.26146  23580952.736    23580965.3454
  21554494.486   -18239068.845 9 -14198010.96047  21554495.531    21554506.0194
  19971971.426   -25778078.435 9 -20040388.13348  19971974.335    19971982.7294
  23862128.928    -4504602.942 8  -3492243.51345  23862130.304    23862144.7574
  22571704.165   -11251192.399 8  -8744621.14746  22571701.662    22571712.1144
 00  3 23  1 48  0.0000000  0  6 17 23 06 26 24 10
  21454641.113   -16759448.110 9 -13039573.31947  21454645.370    21454654.8264
  23568643.611    -7534311.153 8  -5850612.77646  23568644.347    23568656.6404
  21565409.524   -18181705.264 9 -14153312.11647  21565411.581    21565421.7914
  19971147.089   -25782408.012 9 -20043761.80248  19971150.010    19971158.4034
  23879108.277    -4415368.593 8  -3422710.36545  23879111.033    23879125.9484
  22585314.548   -11179664.721 8  -8688885.35046  22585313.892    22585324.2484
 00  3 23  1 48 30.0000000  0  6 17 23 06 26 24 10
  21440411.122   -16834238.168 9 -13097851.21847  21440412.792    21440422.3554
  23556358.733    -7598862.958 8  -5900912.73846  23556361.000    23556372.2424
  21576417.059   -18123837.315 8 -14108220.26047  21576422.937    21576433.8634
  19970442.199   -25786117.100 9 -20046651.98548  19970444.786    19970452.5694
  23896137.436    -4325930.639 8  -3353018.56545  23896130.633    23896146.4514
  22598935.747   -11108060.357 8  -8633089.79346  22598938.568    22598949.8224
 00  3 23  1 49  0.0000000  0  6 17 23 06 26 24 10
  21426220.665   -16908807.361 9 -13155957.00347  21426222.175    21426232.6504
  23544099.926    -7663293.544 8  -5951118.27046  23544100.241    23544109.7294
  21587523.197   -18065482.312 9 -14062748.88347  21587528.009    21587538.2974
  19969858.190   -25789192.491 9 -20049048.37448  19969859.051    19969867.1924
  23913175.304    -4236295.653 7  -3283173.26845  23913186.728    23913203.1974
  22612582.192   -11036363.606 8  -8577222.23046  22612581.933    22612593.0134
 00  3 23  1 49 30.0000000  0  6 17 23 06 26 24 10
  21412073.363   -16983139.876 9 -13213878.37747  21412077.001    21412087.5074
  23531858.062    -7727613.429 8  -6001237.53746  23531859.255    23531871.2734
  21598717.572   -18006661.319 9 -14016914.38447  21598721.826    21598731.3354
  19969393.834   -25791633.211 9 -20050950.21148  19969394.863    19969403.0914
  23930272.754    -4146460.140 8  -3213171.67545  23930283.219    23930297.1094
  22626245.568   -10964564.138 8  -8521274.64446  22626245.374    22626255.7014
 00  3 23  1 50  0.0000000  0  6 17 23 06 26 24 10
  21397980.342   -17057212.841 9 -13271597.51147  21397982.403    21397992.0324
  23519639.815    -7791834.071 8  -6051279.47546  23519638.100    23519651.7124
  21609997.628   -17947389.084 9 -13970728.27147  21610000.917    21610010.3904
  19969047.653   -25793448.756 9 -20052364.90248  19969049.237    19969057.5794
  23947425.992    -4056421.212 8  -3143011.57045  23947418.025    23947431.6684
  22639921.850   -10892656.438 8  -8465242.70646  22639928.267    22639939.4154
 00  3 23  1 50 30.0000000  0  6 17 23 06 26 24 10
  21383933.185   -17131018.129 9 -13329108.07347  21383938.186    21383947.3544
  23507432.004    -7855955.197 8  -6101243.85546  23507436.920    23507449.5274
  21621363.547   -17887664.970 9 -13924190.04847  21621366.220    21621375.6374
  19968818.052   -25794650.226 9 -20053301.09248  19968820.455    19968828.9514
  23964588.745    -3966185.876 8  -3072698.45945  23964589.961    23964604.0514
  22653632.779   -10820635.205 8  -8409122.33746  22653633.540    22653644.3924
 00  3 23  1 51  0.0000000  0  6 17 23 06 26 24 10
  21369945.003   -17204543.464 9 -13386400.47047  21369946.227    21369955.9664
  23495248.919    -7919975.856 8  -6151129.94546  23495253.679    23495265.7184
  21632817.308   -17827480.281 8 -13877292.94247  21632818.552    21632828.5174
  19968704.652   -25795244.589 9 -20053764.21848  19968707.425    19968715.8664
  23981802.728    -3875754.365 8  -3002232.50445  23981797.561    23981812.4714
  22667353.062   -10748516.709 8  -8352926.17146  22667357.354    22667368.6834
 00  3 23  1 51 30.0000000  0  6 17 23 06 26 24 10
  21356003.279   -17277803.595 9 -13443486.21347  21356005.161    21356014.8174
  23483083.529    -7983883.266 8  -6200927.79846  23483091.614    23483104.7184
  21644357.180   -17766834.077 9 -13830036.22047  21644359.417    21644368.6334
  19968707.069   -25795233.802 9 -20053755.80348  19968709.661    19968717.7104
  23999031.855    -3785124.521 7  -2931611.93945  23999043.704    23999057.8504
  22681092.962   -10676319.600 8  -8296668.73046  22681096.101    22681107.0364
 00  3 23  1 52  0.0000000  0  6 17 23 06 26 24 10
  21342106.818   -17350829.247 9 -13500389.25847  21342108.741    21342118.4854
  23470952.203    -8047661.872 8  -6250625.27646  23470954.914    23470967.1354
  21655989.504   -17705715.168 9 -13782411.14047  21655990.389    21655999.9274
  19968824.217   -25794608.582 9 -20053268.59348  19968827.970    19968836.9144
  24016320.438    -3694290.874 7  -2860832.60145  24016328.165    24016342.8064
  22694845.587   -10604062.032 8  -8240364.17846  22694846.673    22694857.7684
 00  3 23  1 52 30.0000000  0  6 17 23 06 26 24 10
  21328250.609   -17423634.841 9 -13557120.83247  21328254.016    21328263.4134
  23458844.039    -8111301.183 8  -6300214.24046  23458845.612    23458856.1434
  21667707.983   -17644121.641 9 -13734416.23047  21667710.952    21667720.8904
  19969063.667   -25793367.848 9 -20052301.76848  19969064.549    19969073.2014
  24033655.575    -3603261.780 8  -2789900.99645  24033651.471    24033665.0064
  22708605.192   -10531746.092 8  -8184014.15446  22708607.709    22708619.3974
 00  3 23  1 53  0.0000000  0  6 17 23 06 26 24 10
  21314438.920   -17496223.310 9 -13613683.22847  21314441.317    21314450.7804
  23446755.623    -8174813.025 8  -6349703.86646  23446759.915    23446769.9114
  21679518.683   -17582070.049 9 -13686064.39047  21679518.631    21679529.0544
  19969416.007   -25791512.844 9 -20050856.29348  19969417.800    19969425.8454
  24051009.542    -3512036.472 7  -2718816.44845  24051010.796    24051024.4654
  22722377.167   -10459380.918 8  -8127625.75946  22722377.992    22722389.3724
 00  3 23  1 53 30.0000000  0  6 17 23 06 26 24 10
  21300665.738   -17568604.510 9 -13670084.09847  21300667.498    21300677.2114
  23434698.732    -8238201.428 8  -6399097.29046  23434695.557    23434707.9684
  21691405.182   -17519574.376 8 -13637366.52047  21691410.594    21691421.4284
  19969882.696   -25789045.435 9 -20048933.62448  19969886.743    19969895.0484
  24068398.965    -3420624.899 7  -2647586.79345  24068405.349    24068421.7704
  22736158.899   -10386954.962 8  -8071189.99946  22736161.038    22736171.4854
 00  3 23  1 54  0.0000000  0  6 17 23 06 26 24 10
  21286938.771   -17640742.084 9 -13726295.13247  21286939.959    21286949.8494
  23422652.355    -8301474.295 8  -6448400.69546  23422655.260    23422668.0814
  21703388.151   -17456629.168 8 -13588318.36047  21703389.129    21703399.7124
  19970465.496   -25785980.931 9 -20046545.68748  19970469.709    19970478.3794
  24085838.364    -3329031.547 8  -2576215.50145  24085836.578    24085851.7944
  22749952.490   -10314461.723 8  -8014701.82746  22749955.897    22749966.7764
 00  3 23  1 54 30.0000000  0  6 17 23 06 26 24 10
  21273263.327   -17712594.230 9 -13782283.74647  21273266.878    21273276.1404
  23410632.705    -8364643.770 8  -6497623.55446  23410635.768    23410647.5354
  21715450.708   -17393238.313 9 -13538922.94447  21715452.953    21715462.7454
  19971162.678   -25782330.047 9 -20043700.82448  19971164.784    19971173.1504
  24103293.052    -3237266.811 7  -2504710.66345  24103297.787    24103313.2814
  22763768.086   -10241885.051 8  -7958148.63146  22763767.182    22763777.6184
 00  3 23  1 55  0.0000000  0  6 17 23 06 26 24 10
  21259644.478   -17784163.923 9 -13838052.28347  21259647.741    21259657.0504
  23398635.206    -8427711.430 8  -6546767.06546  23398633.435    23398645.9424
  21727598.091   -17329404.600 9 -13489182.44547  21727599.823    21727609.6044
  19971970.898   -25778086.438 9 -20040394.09848  19971972.511    19971980.7194
  24120788.954    -3145324.314 7  -2433067.29245  24120794.729    24120809.5654
  22777598.147   -10169224.172 8  -7901529.82846  22777593.680    22777604.7544
 00  3 23  1 55 30.0000000  0  6 17 23 06 26 24 10
  21246079.020   -17855447.968 9 -13893598.22847  21246082.108    21246091.7064
  23386649.984    -8490662.412 8  -6595819.63546  23386654.104    23386666.0424
  21739830.479   -17265116.714 8 -13439088.04347  21739832.974    21739843.2724
  19972892.304   -25773242.900 9 -20036619.89248  19972894.263    19972902.7024
  24138313.663    -3053213.041 7  -2361292.39145  24138322.574    24138336.2454
  22791432.678   -10096477.388 8  -7844844.06546  22791437.364    22791447.9914
 00  3 23  1 56  0.0000000  0  6 17 23 06 26 24 10
  21232568.024   -17926438.663 9 -13948915.59747  21232573.297    21232582.7914
  23374693.864    -8553497.215 8  -6644781.68546  23374698.049    23374709.7314
  21752153.167   -17200367.571 9 -13388634.21247  21752154.992    21752164.5364
  19973926.570   -25767803.951 9 -20032381.73348  19973929.271    19973937.5594
  24155892.394    -2960933.763 7  -2289386.59445  24155882.832    24155898.9494
  22805298.636   -10023641.533 8  -7788088.90546  22805297.839    22805308.2734
 00  3 23  1 56 30.0000000  0  6 17 23 06 26 24 10
  21219111.286   -17997167.637 9 -14004029.02447  21219114.176    21219123.4054
  23362762.089    -8616215.352 8  -6693652.85246  23362763.028    23362775.2024
  21764558.823   -17135178.343 9 -13337837.45947  21764560.279    21764569.7064
  19975076.729   -25761758.258 9 -20027670.78648  19975079.454    19975087.9474
  24173469.762    -2868490.510 7  -2217353.06145  24173472.430    24173490.1914
  22819173.325    -9950709.448 8  -7731258.77646  22819175.259    22819187.2294
 00  3 23  1 57  0.0000000  0  6 17 23 06 26 24 10
  21205700.562   -18067653.539 9 -14058953.04547  21205701.335    21205710.6194
  23350847.891    -8678811.849 8  -6742429.22246  23350850.118    23350862.0644
  21777048.977   -17069555.463 9 -13286702.78447  21777048.224    21777057.3384
  19976342.481   -25755100.147 9 -20022482.62348  19976346.688    19976354.7444
  24191091.740    -2775880.751 7  -2145189.72045  24191096.363    24191112.6144
  22833067.628    -9877689.493 8  -7674360.18346  22833070.450    22833081.7244
 00  3 23  1 57 30.0000000  0  6 17 23 06 26 24 10
  21192335.037   -18137872.036 9 -14113668.69247  21192338.826    21192348.6174
  23338958.938    -8741293.940 8  -6791116.41846  23338961.201    23338972.5354
  21789614.408   -17003496.815 9 -13235228.56247  21789618.705    21789628.0394
  19977728.404   -25747830.275 9 -20016817.76948  19977730.344    19977738.1064
  24208750.981    -2683108.038 7  -2072899.41545  24208751.389    24208768.2074
  22846975.353    -9804583.745 8  -7617394.71546  22846982.949    22846993.1264
 00  3 23  1 58  0.0000000  0  6 17 23 06 26 24 10
  21179026.191   -18207820.409 9 -14168173.87047  21179028.389    21179037.8934
  23327090.056    -8803666.601 8  -6839718.37646  23327091.216    23327103.3954
  21802268.672   -16937018.676 8 -13183427.48147  21802268.469    21802279.0164
  19979228.978   -25739949.429 9 -20010676.83048  19979229.993    19979237.8684
  24226441.625    -2590165.563 8  -2000476.86645  24226440.034    24226451.5864
  22860908.012    -9731397.578 8  -7560366.58246  22860909.811    22860920.0294
 00  3 23  1 58 30.0000000  0  7 09 17 23 06 26 24 10
  24579915.748     -218044.94317
  21165768.619   -18277493.321 9 -14222464.39547  21165769.796    21165779.9574
  23315239.760    -8865926.709 8  -6888232.61646  23315243.899    23315255.5234
  21814991.540   -16870125.791 8 -13131303.22247  21814997.269    21815007.5134
  19980846.634   -25731433.082 9 -20004040.69148  19980850.395    19980858.4524
  24244154.010    -2497041.194 7  -1927912.60945  24244159.303    24244173.9804
  22874852.181    -9658150.514 8  -7503290.99746  22874848.569    22874858.7664
 00  3 23  1 59  0.0000000  0  7 09 17 23 06 26 24 10
  24560176.826     -321765.918 7
  21152560.781   -18346866.606 9 -14276521.44347  21152568.061    21152578.4174
  23303417.676    -8928075.351 8  -6936659.99646  23303417.212    23303429.1894
  21827806.069   -16802798.751 8 -13078840.64247  21827809.832    21827819.7884
  19982588.902   -25722287.758 9 -19996914.44248  19982590.823    19982598.6844
  24261912.257    -2403719.931 7  -1855194.86744  24261917.531    24261933.1974
  22888797.947    -9584852.593 8  -7446175.80546  22888796.378    22888807.3954
 00  3 23  1 59 30.0000000  0  7 09 17 23 06 26 24 10
  24540445.218     -425543.539 7
  21139422.443   -18415935.059 9 -14330340.95547  21139424.973    21139434.3794
  23291607.893    -8990107.573 8  -6984996.67446  23291612.366    23291625.5144
  21840705.142   -16735033.972 8 -13026036.96247  21840705.021    21840715.5274
  19984445.488   -25712525.163 9 -19989307.21048  19984448.023    19984456.1384
  24279714.649    -2310193.633 7  -1782317.36445  24279715.109    24279730.5794
  22902751.081    -9511509.156 8  -7389025.12346  22902753.096    22902764.4814
 00  3 23  2  0  0.0000000  0  7 09 17 23 06 26 24 10
  24520678.181     -529392.217 7   -146318.69954  24520671.072    24520685.4214
  21126334.310   -18484708.445 9 -14383930.54447  21126337.343    21126347.3374
  23279832.905    -9052013.951 8  -7033235.30346  23279832.863    23279844.2034
  21853680.098   -16666830.185 8 -12972891.23647  21853683.808    21853694.0294
  19986418.447   -25702155.913 9 -19981227.25848  19986421.430    19986429.5684
  24297553.591    -2216454.599 7  -1709274.09545  24297553.820    24297568.2494
  22916721.688    -9438116.220 8  -7331835.88546  22916719.577    22916729.9574
 00  3 23  2  0 30.0000000  0  7 09 17 23 06 26 24 10
  24500884.237     -633306.804 7   -227290.96444  24500894.393    24500911.2424
  21113303.966   -18553186.325 9 -14437289.87747  21113307.156    21113316.2484
  23268070.830    -9113794.398 8  -7081375.78946  23268075.652    23268087.2714
  21866747.932   -16598173.534 9 -12919392.61147  21866749.253    21866758.8844
  19988505.099   -25691193.921 9 -19972685.42748  19988507.337    19988515.3924
  24315430.835    -2122498.902 7  -1636062.01845  24315431.196    24315450.9024
  22930693.058    -9364661.298 8  -7274598.35146  22930697.406    22930707.6214
 00  3 23  2  1  0.0000000  0  7 09 17 23 06 26 24 10
  24481094.548     -737283.753 7   -308311.74744  24481108.664    24481123.3224
  21100327.730   -18621381.328 9 -14490428.78847  21100329.820    21100339.0424
  23256342.069    -9175446.261 8  -7129416.08646  23256343.463    23256355.7234
  21879897.318   -16529067.497 8 -12865543.80247  21879899.563    21879908.5204
  19990697.039   -25679669.478 9 -19963705.32148  19990700.274    19990708.4884
  24333317.881    -2028339.125 7  -1562690.95645  24333347.951    24333367.0704
  22944688.222    -9291135.042 8  -7217305.21546  22944688.199    22944699.8044
 00  3 23  2  1 30.0000000  0  7 09 17 23 06 26 24 10
  24461306.302     -841320.018 7   -389378.82444  24461312.290    24461324.4564
  21087401.826   -18689306.544 9 -14543357.47247  21087404.071    21087413.2144
  23244636.827    -9236967.929 8  -7177354.93746  23244636.809    23244648.2894
  21893130.066   -16459530.794 8 -12811359.41847  21893131.524    21893141.8584
  19992999.528   -25667574.295 9 -19954280.48348  19993002.300    19993010.1114
  24351300.758    -1933996.346 7  -1489177.26744  24351303.867    24351319.0314
  22958692.826    -9217530.920 8  -7159951.43046  22958694.614    22958706.1704
 00  3 23  2  2  0.0000000  0  7 09 17 23 06 26 24 10
  24441514.141     -945410.044 7   -470487.73145  24441504.451    24441518.6504
  21074527.013   -18756965.590 9 -14596078.75447  21074528.519    21074537.5204
  23232949.442    -9298364.993 8  -7225196.68846  23232952.937    23232964.8314
  21906441.689   -16389580.000 8 -12756852.35947  21906442.436    21906453.1994
  19995410.307   -25654904.876 9 -19944408.19548  19995412.837    19995420.8824
  24369294.818    -1839493.510 7  -1415538.85344  24369287.008    24369300.2064
  22972721.955    -9143838.680 8  -7102528.97346  22972718.995    22972729.5574
 00  3 23  2  2 30.0000000  0  7 09 17 23 06 26 24 10
  24421662.801    -1049542.883 7   -551630.00645  24421687.922    24421703.1314
  21061698.779   -18824362.365 9 -14648595.66647  21061703.226    21061713.1764
  23221294.670    -9359632.736 8  -7272937.68646  23221294.301    23221305.7324
  21919826.043   -16319232.081 8 -12702035.86747  21919829.992    21919840.2394
  19997930.239   -25641654.713 9 -19934083.38048  19997933.931    19997942.5874
  24387293.356    -1744848.920 7  -1341790.01245  24387299.698    24387312.5104
  22986755.898    -9070067.181 8  -7045044.74746  22986756.712    22986767.2334
 00  3 23  2  3  0.0000000  0  7 09 17 23 06 26 24 10
  24401880.079    -1153719.367 7   -632806.32345  24401863.670    24401879.5444
  21048925.307   -18891493.216 9 -14700905.36247  21048928.916    21048938.3774
  23209654.933    -9420771.059 8  -7320577.82646  23209659.406    23209670.3364
  21933285.021   -16248504.622 8 -12646923.62847  21933288.694    21933298.9114
  20000564.160   -25627817.901 9 -19923301.42648  20000566.892    20000575.9874
  24405322.231    -1650066.620 7  -1267933.81045  24405334.600    24405349.9864
  23000803.860    -8996224.350 8  -6987504.94646  23000809.227    23000819.5764
 00  3 23  2  3 30.0000000  0  6 09 17 23 06 26 10
  24382024.733    -1257933.299 7   -714011.81645  24382032.921    24382048.6074
  21036202.582   -18958348.106 9 -14753000.03647  21036206.687    21036216.0784
  23198045.184    -9481786.974 8  -7368122.59046  23198047.675    23198059.6724
  21946813.454   -16177404.348 8 -12591520.87047  21946818.743    21946829.3454
  20003310.067   -25613384.376 9 -19912054.50648  20003313.602    20003322.1694
  23014870.710    -8922305.779 8  -6929906.12846  23014875.616    23014886.8394
 00  3 23  2  4  0.0000000  0  6 09 17 23 06 26 10
  24362190.181    -1362161.357 7   -795228.34145  24362198.508    24362211.7924
  21023536.428   -19024917.999 9 -14804872.62447  21023539.359    21023548.3224
  23186457.985    -9542682.348 8  -7415573.43246  23186460.609    23186472.0114
  21960418.990   -16105929.138 8 -12535825.96447  21960420.585    21960430.4904
  20006170.980   -25598366.001 9 -19900351.85848  20006171.802    20006179.9804
  23028955.029    -8848324.300 8  -6872258.29446  23028953.030    23028964.7134
 00  3 23  2  4 30.0000000  0  6 09 17 23 06 26 10
  24342363.511    -1466401.988 7   -876454.59745  24342361.594    24342376.9834
  21010925.570   -19091190.390 9 -14856513.38947  21010927.895    21010936.6434
  23174890.751    -9603467.791 8  -7462938.60546  23174894.246    23174905.0714
  21974092.605   -16034065.704 8 -12479828.54647  21974095.407    21974106.1594
  20009137.070   -25582761.021 9 -19888192.12648  20009141.447    20009149.3014
  23043037.245    -8774290.705 8  -6814569.85846  23043041.683    23043053.0144
 00  3 23  2  5  0.0000000  0  6 09 17 23 06 26 10
  24322524.458    -1570657.459 7   -957692.42345  24322523.475    24322537.0504
  20998373.337   -19157153.271 9 -14907912.97847  20998375.799    20998384.4234
  23163342.597    -9664159.336 8  -7510230.60446  23163344.559    23163356.4514
  21987845.088   -15961796.783 8 -12423515.17347  21987847.583    21987858.5364
  20012220.644   -25566570.981 9 -19875576.49748  20012222.466    20012230.0104
  23057139.633    -8700198.620 8  -6756835.83846  23057140.718    23057152.1574
 00  3 23  2  5 30.0000000  0  6 09 17 23 06 26 10
  24302671.436    -1674919.806 7  -1038935.58345  24302681.559    24302695.5354
  20985884.419   -19222785.056 9 -14959054.57748  20985886.464    20985895.3994
  23151807.155    -9724755.480 8  -7557448.28346  23151813.423    23151824.0964
  22001675.232   -15889110.529 8 -12366876.61047  22001679.047    22001690.8114
  20015411.705   -25549795.759 9 -19862504.88048  20015414.312    20015422.5304
  23071246.483    -8626047.945 8  -6699056.15546  23071251.088    23071261.4364
 00  3 23  2  6  0.0000000  0  6 09 17 23 06 26 10
  24282845.470    -1779197.252 7  -1120190.52945  24282838.385    24282852.8464
  20973464.020   -19288063.707 9 -15009921.00448  20973464.012    20973473.6474
  23140302.035    -9785256.435 8  -7604591.77046  23140300.602    23140311.3854
  22015591.581   -15815995.017 8 -12309903.55547  22015592.506    22015603.4824
  20018713.511   -25532442.122 9 -19848982.54948  20018716.749    20018725.0214
  23085370.346    -8551840.860 8  -6641232.50746  23085372.463    23085383.4304
 00  3 23  2  6 30.0000000  0  6 09 17 23 06 26 10
  24262975.893    -1883510.975 7  -1201473.81145  24262987.085    24263001.5184
  20961107.106   -19352987.495 9 -15060510.91048  20961109.814    20961118.6034
  23128800.235    -9845662.467 8  -7651661.31546  23128804.993    23128816.8874
  22029589.877   -15742446.045 8 -12252592.74947  22029589.084    22029599.1254
  20022127.975   -25514502.041 9 -19835003.25548  20022130.474    20022138.7074
  23099510.088    -8477558.014 8  -6583349.82146  23099508.763    23099518.4654
 00  3 23  2  7  0.0000000  0  6 09 17 23 06 26 10
  24243137.463    -1987850.835 7  -1282777.37045  24243132.096    24243147.0254
  20948822.034   -19417555.506 9 -15110823.60848  20948822.035    20948831.5624
  23117326.899    -9905960.174 8  -7698646.42846  23117330.946    23117341.6994
  22043661.287   -15668474.206 8 -12194952.41147  22043664.822    22043675.3214
  20025654.690   -25495972.964 9 -19820564.99548  20025656.748    20025664.8384
  23113654.894    -8403194.989 8  -6525404.65346  23113659.122    23113670.3624
 00  3 23  2  7 30.0000000  0  6 09 17 23 06 26 10
  24223262.520    -2092211.394 7  -1364097.11745  24223273.374    24223287.2564
  20936599.981   -19481767.573 9 -15160858.93148  20936602.821    20936612.5944
  23105880.652    -9966142.716 8  -7745541.80846  23105878.888    23105889.6614
  22057816.614   -15594101.354 8 -12136999.62547  22057817.843    22057827.8554
  20029291.085   -25476858.637 9 -19805670.70748  20029293.809    20029301.9484
  23127820.280    -8328766.291 8  -6467408.34946  23127822.089    23127833.7254
 00  3 23  2  8  0.0000000  0  6 09 17 23 06 26 10
  24203414.254    -2196591.934 7  -1445432.42845  24203408.722    24203424.8624
  20924442.406   -19545660.387 9 -15210645.49348  20924444.449    20924453.8304
  23094444.932   -10026214.749 8  -7792351.08246  23094447.564    23094457.8694
  22072041.106   -15519351.683 8 -12078753.19247  22072042.937    22072053.3444
  20033039.380   -25457162.527 9 -19790323.07648  20033041.910    20033049.9574
  23142000.835    -8254273.919 8  -6409362.40946  23141998.678    23142008.2394
 00  3 23  2  8 30.0000000  0  6 09 17 23 06 26 10
  24183547.211    -2300981.919 7  -1526775.06545  24183543.799    24183558.7034
  20912338.432   -19609254.426 9 -15260199.24648  20912342.886    20912352.1684
  23083035.921   -10086172.365 8  -7839071.20746  23083037.789    23083048.7854
  22086332.000   -15444244.899 8 -12020228.49747  22086335.406    22086345.6764
  20036899.326   -25436882.672 9 -19774520.57948  20036901.123    20036909.5374
  23156179.845    -8179728.703 8  -6351275.26646  23156183.763    23156194.5734
 00  3 23  2  9  0.0000000  0  6 09 17 23 06 26 10
  24163678.798    -2405367.027 8  -1608113.93345  24163682.015    24163694.3184
  20900297.209   -19672543.556 9 -15309515.40248  20900299.475    20900308.9854
  23071646.136   -10146003.541 8  -7885692.79246  23071651.994    23071663.6964
  22100687.872   -15368801.859 8 -11961441.78247  22100691.420    22100701.3834
  20040866.376   -25416030.941 9 -19758272.47448  20040869.307    20040877.4714
  23170373.770    -8105143.919 8  -6293157.30446  23170376.054    23170387.5854
 00  3 23  2  9 30.0000000  0  6 09 17 23 06 26 10
  24143817.416    -2509751.638 8  -1689452.39045  24143817.275    24143831.9774
  20888309.403   -19735534.560 9 -15358599.25348  20888312.546    20888322.0004
  23060289.355   -10205711.278 8  -7932218.22046  23060289.577    23060300.8994
  22115104.784   -15293038.300 8 -11902405.31347  22115108.162    22115118.4714
  20044939.175   -25394621.113 9 -19741589.47348  20044943.305    20044951.1194
  23184578.913    -8030518.714 8  -6235007.86346  23184577.058    23184588.1784
 00  3 23  2 10  0.0000000  0  6 09 17 23 06 26 10
  24123951.278    -2614135.334 8  -1770790.19445  24123954.784    24123968.0394
  20876377.822   -19798230.959 9 -15407453.53648  20876381.860    20876391.2694
  23048946.127   -10265301.327 8  -7978651.91346  23048949.668    23048962.0174
  22129584.637   -15216953.349 8 -11843118.40447  22129587.083    22129597.7804
  20049120.728   -25372660.113 9 -19724476.99848  20049122.628    20049130.4174
  23198787.271    -7955837.452 8  -6176814.74146  23198789.128    23198798.8194
 00  3 23  2 10 30.0000000  0  6 09 17 23 06 26 10
  24104090.535    -2718515.539 8  -1852125.20545  24104089.129    24104103.7614
  20864511.255   -19860597.469 9 -15456050.76948  20864513.640    20864523.1244
  23037633.036   -10324765.129 8  -8024987.23846  23037634.246    23037646.1704
  22144127.069   -15140531.011 8 -11783568.61347  22144130.182    22144140.1384
  20053406.772   -25350139.758 9 -19706928.65848  20053408.039    20053416.2804
  23213003.770    -7881100.681 8  -6118578.34546  23213009.343    23213020.4994
 00  3 23  2 11  0.0000000  0  6 09 17 23 06 26 10
  24084227.602    -2822893.848 8  -1933458.79645  24084228.238    24084241.5064
  20852705.657   -19922629.008 9 -15504386.98548  20852709.350    20852718.9334
  23026339.549   -10384113.308 8  -8071232.49146  23026340.433    23026351.7704
  22158737.389   -15063773.079 8 -11723757.31347  22158736.863    22158747.3144
  20057795.925   -25327066.990 9 -19688949.87448  20057798.289    20057806.2214
  23227244.131    -7806295.024 8  -6060288.29046  23227244.773    23227255.7034
 00  3 23  2 11 30.0000000  0  6 09 17 23 06 26 10
  24064365.427    -2927275.118 8  -2014794.68545  24064365.532    24064378.2594
  20840964.435   -19984330.584 9 -15552466.10748  20840968.312    20840977.1684
  23015061.936   -10443362.742 8  -8117400.78746  23015065.522    23015076.8684
  22173406.379   -14986671.061 8 -11663677.89047  22173409.147    22173419.2844
  20062291.210   -25303445.485 9 -19670543.49548  20062293.396    20062301.5044
  23241492.161    -7731416.770 8  -6001941.67746  23241494.754    23241506.5014
 00  3 23  2 12  0.0000000  0  6 09 17 23 06 26 10
  24044497.506    -3031656.197 8  -2096130.42845  24044501.920    24044515.8284
  20829286.529   -20045697.565 9 -15600284.48148  20829289.959    20829299.7544
  23003811.240   -10502512.276 8  -8163491.23246  23003809.616    23003821.2714
  22188146.717   -14909199.338 8 -11603310.38546  22188150.609    22188162.0554
  20066892.490   -25279263.889 9 -19651700.68048  20066894.901    20066903.1614
  23255756.631    -7656461.653 8  -5943535.15146  23255757.971    23255770.7104
 00  3 23  2 12 30.0000000  0  6 09 17 23 06 26 10
  24024642.636    -3136027.945 8  -2177458.89745  24024640.171    24024653.5744
  20817673.606   -20106720.657 9 -15647834.89348  20817677.929    20817687.6544
  22992571.728   -10561553.759 8  -8209497.48146  22992574.165    22992584.8604
  22202960.436   -14831353.261 8 -11542651.19646  22202964.288    22202975.1354
  20071601.440   -25254515.017 9 -19632415.84148  20071604.671    20071612.5794
  23270032.177    -7581428.585 8  -5885067.90246  23270035.614    23270049.2014
 00  3 23  2 13  0.0000000  0  6 09 17 23 06 26 10
  24004774.574    -3240379.135 8  -2258771.34545  24004781.782    24004796.6724
  20806127.213   -20167407.545 9 -15695123.34848  20806129.625    20806138.9934
  22981356.403   -10620492.941 8  -8255424.01546  22981357.816    22981370.9584
  22217849.422   -14753133.511 8 -11481700.82746  22217849.588    22217860.0624
  20076418.748   -25229207.500 9 -19612695.68848  20076420.581    20076428.4464
  23284321.583    -7506319.577 8  -5826541.50446  23284328.492    23284341.3804
 00  3 23  2 13 30.0000000  0  6 09 17 23 06 26 10
  23984932.116    -3344696.185 8  -2340057.18345  23984931.323    23984944.6384
  20794645.432   -20227746.308 9 -15742140.53248  20794647.553    20794656.9924
  22970164.577   -10679312.569 8  -8301257.41246  22970165.789    22970176.9954
  22232804.167   -14674527.640 8 -11420449.56846  22232807.240    22232818.3124
  20081343.167   -25203327.334 9 -19592529.31348  20081345.513    20081353.5884
  23298638.788    -7431138.541 8  -5767958.96446  23298635.242    23298646.8184
 00  3 23  2 14  0.0000000  0  6 09 17 23 06 26 10
  23965088.403    -3448960.970 8  -2421302.28546  23965090.498    23965104.5944
  20783234.735   -20287717.159 9 -15788871.03248  20783235.888    20783245.1764
  22958994.757   -10738006.122 8  -8346992.55846  22958996.887    22959007.3634
  22247840.658   -14595532.939 8 -11358895.33146  22247839.152    22247850.9094
  20086378.699   -25176865.236 9 -19571909.49148  20086381.052    20086389.1764
  23312956.307    -7355886.319 8  -5709320.95246  23312956.636    23312967.9284
 00  3 23  2 14 30.0000000  0  6 09 17 23 06 26 10
  23945257.094    -3553158.603 8  -2502495.05246  23945262.690    23945275.6174
  20771893.430   -20347304.303 9 -15835302.53848  20771896.317    20771906.0624
  22947849.262   -10796577.350 8  -8392632.38046  22947850.402    22947861.9734
  22262938.973   -14516169.430 8 -11297053.71747  22262942.884    22262953.4934
  20091523.421   -25149827.693 9 -19550841.26548  20091526.144    20091534.0264
  23327286.337    -7280571.329 8  -5650634.02246  23327288.675    23327300.8974
 00  3 23  2 15  0.0000000  0  6 09 17 23 06 26 10
  23925447.449    -3657296.476 8  -2583641.27545  23925445.006    23925459.2314
  20760626.621   -20406511.438 9 -15881437.93548  20760629.706    20760638.9194
  22936725.704   -10855027.408 8  -8438177.76746  22936727.124    22936739.2094
  22278110.877   -14436451.454 8 -11234935.89647  22278112.657    22278124.0644
  20096775.856   -25122225.275 9 -19529332.88548  20096778.715    20096786.3214
  23341627.077    -7205204.620 8  -5591906.80346  23341630.465    23341642.2134
 00  3 23  2 15 30.0000000  0  6 09 17 23 06 26 10
  23905627.757    -3761380.563 8  -2664745.59145  23905638.251    23905651.0104
  20749432.525   -20465342.710 9 -15927280.46248  20749434.571    20749443.3034
  22925623.948   -10913358.421 8  -8483630.38246  22925627.404    22925639.4204
  22293343.326   -14356400.976 8 -11172559.00347  22293345.566    22293356.8034
  20102138.199   -25094056.322 9 -19507383.04448  20102138.822    20102146.6194
  23355984.115    -7129786.440 8  -5533139.49246  23355981.975    23355993.8734
 00  3 23  2 16  0.0000000  0  6 09 17 23 06 26 10
  23885838.717    -3865417.848 8  -2745813.42045  23885840.801    23885853.7144
  20738308.301   -20523802.131 9 -15972833.24148  20738310.747    20738318.8124
  22914542.239   -10971591.579 8  -8529006.78146  22914545.482    22914556.7924
  22308637.929   -14276026.290 8 -11109929.45846  22308640.851    22308651.7614
  20107600.481   -25065336.289 9 -19485003.79748  20107603.748    20107611.7604
  23370337.892    -7054324.620 8  -5474338.15246  23370341.237    23370353.0844
 00  3 23  2 16 30.0000000  0  6 09 17 23 06 26 10
  23866054.451    -3969422.780 8  -2826856.03345  23866049.318    23866061.9634
  20727251.453   -20581898.927 9 -16018103.44448  20727254.808    20727263.2974
  22903483.464   -11029724.790 8  -8574305.29146  22903483.391    22903493.8824
  22323990.050   -14195339.084 8 -11047056.39346  22323994.828    22324005.1544
  20113168.307   -25036075.839 9 -19462203.43548  20113171.867    20113180.1314
  23384706.833    -6978822.618 8  -5415505.50146  23384709.180    23384720.5674
 00  3 23  2 17  0.0000000  0  6 09 17 23 06 26 10
  23846255.184    -4073399.271 7  -2907876.48245  23846262.813    23846276.1344
  20716263.292   -20639649.731 9 -16063104.03048  20716265.361    20716274.3024
  22892438.155   -11087757.494 8  -8619525.47946  22892440.467    22892451.1604
  22339408.093   -14114333.141 8 -10983934.95646  22339409.656    22339420.4844
  20118840.254   -25006273.001 9 -19438980.44848  20118843.307    20118851.4694
  23399083.076    -6903277.911 8  -5356639.57246  23399085.097    23399096.6564
 00  3 23  2 17 30.0000000  0  6 09 17 23 06 26 10
  23826489.514    -4177336.129 8  -2988866.03945  23826483.960    23826497.4444
  20705341.564   -20697045.952 9 -16107828.31448  20705343.363    20705351.8864
  22881415.581   -11145691.709 8  -8664668.91646  22881415.932    22881426.3304
  22354882.304   -14033007.468 8 -10920564.38346  22354885.522    22354895.9664
  20124616.954   -24975924.628 9 -19415332.36948  20124618.346    20124626.3054
  23413472.764    -6827676.179 8  -5297729.23146  23413470.924    23413483.1834
 00  3 23  2 18  0.0000000  0  6 09 17 23 06 26 10
  23806717.328    -4281226.240 8  -3069819.20745  23806715.752    23806727.7724
  20694487.710   -20754082.786 9 -16152272.56548  20694489.617    20694498.3614
  22870410.344   -11203516.524 8  -8709727.09946  22870412.251    22870423.0224
  22370422.572   -13951354.985 8 -10856939.16746  22370423.503    22370434.2344
  20130493.525   -24945036.402 9 -19391263.62048  20130496.490    20130503.9954
  23427874.747    -6752015.639 8  -5238773.08546  23427869.837    23427880.4514
 00  3 23  2 18 30.0000000  0  6 09 17 23 06 26 10
  23786964.595    -4385059.782 8  -3150728.27445  23786956.273    23786968.7714
  20683699.653   -20810766.113 9 -16196441.34848  20683702.233    20683711.4484
  22859431.885   -11261217.909 8  -8754689.11546  22859432.032    22859442.8114
  22386018.935   -13869386.511 8 -10793067.71346  22386021.726    22386032.3624
  20136473.404   -24913609.727 9 -19366775.30848  20136476.348    20136484.7844
  23442281.730    -6676297.885 8  -5179772.30846  23442277.860    23442289.3454
 00  3 23  2 19  0.0000000  0  6 09 17 23 06 26 10
  23767207.488    -4488822.798 8  -3231582.40545  23767210.330    23767223.4774
  20672980.050   -20867098.863 9 -16240336.95448  20672982.650    20672991.7124
  22848468.235   -11318802.036 8  -8799559.76446  22848473.617    22848484.9464
  22401676.184   -13787105.940 8 -10728953.06146  22401678.667    22401690.1484
  20142555.897   -24881642.722 9 -19341865.95348  20142559.615    20142567.7004
  23456693.810    -6600520.956 8  -5120725.43146  23456697.547    23456709.1554
 00  3 23  2 19 30.0000000  0  6 09 17 23 06 26 10
  23747474.067    -4592513.018 8  -3312379.79745  23747477.694    23747492.0544
  20662329.058   -20923066.616 9 -16283948.15948  20662332.290    20662341.6194
  22837538.968   -11376273.171 8  -8844342.35246  22837537.380    22837548.8134
  22417394.008   -13704520.815 8 -10664601.12346  22417394.967    22417405.7744
  20148740.428   -24849148.074 9 -19316545.45348  20148743.268    20148751.1994
  23471123.482    -6524690.502 8  -5061636.89146  23471128.076    23471139.5374
 00  3 23  2 20  0.0000000  0  6 09 17 23 06 26 10
  23727767.172    -4696123.656 8  -3393115.24545  23727762.766    23727775.3054
  20651748.306   -20978671.834 9 -16327276.86248  20651750.937    20651759.8714
  22826613.208   -11433642.090 8  -8889045.30746  22826620.290    22826631.5304
  22433167.378   -13621615.405 8 -10599999.59346  22433172.328    22433181.6864
  20155022.791   -24816132.153 9 -19290818.76448  20155026.242    20155034.0694
  23485566.471    -6448818.695 8  -5002516.09446  23485565.951    23485577.8534
 00  3 23  2 20 30.0000000  0  6 09 17 23 06 26 10
  23708059.863    -4799649.826 8  -3473784.83246  23708061.515    23708074.6624
  20641237.383   -21033905.563 9 -16370316.08148  20641240.437    20641249.5874
  22815718.405   -11490918.439 8  -8933676.12446  22815721.376    22815732.1234
  22449008.633   -13538395.185 8 -10535152.75746  22449007.819    22449018.7044
  20161406.944   -24782587.886 9 -19264680.37148  20161409.527    20161417.4444
  23500016.295    -6372896.125 8  -4943355.75746  23500014.487    23500025.2434
 00  3 23  2 21  0.0000000  0  6 09 17 23 06 26 10
  23688371.872    -4903091.196 8  -3554388.33146  23688376.152    23688389.8074
  20630797.341   -21088762.181 9 -16413061.44848  20630801.303    20630810.5874
  22804841.461   -11548097.725 8  -8978231.33346  22804840.255    22804850.6124
  22464904.357   -13454862.895 8 -10470062.74346  22464903.195    22464913.8434
  20167892.061   -24748505.915 9 -19238122.99448  20167894.836    20167902.8964
  23514472.618    -6296905.230 8  -4884142.14346  23514474.731    23514486.1364
 00  3 23  2 21 30.0000000  0  6 09 17 23 06 26 10
  23668706.264    -5006449.902 8  -3634927.44246  23668708.005    23668722.4344
  20620433.115   -21143242.060 9 -16455513.26248  20620434.185    20620443.4814
  22793975.951   -11605169.839 8  -9022703.00046  22793978.992    22793991.1164
  22480859.099   -13371020.368 8 -10404731.02146  22480858.650    22480868.5314
  20174480.757   -24713890.666 9 -19211150.07148  20174481.908    20174489.7624
  23528945.362    -6220840.366 8  -4824870.93346  23528949.470    23528961.5414
 00  3 23  2 22  0.0000000  0  6 09 17 23 06 26 10
  23649055.272    -5109726.929 8  -3715402.90446  23649056.051    23649069.2594
  20610137.476   -21197341.699 9 -16497668.78348  20610139.430    20610148.7614
  22783139.604   -11662128.400 8  -9067086.18847  22783140.725    22783152.2964
  22496869.373   -13286885.307 8 -10339171.30746  22496868.933    22496879.3994
  20181165.658   -24678739.174 9 -19183759.29748  20181170.933    20181178.7624
  23543433.911    -6144697.260 8  -4765538.73746  23543439.751    23543450.1544
 00  3 23  2 22 30.0000000  0  6 09 17 23 06 26 10
  23629419.641    -5212933.735 8  -3795823.65546  23629416.038    23629428.6434
  20599915.241   -21251056.843 9 -16539524.70048  20599917.610    20599926.8844
  22772325.123   -11718961.742 8  -9111371.82947  22772325.481    22772336.1474
  22512926.294   -13202484.280 8 -10273404.35546  22512929.818    22512940.4324
  20187959.138   -24643050.962 9 -19155950.30348  20187962.090    20187970.2614
  23557946.639    -6068477.043 8  -4706146.45446  23557943.656    23557955.0234
 00  3 23  2 23  0.0000000  0  6 09 17 23 06 26 10
  23609780.170    -5316078.998 8  -3876196.42246  23609786.747    23609800.8044
  20589766.828   -21304389.661 9 -16581082.70648  20589768.797    20589778.0034
  22761532.595   -11775675.681 8  -9155564.41647  22761533.203    22761543.4064
  22529036.563   -13117816.326 8 -10207429.41046  22529041.948    22529052.9044
  20194849.710   -24606848.630 9 -19127740.69448  20194851.273    20194859.0264
  23572454.376    -5992194.784 8  -4646705.86645  23572458.557    23572470.0064
 00  3 23  2 23 30.0000000  0  6 09 17 23 06 26 10
  23590171.235    -5419167.950 8  -3956525.31746  23590170.477    23590183.8224
  20579691.780   -21357322.304 9 -16622328.88648  20579695.918    20579704.9234
  22750762.012   -11832286.748 8  -9199676.84047  22750761.355    22750770.7134
  22545202.781   -13032880.807 8 -10141245.99046  22545204.133    22545216.2784
  20201834.050   -24570142.796 9 -19099138.75048  20201836.150    20201844.0914
  23586984.171    -5915869.481 8  -4587231.70845  23586984.279    23586994.5084
 00  3 23  2 24  0.0000000  0  6 09 17 23 06 26 10
  23570569.694    -5522194.898 8  -4036805.92546  23570565.276    23570577.9664
  20569702.078   -21409833.307 9 -16663246.51248  20569703.960    20569712.3144
  22740001.746   -11888801.892 8  -9243714.52447  22740006.182    22740016.6044
  22561417.723   -12947676.811 8 -10074853.37746  22561417.960    22561428.4154
  20208913.945   -24532928.093 9 -19070140.28448  20208918.022    20208925.9824
  23601512.900    -5839509.772 8  -4527730.74046  23601514.750    23601526.7944
 00  3 23  2 24 30.0000000  0  6 09 17 23 06 26 10
  23550963.066    -5625144.767 8  -4117026.43946  23550974.258    23550987.5774
  20559787.861   -21461926.556 9 -16703838.61248  20559790.725    20559799.2404
  22729269.207   -11945213.759 8  -9287671.73947  22729271.386    22729281.2204
  22577688.192   -12862184.084 8 -10008235.77046  22577687.087    22577697.5034
  20216097.472   -24495197.806 9 -19040740.06748  20216097.969    20216105.6944
  23616045.266    -5763116.419 8  -4468203.57245  23616050.850    23616064.2744
 00  3 23  2 25  0.0000000  0  6 09 17 23 06 26 10
  23531402.965    -5727999.448 8  -4197172.80646  23531401.163    23531414.4454
  20549955.832   -21513591.446 9 -16744096.93948  20549959.511    20549967.6504
  22718552.892   -12001521.265 8  -9331547.62947  22718555.477    22718566.7024
  22594007.028   -12776393.121 8  -9941385.75946  22594012.347    22594022.4394
  20223371.929   -24456954.618 9 -19010940.17948  20223375.064    20223383.3424
  23630586.820    -5686684.288 8  -4408646.20745  23630596.302    23630608.6564
 00  3 23  2 25 30.0000000  0  6 09 17 23 06 26 10
  23511845.741    -5830744.182 8  -4277233.49546  23511849.552    23511861.9554
  20540208.342   -21564819.797 9 -16784015.09548  20540210.627    20540219.3764
  22707865.719   -12057714.909 8  -9375334.79847  22707862.445    22707873.9254
  22610392.889   -12690309.180 8  -9874307.46146  22610392.563    22610405.3364
  20230748.636   -24418189.185 9 -18980733.36348  20230752.206    20230760.0284
  23645145.696    -5610206.853 8  -4349053.48245  23645150.324    23645160.9274
 00  3 23  2 26  0.0000000  0  6 09 17 23 06 26 10
  23492325.755    -5933350.571 8  -4357186.36146  23492323.277    23492336.3224
  20530542.251   -21615618.286 9 -16823598.30748  20530543.728    20530552.5704
  22697187.610   -12113779.580 8  -9419021.46347  22697193.181    22697204.3424
  22626828.666   -12603925.591 8  -9806995.69046  22626831.767    22626843.0014
  20238222.322   -24378910.681 9 -18950126.74148  20238226.724    20238234.4714
  23659713.330    -5533676.997 8  -4289419.90545  23659713.079    23659725.0204
 00  3 23  2 26 30.0000000  0  6 09 17 23 06 26 10
  23472833.413    -6035815.004 8  -4437028.63746  23472825.830    23472837.9574
  20520953.437   -21666003.631 9 -16862859.58948  20520955.613    20520964.8534
  22686544.239   -12169725.023 8  -9462615.23747  22686546.958    22686558.2414
  22643323.519   -12517251.042 8  -9739457.15746  22643326.091    22643337.1704
  20245795.337   -24339129.872 9 -18919128.71448  20245796.411    20245804.5164
  23674287.644    -5457093.964 8  -4229744.95245  23674284.332    23674298.4244
 00  3 23  2 27  0.0000000  0  6 09 17 23 06 26 10
  23453348.853    -6138153.860 8  -4516773.04146  23453350.753    23453363.2424
  20511444.520   -21715972.815 9 -16901796.58948  20511447.131    20511455.7524
  22675921.270   -12225563.350 8  -9506125.53147  22675922.436    22675932.1434
  22659871.457   -12430307.103 8  -9671708.73046  22659871.051    22659881.9444
  20253458.541   -24298860.343 9 -18887749.86548  20253459.580    20253467.7274
  23688867.206    -5380461.712 8  -4170031.62345  23688869.172    23688880.2514
 00  3 23  2 27 30.0000000  0  6 09 17 23 06 26 10
  23433903.472    -6240365.712 8  -4596418.47945  23433901.305    23433912.1084
  20502012.260   -21765542.126 9 -16940421.99648  20502014.264    20502023.1184
  22665310.799   -12281295.144 8  -9549552.83847  22665316.645    22665326.2494
  22676459.157   -12343105.736 8  -9603759.71246  22676464.816    22676475.3494
  20261211.618   -24258099.874 9 -18855988.47348  20261216.219    20261224.1144
  23703459.106    -5303783.981 8  -4110282.82845  23703461.164    23703471.8334
 00  3 23  2 28  0.0000000  0  6 09 17 23 06 26 10
  23414467.264    -6342458.819 8  -4675971.36445  23414471.809    23414484.4294
  20492656.634   -21814714.746 9 -16978738.29348  20492657.182    20492665.4424
  22654728.400   -12336921.975 8  -9592898.34447  22654731.054    22654740.8834
  22693106.761   -12255651.470 8  -9535613.63746  22693106.587    22693117.9944
  20269064.159   -24216839.110 9 -18823837.23448  20269067.666    20269075.8454
  23718063.501    -5227065.401 8  -4050502.19245  23718060.056    23718072.0934
 00  3 23  2 28 30.0000000  0  6 09 17 23 06 26 10
  23395059.572    -6444461.835 8  -4755454.08446  23395061.755    23395074.3034
  20483372.791   -21863489.921 9 -17016744.88748  20483375.554    20483384.1274
  22644164.479   -12392448.238 8  -9636165.49947  22644164.282    22644174.3634
  22709784.932   -12167963.701 8  -9467285.61746  22709792.505    22709804.5784
  20277014.600   -24175062.550 9 -18791284.07848  20277017.262    20277025.4214
  23732665.485    -5150303.326 8  -3990687.72345  23732665.963    23732679.2584
 00  3 23  2 29  0.0000000  0  6 09 17 23 06 26 10
  23375673.510    -6546372.479 8  -4834864.84946  23375670.068    23375681.4844
  20474170.711   -21911853.517 9 -17054430.78248  20474171.920    20474180.6434
  22633617.943   -12447860.217 8  -9679343.58247  22633619.821    22633630.0604
  22726526.200   -12080036.303 8  -9398770.85346  22726525.639    22726536.5344
  20285063.742   -24132767.422 9 -18758326.83548  20285065.599    20285074.0834
  23747290.493    -5073490.430 8  -3930833.64045  23747284.551    23747294.9664
 00  3 23  2 29 30.0000000  0  6 09 17 23 06 26 10
  23356295.453    -6648176.287 8  -4914192.34946  23356296.773    23356308.4684
  20465045.602   -21959794.339 9 -17091787.23648  20465049.004    20465057.7834
  22623095.480   -12503157.914 8  -9722432.61147  22623097.154    22623107.6364
  22743303.176   -11991851.191 8  -9330055.28946  22743306.851    22743317.7344
  20293210.546   -24089952.043 9 -18724964.21448  20293213.441    20293221.3174
  23761915.404    -4996620.024 8  -3870934.71245  23761912.342    23761924.3404
 00  3 23  2 30  0.0000000  0  6 09 17 23 06 26 10
  23336940.048    -6749876.598 8  -4993439.18546  23336942.960    23336955.3924
  20456010.148   -22007295.297 9 -17128800.94448  20456009.998    20456018.4784
  22612590.010   -12558353.012 8  -9765441.69547  22612594.496    22612604.4884
  22760139.931   -11903400.283 8  -9261132.60646  22760138.872    22760149.1114
  20301456.383   -24046631.453 9 -18691207.92948  20301457.248    20301465.0314
  23776541.897    -4919693.498 8  -3810992.07945  23776549.123    23776562.7554
 00  3 23  2 30 30.0000000  0  6 09 17 23 06 26 10
  23317608.512    -6851456.332 8  -5072592.09446  23317613.131    23317625.5954
  20447047.819   -22054360.589 9 -17165475.17348  20447053.538    20447062.0884
  22602106.155   -12613454.305 8  -9808377.68947  22602108.959    22602118.5164
  22777022.214   -11814680.659 8  -9192000.56946  22777021.543    22777031.7994
  20309793.045   -24002820.767 9 -18657069.73848  20309793.972    20309802.0034
  23791196.642    -4842704.406 8  -3751000.73545  23791201.274    23791211.8914
 00  3 23  2 31  0.0000000  0  6 09 17 23 06 26 10
  23298306.636    -6952893.200 8  -5151633.68546  23298309.755    23298322.3684
  20438179.159   -22100984.102 9 -17201805.16548  20438181.767    20438190.5324
  22591637.082   -12668467.089 8  -9851244.70647  22591639.861    22591650.6844
  22793952.116   -11725688.066 8  -9122655.77546  22793956.113    22793967.4184
  20318217.186   -23958536.003 9 -18622562.14348  20318220.845    20318229.3444
  23805858.258    -4765655.031 8  -3690962.33645  23805863.465    23805874.8364
 00  3 23  2 31 30.0000000  0  6 09 17 23 06 26 10
  23279036.224    -7054177.623 8  -5230556.47846  23279036.566    23279049.2384
  20429387.944   -22147176.534 9 -17237799.23648  20429391.784    20429400.5734
  22581186.050   -12723397.059 8  -9894047.21247  22581186.906    22581196.7444
  22810938.955   -11636440.004 8  -9053111.94146  22810939.265    22810950.5444
  20326736.220   -23913782.959 9 -18587689.65048  20326736.895    20326745.1934
  23820536.006    -4688556.635 8  -3630885.74045  23820534.449    23820546.4724
 00  3 23  2 32  0.0000000  0  6 09 17 23 06 26 10
  23259790.728    -7155298.828 8  -5309352.09046  23259794.139    23259806.1294
  20420678.449   -22192951.379 9 -17273467.91848  20420680.491    20420689.6184
  22570751.329   -12778239.246 8  -9936781.31647  22570751.269    22570761.2074
  22827966.741   -11546962.827 8  -8983389.56146  22827965.733    22827977.7804
  20335341.487   -23868554.731 9 -18552446.87448  20335343.786    20335352.0044
  23835215.739    -4611410.418 8  -3570771.91845  23835214.894    23835228.5654
 00  3 23  2 32 30.0000000  0  6 09 17 23 06 26 10
  23240584.825    -7256250.305 8  -5388015.45846  23240582.803    23240594.9494
  20412044.888   -22238317.169 9 -17308817.86148  20412047.989    20412056.8214
  22560332.526   -12832975.455 8  -9979432.83647  22560334.406    22560345.5354
  22845031.176   -11457267.783 8  -8913497.44546  22845035.081    22845045.4114
  20344040.766   -23822836.742 9 -18516822.47148  20344043.567    20344051.6744
  23849903.728    -4534213.896 8  -3510618.90845  23849903.869    23849918.0864
 00  3 23  2 33  0.0000000  0  6 09 17 23 06 26 10
  23221399.081    -7357025.652 8  -5466541.56546  23221406.274    23221418.8484
  20403491.093   -22283268.957 9 -17343845.20548  20403494.025    20403502.6304
  22549938.923   -12887589.909 8 -10021989.47747  22549941.044    22549952.2754
  22862139.548   -11367361.509 8  -8843440.68846  22862143.903    22862154.5764
  20352832.506   -23776635.905 9 -18480821.82548  20352835.650    20352843.4404
  23864599.899    -4456973.423 8  -3450431.67545  23864604.253    23864615.6434
 00  3 23  2 33 30.0000000  0  6 09 17 23 06 26 10
  23202263.453    -7457626.679 8  -5544931.86646  23202262.317    23202274.3424
  20395013.503   -22327815.633 9 -17378556.86348  20395016.750    20395025.4104
  22539572.299   -12942070.184 8 -10064441.54847  22539574.044    22539584.8404
  22879292.671   -11277241.038 8  -8773217.05246  22879293.371    22879303.5794
  20361719.803   -23729944.687 9 -18444439.06748  20361720.972    20361728.8644
  23879311.636    -4379687.953 8  -3390209.28555  23879311.423    23879322.8264
 00  3 23  2 34  0.0000000  0  6 09 17 23 06 26 10
  23183141.204    -7558061.725 8  -5623192.81446  23183150.549    23183162.7714
  20386618.420   -22371937.762 9 -17412937.72148  20386620.618    20386629.4514
  22529229.951   -12996418.358 8 -10106790.68847  22529232.248    22529242.6284
  22896486.713   -11186889.178 8  -8702813.11346  22896485.900    22896497.9334
  20370696.737   -23682754.788 9 -18407667.71848  20370700.298    20370708.4304
  23894026.135    -4302348.275 8  -3329944.64645  23894029.539    23894040.9364
 00  3 23  2 34 30.0000000  0  6 09 17 23 06 26 10
  23164064.564    -7658331.681 8  -5701325.12646  23164069.521    23164081.4794
  20378306.832   -22415616.512 9 -17446973.08548  20378309.103    20378317.5484
  22518915.244   -13050633.371 8 -10149036.07147  22518915.755    22518925.5174
  22913727.297   -11096287.713 8  -8632214.67746  22913726.616    22913739.7574
  20379769.530   -23635081.848 9 -18370519.97748  20379772.714    20379780.6914
  23908749.667    -4224952.218 8  -3269636.18245  23908756.217    23908768.8674
 00  3 23  2 35  0.0000000  0  6 09 17 23 06 26 10
  23145016.400    -7758429.789 8  -5779323.53346  23145020.301    23145033.2394
  20370080.862   -22458831.809 9 -17480647.31348  20370085.191    20370093.8994
  22508620.676   -13104730.509 8 -10191189.60947  22508621.151    22508631.2954
  22931016.343   -11005433.740 8  -8561419.49246  22931016.386    22931028.0234
  20388928.789   -23586942.446 9 -18333008.76048  20388932.771    20388941.2764
  23923493.302    -4147497.025 8  -3209281.61945  23923495.041    23923507.2144
 00  3 23  2 35 30.0000000  0  6 09 17 23 06 26 10
  23126004.523    -7858375.053 8  -5857202.82746  23126002.026    23126013.8984
  20361950.365   -22501569.863 9 -17513949.66848  20361952.552    20361961.2074
  22498342.376   -13158728.149 8 -10233265.62247  22498345.031    22498355.4154
  22948350.584   -10914335.431 8  -8490433.88346  22948351.863    22948362.5014
  20398179.727   -23538333.254 9 -18295131.46848  20398182.976    20398191.3794
  23938245.417    -4069981.319 8  -3148879.90845  23938246.509    23938258.5254
 00  3 23  2 36  0.0000000  0  6 09 17 23 06 26 10
  23107010.062    -7958161.405 8  -5934958.27646  23107013.060    23107025.1694
  20353912.163   -22543809.446 9 -17546863.60248  20353914.352    20353923.1274
  22488081.801   -13212635.710 8 -10275271.43047  22488085.775    22488096.9104
  22965726.598   -10823006.193 8  -8419268.36646  22965731.908    22965743.2684
  20407519.131   -23489253.699 9 -18256887.66948  20407522.653    20407531.0434
  23953003.781    -3992421.487 8  -3088443.71645  23953005.320    23953017.1664
 00  3 23  2 36 30.0000000  0  6 09 17 23 06 26 10
  23088051.922    -8057775.844 8  -6012579.79646  23088057.344    23088069.4774
  20345968.164   -22585558.317 9 -17579395.16348  20345969.897    20345978.5324
  22477844.960   -13266443.548 8 -10317199.52347  22477847.525    22477858.1074
  22983150.168   -10731470.352 8  -8347941.85946  22983150.283    22983162.1544
  20416944.576   -23439718.450 9 -18218288.77348  20416948.774    20416957.1384
  23967765.264    -3914831.874 8  -3027984.35745  23967770.433    23967782.7254
 00  3 23  2 37  0.0000000  0  6 09 17 23 06 26 10
  23069132.593    -8157219.965 8  -6090068.60146  23069133.344    23069145.3044
  20338114.358   -22626823.863 9 -17611550.11548  20338117.458    20338125.9674
  22467623.800   -13320166.350 8 -10359061.37447  22467625.435    22467634.9124
  23000597.797   -10639757.999 8  -8276477.80546  23000602.824    23000614.5314
  20426458.863   -23389725.356 9 -18179333.11548  20426462.005    20426470.3154
  23982537.456    -3837216.632 8  -2967505.13745  23982539.978    23982553.6494
 00  3 23  2 37 30.0000000  0  6 09 17 23 06 26 10
  23050246.668    -8256494.223 8  -6167425.03246  23050241.285    23050254.4184
  20330349.340   -22667624.980 9 -17643343.16748  20330353.003    20330362.0674
  22457420.351   -13373798.421 8 -10400852.52347  22457419.100    22457427.8514
  23018088.615   -10547882.298 8  -8204886.45946  23018086.494    23018098.1654
  20436063.505   -23339259.320 9 -18140008.93448  20436065.686    20436074.0314
  23997306.602    -3759584.297 8  -2907012.53345  23997312.471    23997326.7574
 00  3 23  2 38  0.0000000  0  6 09 17 23 06 26 10
  23031387.535    -8355573.313 8  -6244629.36346  23031388.030    23031399.7864
  20322673.452   -22707972.707 9 -17674782.92248  20322674.946    20322683.8564
  22447228.280   -13427331.864 8 -10442566.81947  22447231.889    22447240.8674
  23035592.670   -10455848.840 8  -8133172.14946  23035599.300    23035610.4644
  20445755.658   -23288328.723 9 -18100322.77148  20445757.691    20445765.8584
  24012092.401    -3681926.211 8  -2846499.82645  24012091.050    24012102.6484
 00  3 23  2 38 30.0000000  0  6 09 17 23 06 26 10
  23012572.308    -8454455.579 8  -6321680.32746  23012571.395    23012582.9204
  20315076.240   -22747893.418 9 -17705889.95748  20315078.661    20315086.7954
  22437061.992   -13480768.198 8 -10484205.43947  22437063.171    22437072.5174
  23053144.939   -10363656.211 8  -8061333.84946  23053143.761    23053154.7994
  20455527.144   -23236967.146 9 -18060300.76948  20455531.084    20455539.2434
  24026880.314    -3604206.823 8  -2785939.32445  24026879.932    24026892.7834
 00  3 23  2 39  0.0000000  0  6 09 17 23 06 26 10
  22993787.391    -8553153.167 8  -6398587.40146  22993788.644    22993801.2584
  20307559.609   -22787387.870 9 -17736664.82348  20307562.807    20307571.2114
  22426907.830   -13534119.017 8 -10525777.42447  22426910.718    22426920.3434
  23070714.688   -10271292.171 8  -7989361.97946  23070718.649    23070730.4724
  20465383.571   -23185175.141 9 -18019943.36748  20465386.899    20465395.2244
  24041692.824    -3526405.689 8  -2725315.22045  24041684.870    24041699.0414
 00  3 23  2 39 30.0000000  0  6 09 17 23 06 26 10
  22975035.330    -8651663.906 8  -6475348.89546  22975043.308    22975055.3814
  20300126.712   -22826447.599 9 -17767100.94848  20300130.025    20300138.6204
  22416775.194   -13587364.925 8 -10567267.66647  22416778.136    22416787.4574
  23088337.168   -10178738.411 8  -7917242.28546  23088332.733    23088343.1594
  20475323.288   -23132955.347 9 -17979252.62448  20475324.465    20475331.9184
  24056502.166    -3448526.535 8  -2664630.28945  24056507.325    24056519.1944
 00  3 23  2 40  0.0000000  0  6 09 17 23 06 26 10
  22956326.147    -8749982.928 8  -6551960.98646  22956333.487    22956345.6114
  20292781.548   -22865055.788 9 -17797185.22348  20292783.515    20292791.8294
  22406668.739   -13640494.755 8 -10608667.46647  22406667.728    22406677.4834
  23105977.206   -10085985.238 8  -7844967.20846  23105983.062    23105993.5554
  20485333.726   -23080332.017 9 -17938247.43348  20485337.822    20485346.2714
  24071338.500    -3370558.916 8  -2603876.42345  24071343.012    24071355.0984
 00  3 23  2 40 30.0000000  0  6 09 17 23 06 26 10
  22937656.565    -8848116.929 8  -6628428.86246  22937658.437    22937670.8764
  20285519.289   -22903200.505 9 -17826908.34848  20285524.610    20285532.9634
  22396578.942   -13693507.984 8 -10649976.39847  22396579.440    22396589.9104
  23123679.451    -9993022.251 8  -7772528.60546  23123672.480    23123683.7864
  20495425.852   -23027295.622 9 -17896920.37248  20495429.964    20495437.9554
  24086188.519    -3292528.877 8  -2543073.90145  24086190.103    24086203.2724
 00  3 23  2 41  0.0000000  0  6 09 17 23 06 26 10
  22919017.771    -8946053.877 8  -6704743.20946  22919021.911    22919033.8084
  20278358.551   -22940849.152 9 -17856244.92148  20278360.032    20278368.5374
  22386512.973   -13746394.417 8 -10691186.52147  22386514.927    22386525.5364
  23141400.852    -9899855.004 8  -7699930.84846  23141401.155    23141414.3324
  20505605.573   -22973812.429 9 -17855245.15848  20505607.994    20505615.8734
  24101040.295    -3214475.508 8  -2482253.22045  24101043.036    24101056.1654
 00  3 23  2 41 30.0000000  0  6 09 17 23 06 26 10
  22900426.949    -9043775.677 8  -6780889.92846  22900426.301    22900438.0774
  20271291.053   -22977991.534 9 -17885187.00548  20271292.200    20271300.7344
  22376476.645   -13799147.091 8 -10732292.43247  22376477.256    22376486.4484
  23159166.154    -9806492.295 8  -7627180.80746  23159168.374    23159180.0664
  20515868.822   -22919880.456 9 -17813220.25148  20515870.659    20515878.9554
  24115902.090    -3136414.518 8  -2421426.57845  24115899.121    24115912.0254
 00  3 23  2 42  0.0000000  0  6 09 17 23 06 26 10
  22881872.440    -9141270.365 8  -6856859.65146  22881873.735    22881885.5484
  20264316.268   -23014634.205 9 -17913739.70348  20264319.189    20264327.9044
  22366459.937   -13851775.313 8 -10773301.36347  22366462.118    22366471.1594
  23176965.039    -9712947.706 8  -7554289.04846  23176969.258    23176981.1694
  20526219.169   -22865488.381 9 -17770836.81348  20526221.205    20526229.2014
  24130750.375    -3058343.354 8  -2360592.02245  24130756.720    24130769.2044
 00  3 23  2 42 30.0000000  0  6 09 17 23 06 26 10
  22863360.484    -9238541.657 8  -6932655.31146  22863363.221    22863374.6634
  20257437.646   -23050778.894 9 -17941904.36948  20257441.406    20257449.8104
  22356468.267   -13904293.907 9 -10814224.87847  22356468.457    22356476.8564
  23194794.398    -9619237.743 8  -7481268.39446  23194802.086    23194813.2104
  20536661.314   -22810609.306 9 -17728073.89048  20536664.170    20536672.4724
  24145617.253    -2980261.481 8  -2299749.16145  24145615.182    24145627.1494
 00  3 23  2 43  0.0000000  0  6 09 17 23 06 26 10
  22844896.528    -9335594.956 8  -7008281.12746  22844893.956    22844905.6634
  20250655.823   -23086425.918 9 -17969681.23848  20250657.620    20250666.2404
  22346488.986   -13956713.271 8 -10855071.07347  22346493.377    22346502.8844
  23212654.678    -9525374.406 8  -7408128.22046  23212663.155    23212675.3004
  20547197.675   -22755249.479 9 -17684936.37448  20547199.284    20547207.0674
  24160485.739    -2902134.947 8  -2238871.47845  24160481.104    24160493.8504
 00  3 23  2 43 30.0000000  0  6 09 17 23 06 26 10
  22826464.099    -9432445.063 8  -7083748.56846  22826464.568    22826476.2054
  20243961.065   -23121602.601 9 -17997091.61148  20243963.678    20243972.5674
  22336535.324   -14009037.122 8 -10895842.83147  22336536.190    22336545.5304
  23230550.523    -9431359.701 8  -7334870.12846  23230554.651    23230564.5934
  20557817.685   -22699422.150 9 -17641434.55648  20557822.446    20557830.8324
  24175356.056    -2823938.388 8  -2177939.18045  24175362.384    24175373.1954
 00  3 23  2 44  0.0000000  0  6 09 17 23 06 26 10
  22808067.947    -9529092.459 8  -7159058.08846  22808073.462    22808084.5564
  20237357.031   -23156312.552 9 -18024138.29948  20237358.716    20237367.2104
  22326598.747   -14061267.151 9 -10936541.48947  22326597.260    22326606.2824
  23248472.108    -9337190.285 8  -7261491.47446  23248473.956    23248486.8524
  20568532.624   -22643132.036 9 -17597572.13548  20568533.890    20568542.0354
  24190255.017    -2745668.612 8  -2116949.78045  24190255.810    24190268.8664
 00  3 23  2 44 30.0000000  0  6 09 17 23 06 26 10
  22789718.715    -9625543.896 8  -7234214.89846  22789719.258    22789730.5444
  20230841.613   -23190543.446 9 -18050811.68948  20230845.017    20230853.4044
  22316674.531   -14113411.245 9 -10977173.18047  22316674.623    22316683.9354
  23266418.937    -9242857.863 8  -7187985.80446  23266424.953    23266438.1234
  20579326.579   -22586410.703 9 -17553373.69648  20579327.784    20579336.0214
  24205168.279    -2667320.729 7  -2055899.62445  24205165.066    24205179.5854
 00  3 23  2 45  0.0000000  0  6 09 17 23 06 26 10
  22771398.935    -9721782.926 8  -7309206.19146  22771405.358    22771416.3984
  20224418.829   -23224299.869 9 -18077115.37548  20224420.918    20224429.6784
  22306765.966   -14165466.668 9 -11017735.79047  22306768.703    22306778.1574
  23284407.094    -9148352.432 8  -7114345.32646  23284408.176    23284421.0294
  20590195.211   -22529291.214 9 -17508865.01248  20590197.720    20590205.3184
  24220085.643    -2588904.555 7  -1994796.25845  24220086.853    24220101.4924
 00  3 23  2 45 30.0000000  0  6 09 17 23 06 26 10
  22753134.232    -9817786.707 8  -7384014.15746  22753134.741    22753147.5794
  20218085.859   -23257579.698 9 -18103047.68548  20218088.130    20218096.7284
  22296878.096   -14217426.133 9 -11058223.62247  22296881.235    22296890.4404
  23302419.151    -9053675.110 8  -7040570.89346  23302424.603    23302437.4414
  20601140.171   -22471779.563 9 -17464050.74548  20601141.608    20601149.3144
  24235023.685    -2510441.129 7  -1933656.07345  24235018.822    24235032.0234
 00  3 23  2 46  0.0000000  0  6 09 17 23 06 26 10
  22734911.840    -9913547.066 8  -7458632.47446  22734912.498    22734924.1394
  20211850.006   -23290353.959 9 -18128586.04048  20211851.452    20211859.9234
  22287004.866   -14269300.909 9 -11098645.43147  22287009.206    22287019.0504
  23320471.263    -8958833.076 8  -6966668.13046  23320473.125    23320484.1984
  20612155.151   -22413888.541 9 -17418940.85448  20612157.784    20612165.8744
  24249950.650    -2431940.206 8  -1872486.58445  24249958.373    24249968.1544
 00  3 23  2 46 30.0000000  0  6 09 17 23 06 26 10
  22716735.370   -10009052.920 8  -7533052.48146  22716739.675    22716750.3464
  20205709.013   -23322620.203 9 -18153728.54048  20205711.371    20205719.6974
  22277152.874   -14321087.259 9 -11138998.37147  22277155.357    22277163.9334
  23338547.585    -8863840.874 8  -6892648.35946  23338549.803    23338561.7424
  20623245.946   -22355618.481 9 -17373535.62248  20623246.688    20623254.0764
  24264915.120    -2353393.667 8  -1811281.54545  24264904.057    24264917.2134
 00  3 23  2 47  0.0000000  0  6 09 17 23 06 26 10
  22698613.550   -10104293.967 8  -7607266.14046  22698615.055    22698626.9604
  20199664.770   -23354385.909 9 -18178481.01948  20199666.591    20199675.2464
  22267319.124   -14372771.081 8 -11179271.41247  22267318.881    22267329.3794
  23356649.002    -8768709.960 8  -6818520.49646  23356653.052    23356664.0814
  20634406.903   -22296947.533 9 -17327818.01148  20634411.375    20634418.7234
  24279855.111    -2274804.436 7  -1750043.25645  24279857.354    24279874.1384
 00  3 23  2 47 30.0000000  0  6 09 17 23 06 26 10
  22680540.378   -10199277.288 8  -7681278.96346  22680539.697    22680552.5194
  20193716.898   -23385637.288 9 -18202832.71548  20193719.464    20193728.2784
  22257499.094   -14424348.478 9 -11219461.50147  22257504.243    22257514.6214
  23374781.240    -8673449.998 8  -6744292.05646  23374779.852    23374791.9974
  20645651.588   -22237858.957 9 -17281774.96348  20645655.286    20645663.1824
  24294831.167    -2196168.749 8  -1688768.88745  24294823.858    24294836.2164
 00  3 23  2 48  0.0000000  0  6 09 17 23 06 26 10
  22662513.594   -10294001.834 8  -7755090.13946  22662514.194    22662526.5304
  20187868.569   -23416372.764 9 -18226782.41548  20187870.751    20187879.3384
  22247709.337   -14475816.999 9 -11259566.77847  22247711.157    22247720.6604
  23392931.566    -8578060.815 8  -6669962.93046  23392932.718    23392944.0384
  20656978.310   -22178344.238 9 -17235399.86348  20656980.219    20656988.3904
  24309796.586    -2117479.867 7  -1627453.01545  24309797.293    24309810.2154
 00  3 23  2 48 30.0000000  0  6 09 17 23 06 26 10
  22644525.932   -10388453.138 8  -7828688.38946  22644540.196    22644552.4884
  20182115.672   -23446601.960 9 -18250337.60848  20182118.521    20182127.0304
  22237938.074   -14527158.016 8 -11299572.68047  22237939.730    22237950.4864
  23411107.656    -8482544.635 8  -6595534.82146  23411109.902    23411120.2524
  20668386.040   -22118396.711 9 -17188687.51048  20668387.794    20668395.9624
  24324791.133    -2038732.907 7  -1566091.85045  24324782.533    24324796.8564
 00  3 23  2 49  0.0000000  0  6 09 17 23 06 26 10
  22626612.683   -10482645.782 8  -7902085.12946  22626617.271    22626627.9924
  20176462.804   -23476318.694 9 -18273493.48448  20176463.250    20176472.0424
  22228195.170   -14578368.991 8 -11339477.25047  22228194.591    22228204.8074
  23429301.941    -8386905.641 8  -6521011.03045  23429308.862    23429319.8494
  20679874.158   -22058021.670 9 -17141642.02748  20679877.202    20679885.1934
  24339781.565    -1959936.110 7  -1504691.84345  24339775.741    24339789.1664
 00  3 23  2 49 30.0000000  0  6 09 17 23 06 26 10
  22608736.035   -10576583.596 8  -7975283.30546  22608740.915    22608751.9784
  20170906.483   -23505513.505 9 -18296242.66348  20170907.792    20170916.4294
  22218471.197   -14629455.464 9 -11379284.82047  22218473.658    22218482.8964
  23447524.653    -8291146.298 8  -6446393.47145  23447529.885    23447542.8494
  20691440.670   -21997233.991 9 -17094275.01048  20691444.734    20691452.9224
  24354783.479    -1881093.853 7  -1443256.41245  24354779.093    24354793.1354
 00  3 23  2 50  0.0000000  0  6 09 17 23 06 26 10
  22590908.422   -10670272.125 8  -8048287.24246  22590912.063    22590923.1514
  20165447.623   -23534188.899 9 -18318587.10848  20165451.013    20165459.1774
  22208775.447   -14680410.027 9 -11418989.60547  22208777.267    22208787.5434
  23465775.779    -8195271.037 8  -6371685.59946  23465775.587    23465786.7304
  20703085.384   -21936050.849 9 -17046599.84548  20703087.009    20703095.6364
  24369789.630    -1802203.719 7  -1381783.72845  24369792.738    24369806.7534
 00  3 23  2 50 30.0000000  0  6 09 17 23 06 26 10
  22573122.379   -10763723.420 8  -8121106.28146  22573129.254    22573140.5584
  20160091.356   -23562347.908 9 -18340529.16848  20160092.645    20160101.0904
  22199105.928   -14731232.804 9 -11458591.69747  22199106.623    22199116.3494
  23484042.025    -8099281.198 8  -6296888.42546  23484041.182    23484053.3464
  20714799.618   -21874487.993 9 -16998628.79548  20714802.370    20714810.9624
  24384814.467    -1723264.786 7  -1320272.98845  24384814.304    24384828.4864
 00  3 23  2 51  0.0000000  0  6 09 17 23 06 26 10
  22555395.312   -10856934.721 8  -8193738.34446  22555391.303    22555402.8804
  20154827.061   -23589992.817 9 -18362070.63848  20154831.545    20154840.4404
  22189454.661   -14781952.486 9 -11498113.44847  22189454.424    22189464.3724
  23502326.212    -8003159.453 8  -6221988.45345  23502332.041    23502344.8444
  20726588.834   -21812550.847 9 -16950366.08748  20726589.198    20726597.0044
  24399840.695    -1644283.321 7  -1258729.11645  24399842.955    24399857.9224
 00  3 23  2 51 30.0000000  0  6 09 17 23 06 26 10
  22537701.085   -10949887.870 8  -8266169.20847  22537703.353    22537713.6224
  20149666.315   -23617130.863 9 -18383217.14248  20149667.556    20149676.0464
  22179817.811   -14832585.922 8 -11537567.99647  22179818.800    22179828.9134
  23520647.972    -7906891.690 8  -6146974.74246  23520651.714    23520665.3274
  20738445.834   -21750244.081 9 -16901815.38048  20738445.700    20738453.1304
  24414888.517    -1565256.808 7  -1197150.15445  24414881.388    24414894.5044
 00  3 23  2 52  0.0000000  0  6 09 17 23 06 26 10
  22520063.697   -11042566.602 8  -8338386.31546  22520067.348    22520077.3144
  20144595.439   -23643771.152 9 -18403975.79348  20144598.003    20144606.4634
  22170197.939   -14883134.454 9 -11576956.38347  22170200.420    22170209.0494
  23538993.285    -7810477.996 8  -6071847.31846  23538997.972    23539011.7884
  20750369.784   -21687563.343 9 -16852973.26248  20750373.359    20750381.1624
  24429929.402    -1486184.695 8  -1135535.60945  24429930.674    24429942.2774
 00  3 23  2 52 30.0000000  0  6 09 17 23 06 26 10
  22502487.324   -11134944.388 8  -8410368.85446  22502487.356    22502498.2354
  20139624.139   -23669904.263 9 -18424339.23548  20139625.344    20139633.5564
  22160593.428   -14933610.207 9 -11616288.08947  22160594.937    22160603.6254
  23557373.344    -7713915.173 8  -5996603.64646  23557375.202    23557386.3354
  20762371.641   -21624505.743 9 -16803837.47748  20762372.540    20762380.5174
  24444985.719    -1407075.616 7  -1073892.29145  24444982.594    24444996.5794
 00  3 23  2 53  0.0000000  0  6 09 17 23 06 26 10
  22484965.297   -11227015.974 8  -8482112.77646  22484967.161    22484977.4684
  20134749.030   -23695514.043 9 -18444294.89148  20134751.480    20134760.1684
  22151000.618   -14984016.581 9 -11655565.72047  22151002.889    22151012.4484
  23575768.438    -7617212.161 8  -5921250.74246  23575776.924    23575787.6254
  20774438.216   -21561068.289 9 -16754405.69748  20774443.278    20774452.3004
  24460046.086    -1327939.779 8  -1012228.11545  24460043.051    24460055.8604
 00  3 23  2 53 30.0000000  0  6 09 17 23 06 26 10
  22467502.418   -11318794.374 8  -8553628.31146  22467502.415    22467512.7074
  20129979.158   -23720588.172 9 -18463833.15248  20129980.388    20129988.5764
  22141425.938   -15034323.317 9 -11694765.70347  22141429.601    22141439.4954
  23594193.490    -7520401.957 8  -5845814.33945  23594199.139    23594209.6364
  20786588.401   -21497251.097 9 -16704678.03448  20786588.519    20786596.4384
  24475108.315    -1248777.762 7   -950543.53945  24475106.215    24475118.7944
 00  3 23  2 54  0.0000000  0  6 09 17 23 06 26 10
  22450091.570   -11410281.367 8  -8624916.75646  22450093.178    22450103.3394
  20125311.047   -23745110.623 9 -18482941.53648  20125313.782    20125322.0644
  22131876.132   -15084515.052 9 -11733876.08747  22131878.437    22131888.2184
  23612630.096    -7423501.725 8  -5770307.77745  23612638.211    23612650.3934
  20798802.950   -21433045.468 9 -16654647.69247  20798806.261    20798814.1764
  24490168.058    -1169593.480 7   -888841.59745  24490174.238    24490189.3824
 00  3 23  2 54 30.0000000  0  6 09 17 23 06 26 10
  22432734.125   -11501488.065 8  -8695986.78546  22432736.157    22432746.8524
  20120752.403   -23769077.446 9 -18501616.97748  20120753.135    20120761.2894
  22122346.836   -15134587.314 9 -11772893.37447  22122350.360    22122359.1814
  23631092.119    -7326518.773 8  -5694736.75945  23631094.362    23631107.4664
  20811093.683   -21368456.633 9 -16604318.75047  20811096.909    20811104.5854
  24505239.872    -1090388.762 7   -827123.70345  24505246.647    24505260.1624
 00  3 23  2 55  0.0000000  0  6 09 17 23 06 26 10
  22415430.748   -11592425.690 8  -8766847.16946  22415431.918    22415441.1394
  20116291.109   -23792513.643 9 -18519878.92948  20116293.186    20116301.4144
  22112845.241   -15184530.570 9 -11811810.14047  22112846.295    22112856.0854
  23649566.044    -7229468.338 8  -5619113.17746  23649562.780    23649575.5724
  20823456.047   -21303480.868 9 -16553688.30347  20823461.391    20823469.5244
  24520315.022    -1011153.841 7   -765382.32645  24520324.589    24520339.6204
 00  3 23  2 55 30.0000000  0  6 09 17 23 06 26 10
  22398179.102   -11683076.110 8  -8837483.74946  22398180.993    22398191.6144
  20111929.469   -23815432.764 9 -18537737.96648  20111931.885    20111940.2194
  22103366.052   -15234336.158 9 -11850619.63247  22103368.609    22103378.9384
  23668034.527    -7132359.269 8  -5543443.88945  23668041.111    23668053.4914
  20835897.317   -21238119.636 9 -16502757.48147  20835899.749    20835907.5104
  24535410.081     -931888.872 7   -703617.55645  24535405.269    24535422.5214
 00  3 23  2 56  0.0000000  0  6 09 17 23 06 26 10
  22380983.520   -11773421.277 8  -8907882.45046  22380989.120    22381000.0994
  20107663.650   -23837842.742 9 -18555200.27448  20107667.425    20107675.7784
  22093911.318   -15284014.753 9 -11889330.15447  22093914.324    22093924.8864
  23686534.226    -7035186.788 8  -5467725.18045  23686532.284    23686546.0414
  20848407.434   -21172371.799 9 -16451525.41147  20848411.163    20848419.0844
  24550496.629     -852588.446 7   -641825.18345  24550498.966    24550513.1424
 00  3 23  2 56 30.0000000  0  6 09 17 23 06 26 10
  22363855.581   -11863456.876 8  -8978039.94446  22363855.300    22363866.5594
  20103494.019   -23859754.863 9 -18572274.64148  20103497.482    20103505.8244
  22084483.255   -15333568.580 9 -11927943.46347  22084484.696    22084494.6904
  23705028.654    -6937956.724 8  -5391961.61845  23705034.538    23705047.0394
  20860991.410   -21106250.598 9 -16400002.41947  20860993.139    20861001.3584
  24565597.742     -773242.681 7   -579997.41745  24565598.953    24565612.1394
 00  3 23  2 57  0.0000000  0  6 09 17 23 06 26 10
  22346785.612   -11953166.205 8  -9047943.19746  22346784.995    22346795.3734
  20099423.168   -23881156.308 9 -18588951.07748  20099425.034    20099433.1504
  22075073.444   -15383009.826 9 -11966469.05947  22075076.433    22075085.9134
  23723547.248    -6840675.685 8  -5316158.30345  23723547.026    23723559.1454
  20873644.863   -21039752.067 9 -16348185.40147  20873647.541    20873655.4304
  24580706.695     -693838.312 7   -518123.97645  24580709.174    24580721.8504
 00  3 23  2 57 30.0000000  0  6 09 17 23 06 26 10
  22329777.808   -12042537.489 8  -9117583.03246  22329777.443    22329788.8444
  20095451.951   -23902019.918 9 -18605208.42248  20095454.745    20095463.0834
  22065685.485   -15432353.935 9 -12004918.96847  22065686.275    22065695.7084
  23742069.303    -6743332.065 7  -5240306.24845  23742070.321    23742082.8694
  20886374.454   -20972872.113 9 -16296071.17247  20886374.451    20886382.3194
  24595830.869     -614370.571 7   -456201.10244  24595832.072    24595843.0304
 00  3 23  2 58  0.0000000  0  6 09 17 23 06 26 10
  22312830.959   -12131573.378 8  -9186961.50846  22312834.264    22312845.4334
  20091585.291   -23922334.190 9 -18621037.71448  20091589.183    20091597.3874
  22056309.660   -15481615.260 9 -12043304.36847  22056312.092    22056322.2684
  23760605.594    -6645918.935 8  -5164400.03745  23760607.542    23760620.5974
  20899169.047   -20905617.378 9 -16243664.90747  20899172.548    20899180.3184
  24610963.298     -534815.260 7   -394210.05244  24610968.091    24610983.6054
 00  3 23  2 58 30.0000000  0  6 09 17 23 06 26 10
  22295954.725   -12220274.715 8  -9256079.32846  22295955.325    22295966.1624
  20087827.202   -23942088.977 9 -18636431.03248  20087829.971    20087838.2884
  22046948.195   -15530807.191 9 -12081635.67247  22046951.245    22046960.9374
  23779152.749    -6548427.320 8  -5088432.67945  23779159.966    23779172.8254
  20912038.544   -20837990.407 9 -16190968.57947  20912041.611    20912049.7524
  24626128.063     -455172.179 7   -332150.62645  24626124.569    24626140.0644
 00  3 23  2 59  0.0000000  0  6 09 17 23 06 26 10
  22279136.922   -12308641.300 8  -9324936.29647  22279139.690    22279150.4574
  20084176.092   -23961274.418 9 -18651380.71848  20084178.960    20084187.4034
  22037601.013   -15579930.303 9 -12119913.36947  22037603.859    22037612.3184
  23797723.114    -6450852.397 8  -5012400.35745  23797728.708    23797741.1824
  20924978.310   -20769985.490 9 -16137977.75647  20924982.505    20924990.6144
  24641304.852     -375452.232 7   -270031.31745  24641295.173    24641310.5854
 00  3 23  2 59 30.0000000  0  6 09 17 23 06 26 10
  22262386.054   -12396674.661 8  -9393533.59246  22262386.717    22262397.6794
  20080632.280   -23979902.100 9 -18665895.78448  20080634.602    20080642.9754
  22028271.089   -15628971.589 9 -12158127.30647  22028271.747    22028279.8484
  23816312.360    -6353190.469 8  -4936300.23045  23816312.894    23816323.8274
  20937988.164   -20701621.488 9 -16084707.12447  20937991.506    20937999.5774
  24656480.712     -295669.336 7   -207862.93144  24656477.651    24656489.4924
 00  3 23  3  0  0.0000000  0  6 09 17 23 06 26 10
  22245693.327   -12484384.937 8  -9461879.17046  22245696.278    22245707.1754
  20077191.867   -23997986.679 9 -18679987.65748  20077192.954    20077201.3924
  22018955.037   -15677912.530 9 -12196263.05647  22018957.929    22018966.5364
  23834905.545    -6255447.759 8  -4860137.19545  23834912.516    23834925.5924
  20951059.867   -20632929.552 9 -16031180.95647  20951063.257    20951071.3534
  24671652.601     -215843.881 7   -145661.41944  24671665.027    24671682.0624
 00  3 23  3  0 30.0000000  0  6 09 17 23 06 26 10
  22229062.644   -12571776.419 8  -9529976.33647  22229066.158    22229077.3904
  20073850.543   -24015536.620 9 -18693662.92748  20073853.349    20073861.6794
  22009664.593   -15726736.613 9 -12234307.75047  22009667.261    22009675.7124
  23853522.195    -6157627.145 8  -4783913.47345  23853526.780    23853540.1724
  20964193.737   -20563914.821 9 -15977403.27147  20964196.527    20964204.6424
  24686849.901     -136014.947 7    -83457.17344  24686860.934    24686873.7674
 00  3 23  3  1  0.0000000  0  6 09 17 23 06 26 10
  22212495.740   -12658845.621 8  -9597822.34846  22212497.587    22212508.2844
  20070611.254   -24032560.792 9 -18706928.51048  20070613.883    20070622.2404
  22000399.664   -15775422.556 9 -12272244.80347  22000402.074    22000410.8274
  23872142.627    -6059734.041 8  -4707633.26645  23872156.440    23872169.0734
  20977385.170   -20494598.255 9 -15923390.39647  20977386.886    20977394.9914
  24702058.045      -56186.249 7    -21253.05244  24702049.080    24702065.2704
 00  3 23  3  1 30.0000000  0  6 09 17 23 06 26 10
  22195987.075   -12745594.455 8  -9665418.74746  22195989.508    22195999.7804
  20067469.419   -24049062.508 9 -18719786.97848  20067473.351    20067481.9344
  21991162.186   -15823965.856 9 -12310070.71747  21991164.624    21991173.2174
  23890798.368    -5961772.205 8  -4631299.47145  23890797.152    23890809.6834
  20990630.910   -20425000.294 9 -15869158.25347  20990631.348    20990639.4904
  24717253.988       23649.287 7     40956.37444  24717240.179    24717255.2124
 00  3 23  3  2  0.0000000  0  6 09 17 23 06 26 10
  22179543.074   -12832031.517 8  -9732772.21446  22179542.161    22179551.0124
  20064432.477   -24065033.633 9 -18732231.99948  20064434.120    20064442.8364
  21981950.570   -15872371.529 9 -12347789.37247  21981953.045    21981962.2734
  23909435.398    -5863749.563 7  -4554918.28745  23909449.662    23909462.9784
  21003929.837   -20355099.264 9 -15814689.95247  21003932.576    21003940.9454
  24732446.356      103496.486 7    103174.85145  24732436.110    24732450.8794
 00  3 23  3  2 30.0000000  0  6 09 17 23 06 26 10
  22163151.744   -12918135.522 8  -9799866.13047  22163155.955    22163166.4044
  20061497.066   -24080462.505 9 -18744254.49048  20061498.179    20061506.9344
  21972760.811   -15920649.407 9 -12385408.45747  21972765.620    21972775.6104
  23928122.006    -5765673.251 8  -4478495.31345  23928114.186    23928128.3664
  21017295.515   -20284869.161 9 -15759965.20347  21017297.493    21017305.0374
  24747639.246      183378.806 7    165420.76745  24747639.367    24747652.2354
 00  3 23  3  3  0.0000000  0  6 09 17 23 06 26 10
  22146835.513   -13003896.338 8  -9866692.62647  22146836.096    22146846.3744
  20058665.581   -24095336.741 9 -18755844.79548  20058667.812    20058676.4794
  21963601.865   -15968800.309 9 -12422928.61347  21963603.843    21963613.1154
  23946776.947    -5667550.736 8  -4402036.32445  23946786.928    23946799.0604
  21030721.056   -20214305.169 9 -15704980.30247  21030724.982    21030732.9234
  24762842.686      263325.660 7    227716.88045  24762851.443    24762866.9264
 00  3 23  3  3 30.0000000  0  6 09 17 23 06 26 10
  22130579.050   -13089315.116 8  -9933252.61247  22130581.354    22130591.8344
  20055943.131   -24109643.071 9 -18766992.56748  20055945.506    20055953.9344
  21954462.082   -16016831.617 9 -12460355.57347  21954463.824    21954473.0744
  23965456.678    -5569391.378 8  -4325548.62145  23965467.141    23965479.4444
  21044219.589   -20143384.469 9 -15649717.43947  21044221.299    21044229.1004
  24778071.583      343328.656 7    290056.79145  24778076.390    24778089.8174
 00  3 23  3  4  0.0000000  0  6 09 17 23 06 26 10
  22114394.377   -13174372.784 8  -9999531.20047  22114394.971    22114406.0774
  20053328.821   -24123380.065 9 -18777696.70948  20053331.356    20053339.7054
  21945346.124   -16064747.672 9 -12497692.72547  21945345.827    21945355.0934
  23984147.924    -5471194.372 8  -4249031.53845  23984151.903    23984164.1834
  21057785.602   -20072084.889 9 -15594159.35947  21057788.862    21057796.6384
  24793311.125      423373.856 7    352429.59145  24793309.708    24793322.5604
 00  3 23  3  4 30.0000000  0  6 09 17 23 06 26 03
  22098276.738   -13259059.614 8 -10065520.82947  22098280.486    22098290.4434
  20050826.105   -24136538.134 9 -18787949.74248  20050827.677    20050836.0964
  21936247.635   -16112548.762 9 -12534940.29247  21936249.487    21936258.6644
  24002846.465    -5372954.243 7  -4172480.92345  24002845.386    24002860.1774
  21071423.307   -20000435.688 9 -15538328.84547  21071423.432    21071431.5504
  24643233.155     -609928.26518   -465305.98255  24643234.832    24643244.8644
 00  3 23  3  5  0.0000000  0  6 09 17 23 06 26 03
  22082230.807   -13343393.769 8 -10131235.66047  22082232.059    22082242.1044
  20048429.913   -24149113.203 9 -18797748.48648  20048434.439    20048442.9844
  21927170.300   -16160239.761 9 -12572102.06147  21927173.152    21927183.1434
  24021552.429    -5274676.916 7  -4095901.29945  24021546.600    24021562.2974
  21085120.883   -19928450.373 9 -15482236.42947  21085121.460    21085129.9264
  24635485.866     -650644.222 7   -497032.68845  24635486.597    24635496.7804
 00  3 23  3  5 30.0000000  0  6 09 17 23 06 26 03
  22066251.502   -13427371.756 8 -10196672.95547  22066251.042    22066261.5434
  20046148.953   -24161109.784 9 -18807096.46248  20046151.606    20046160.2664
  21918116.060   -16207838.315 9 -12609191.80747  21918116.542    21918124.7394
  24040263.708    -5176359.734 8  -4019290.59245  24040257.450    24040271.5814
  21098879.179   -19856137.808 9 -15425889.01847  21098882.124    21098890.2094
  24627824.566     -690864.319 7   -528373.03945  24627832.295    24627843.6754
 00  3 23  3  6  0.0000000  0  6 09 17 23 06 26 03
  22050338.080   -13510983.659 8 -10261824.98647  22050340.761    22050350.1924
  20043972.383   -24172538.293 9 -18816001.78848  20043976.740    20043985.1804
  21909069.724   -16255359.665 9 -12646221.39347  21909072.920    21909081.5044
  24058970.191    -5078009.027 8  -3942653.80345  24058973.194    24058987.1254
  21112694.399   -19783522.868 9 -15369305.98247  21112700.794    21112708.5994
  24620267.335     -730601.613 7   -559337.21545  24620269.034    24620283.0204
 00  3 23  3  6 30.0000000  0  6 09 17 23 06 26 03
  22034498.514   -13594228.285 8 -10326690.83747  22034499.746    22034509.4324
  20041908.844   -24183393.150 9 -18824460.10948  20041910.940    20041919.5664
  21900042.549   -16302804.163 9 -12683191.10047  21900044.991    21900053.3504
  24077677.727    -4979644.224 8  -3866006.03245  24077692.330    24077704.6274
  21126567.493   -19710622.326 9 -15312500.39047  21126572.542    21126581.0714
  24612805.252     -769858.218 7   -589926.76245  24612799.669    24612812.5074
 00  3 23  3  7  0.0000000  0  6 09 17 23 06 26 03
  22018726.820   -13677100.387 8 -10391266.39947  22018729.152    22018739.6544
  20039950.150   -24193683.933 9 -18832478.89848  20039952.644    20039961.1934
  21891030.533   -16350165.387 9 -12720095.90947  21891032.303    21891041.1544
  24096409.196    -4881276.610 7  -3789356.03945  24096408.774    24096423.6434
  21140499.665   -19637421.117 9 -15255460.53347  21140502.384    21140510.9284
  24605418.644     -808635.731 7   -620143.03645  24605421.766    24605431.3504
 00  3 23  3  7 30.0000000  0  7 09 17 23 06 26 03 21
  22003030.572   -13759580.598 8 -10455536.58947  22003033.663    22003044.2734
  20038099.543   -24203414.251 9 -18840060.95148  20038101.343    20038109.7564
  21882033.108   -16397433.861 9 -12756928.44847  21882037.142    21882045.7444
  24115131.026    -4782910.815 8  -3712707.49945  24115129.937    24115141.9684
  21154485.514   -19563922.593 9 -15198189.00347  21154488.717    21154497.0084
  24598126.734     -846919.645 7   -649974.67445  24598136.852    24598148.3424
  24991862.309     -184640.05917   -125000.20255  24991865.043    24991878.6464
 00  3 23  3  8  0.0000000  0  7 09 17 23 06 26 03 21
  21987413.682   -13841662.125 8 -10519496.11747  21987414.740    21987424.2334
  20036353.904   -24212575.780 9 -18847199.79748  20036357.690    20036366.4784
  21873063.134   -16444589.759 9 -12793673.26447  21873064.140    21873072.3754
  24133827.610    -4684561.537 7  -3636071.78345  24133844.109    24133857.1984
  21168532.275   -19490116.069 9 -15140677.47147  21168533.993    21168541.8094
  24590944.438     -884706.794 7   -679419.19745  24590944.387    24590957.2874
  24977152.155     -261955.620 7   -185245.92945  24977154.377    24977164.6054
 00  3 23  3  8 30.0000000  0  7 09 17 23 06 26 03 21
  21971864.604   -13923354.992 8 -10583152.79747  21971868.714    21971878.6304
  20034721.691   -24221156.013 9 -18853885.69148  20034725.129    20034733.6114
  21864114.831   -16491608.238 9 -12830311.00147  21864116.154    21864125.0164
  24152550.532    -4586220.639 7  -3559442.60945  24152556.886    24152572.5184
  21182640.428   -19415984.181 9 -15082912.41247  21182640.568    21182648.8364
  24583852.169     -922002.566 7   -708480.78745  24583849.308    24583858.7374
  24962426.079     -339311.135 7   -245522.82145  24962431.883    24962446.1124
 00  3 23  3  9  0.0000000  0  7 09 17 23 06 26 03 21
  21956394.457   -14004663.362 8 -10646509.85747  21956395.007    21956406.0384
  20033200.852   -24229158.707 9 -18860121.54648  20033202.320    20033210.8744
  21855194.128   -16538488.912 9 -12866841.36947  21855195.297    21855203.9174
  24171269.633    -4487869.478 7  -3482805.48345  24171272.989    24171286.4804
  21196806.922   -19341526.065 9 -15024893.14447  21196810.090    21196817.9804
  24576835.558     -958805.267 7   -737158.22245  24576845.094    24576857.7134
  24947701.900     -416701.153 7   -305826.57245  24947702.907    24947718.7544
 00  3 23  3  9 30.0000000  0  7 09 17 23 06 26 03 21
  21940993.823   -14085579.533 8 -10709561.34147  21940997.712    21941007.4714
  20031785.397   -24236588.999 9 -18865911.37848  20031788.013    20031796.7284
  21846298.603   -16585228.496 9 -12903261.79347  21846301.460    21846309.4674
  24189982.535    -4389507.314 7  -3406159.75545  24189990.486    24190005.4114
  21211034.329   -19266745.887 9 -14966622.91747  21211040.083    21211048.4914
  24569936.657     -995111.133 7   -765448.48545  24569936.908    24569947.1124
  24932962.014     -494127.475 7   -366158.57845  24932969.642    24932983.0524
 00  3 23  3 10  0.0000000  0  7 09 17 23 06 26 03 21
  21925671.675   -14166111.091 8 -10772313.10747  21925672.841    21925683.3374
  20030479.345   -24243442.880 9 -18871252.06348  20030483.841    20030492.2934
  21837431.219   -16631826.892 9 -12939572.18547  21837433.305    21837442.6234
  24208689.192    -4291133.900 7  -3329505.24345  24208708.668    24208723.9024
  21225329.729   -19191641.666 9 -14908100.19447  21225331.915    21225340.1064
  24563115.260    -1030921.340 7   -793352.55145  24563121.104    24563133.0514
  24918218.626     -571595.306 7   -426522.96845  24918228.370    24918241.1564
 00  3 23  3 10 30.0000000  0  7 09 17 23 06 26 03 21
  21910418.170   -14246266.375 8 -10834771.66247  21910419.745    21910429.8754
  20029285.736   -24249727.856 9 -18876149.43948  20029287.987    20029296.3464
  21828588.087   -16678294.320 9 -12975780.52447  21828591.192    21828600.2464
  24227437.208    -4192732.401 7  -3252828.86445  24227436.365    24227449.8184
  21239676.295   -19116232.098 9 -14849339.53447  21239681.290    21239690.1324
  24556400.287    -1066227.170 7   -820863.58345  24556402.241    24556415.3484
  24903482.712     -649090.179 7   -486908.41045  24903482.262    24903495.7974
 00  3 23  3 11  0.0000000  0  7 09 17 23 06 26 03 21
  21895240.317   -14326029.576 8 -10896924.73747  21895241.095    21895250.9304
  20028198.048   -24255446.828 9 -18880605.77748  20028199.671    20028208.0024
  21819769.146   -16724652.224 9 -13011903.52647  21819769.806    21819778.5684
  24246170.148    -4094321.473 7  -3176145.16945  24246163.536    24246176.7154
  21254082.563   -19040533.073 9 -14790353.32247  21254086.693    21254095.7174
  24549777.637    -1101025.597 7   -847979.17945  24549781.630    24549792.7304
  24888734.544     -726604.576 7   -547309.04745  24888730.799    24888742.8954
 00  3 23  3 11 30.0000000  0  7 09 17 23 06 26 03 21
  21880134.900   -14405397.410 8 -10958769.70747  21880137.930    21880148.1714
  20027219.658   -24260587.791 9 -18884611.71848  20027221.560    20027229.7204
  21810962.712   -16770906.660 9 -13047945.90747  21810967.173    21810976.4664
  24264891.782    -3995916.260 7  -3099465.91745  24264889.558    24264902.0944
  21268543.371   -18964553.278 9 -14731148.34147  21268544.791    21268553.7004
  24543259.814    -1135312.785 7   -874696.40745  24543257.800    24543267.2914
  24873977.468     -804149.174 7   -607733.28145  24873976.416    24873988.2294
 00  3 23  3 12  0.0000000  0  7 09 17 23 06 26 03 21
  21865104.392   -14484373.357 8 -11020309.31847  21865109.545    21865119.9114
  20026353.368   -24265138.447 9 -18888157.68448  20026355.507    20026363.8844
  21802180.352   -16817069.766 9 -13083917.12747  21802182.645    21802192.5724
  24283612.912    -3897509.435 7  -3022785.35745  24283614.558    24283629.1424
  21283054.368   -18888299.960 9 -14671730.21247  21283056.510    21283063.9294
  24536828.749    -1169088.753 8   -901015.35545  24536829.924    24536839.8474
  24859204.364     -881733.502 7   -668188.40845  24859210.957    24859222.9314
 00  3 23  3 12 30.0000000  0  7 09 17 23 06 26 03 21
  21850158.516   -14562950.301 9 -11081538.01447  21850156.611    21850167.1404
  20025598.810   -24269101.733 9 -18891245.95548  20025601.383    20025609.8144
  21793415.408   -16863145.428 9 -13119820.20547  21793415.062    21793424.1534
  24302363.307    -3799097.208 7  -2946100.63345  24302340.895    24302356.2004
  21297613.982   -18811781.819 9 -14612105.72747  21297616.987    21297625.5414
  24530496.120    -1202345.934 7   -926930.04045  24530501.384    24530511.1924
  24844449.704     -959349.424 7   -728668.18245  24844439.586    24844452.3224
 00  3 23  3 13  0.0000000  0  7 09 17 23 06 26 03 21
  21835280.923   -14641113.938 8 -11142444.65947  21835282.689    21835292.6334
  20024956.946   -24272476.174 9 -18893875.38548  20024959.170    20024967.4484
  21784662.076   -16909129.722 9 -13155652.08347  21784664.586    21784673.7024
  24321082.339    -3700697.947 7  -2869425.99945  24321068.055    24321081.5864
  21312226.466   -18735001.218 9 -14552276.73547  21312228.628    21312236.2984
  24524272.613    -1235080.417 8   -952437.41245  24524271.276    24524282.0304
  24829664.966    -1037002.447 7   -789176.89745  24829665.493    24829675.9214
 00  3 23  3 13 30.0000000  0  8 09 17 23 06 26 03 21 29
  21820484.096   -14718867.727 8 -11203031.92647  21820486.937    21820496.0824
  20024424.411   -24275273.613 9 -18896055.21348  20024426.755    20024435.1624
  21775929.632   -16955009.747 9 -13191402.71147  21775933.794    21775942.1944
  24339792.704    -3602297.925 7  -2792750.77545  24339794.377    24339806.0844
  21326888.575   -18657959.341 9 -14492244.14547  21326888.948    21326896.4924
  24518140.928    -1267290.012 7   -977535.80445  24518140.809    24518153.6214
  24814877.350    -1114704.262 7   -849723.63045  24814874.065    24814889.7024
  24572280.935    -1481057.00817  -1138972.83155  24572290.212    24572301.9414
 00  3 23  3 14  0.0000000  0  8 09 17 23 06 26 03 21 29
  21805763.576   -14796204.085 8 -11263293.94647  21805769.485    21805780.0134
  20024000.596   -24277504.363 9 -18897793.45748  20024002.171    20024010.9454
  21767222.763   -17000779.555 9 -13227067.47947  21767224.017    21767232.4144
  24358516.110    -3503900.115 8  -2716077.23845  24358517.513    24358530.9744
  21341597.239   -18580653.275 9 -14432005.68847  21341599.818    21341607.9614
  24512108.215    -1298980.296 7  -1002229.49045  24512111.060    24512123.1064
  24800071.289    -1192432.614 7   -910291.05445  24800085.345    24800097.7554
  24554313.626    -1575529.127 7  -1212587.35045  24554312.420    24554325.5484
 00  3 23  3 14 30.0000000  0  8 09 17 23 06 26 03 21 29
  21791136.610   -14873113.163 8 -11323222.99047  21791134.233    21791144.6454
  20023680.651   -24279178.685 9 -18899098.12448  20023683.395    20023692.4084
  21758531.317   -17046438.907 9 -13262646.15947  21758535.106    21758544.4244
  24377231.786    -3405526.816 7  -2639422.85445  24377236.253    24377249.5384
  21356355.111   -18503088.484 9 -14371565.63647  21356358.690    21356368.2894
  24506180.571    -1330152.798 7  -1026519.72145  24506180.403    24506191.9694
  24785294.990    -1270174.404 7   -970868.92645  24785292.112    24785304.4144
  24536354.703    -1669861.356 7  -1286092.81345  24536361.721    24536375.5894
 00  3 23  3 15  0.0000000  0  8 09 17 23 06 26 03 21 29
  21776575.120   -14949591.144 8 -11382816.12547  21776580.953    21776590.6404
  20023469.259   -24280291.133 9 -18899964.97348  20023471.810    20023480.5774
  21749864.203   -17091993.640 9 -13298143.31547  21749865.928    21749875.5614
  24395943.848    -3307184.361 7  -2562792.45645  24395949.717    24395963.1044
  21371166.906   -18425267.560 9 -14310926.00747  21371168.285    21371176.9924
  24500339.538    -1360823.710 7  -1050419.11345  24500341.786    24500355.3934
  24770489.036    -1347948.065 7  -1031471.69345  24770493.901    24770504.0324
  24518439.216    -1764064.285 7  -1359497.55545  24518435.105    24518448.9394
 00  3 23  3 15 30.0000000  0  8 09 17 23 06 26 03 21 29
  21762109.550   -15025638.498 8 -11442073.71547  21762109.668    21762119.4484
  20023367.354   -24280829.837 9 -18900384.75148  20023369.395    20023378.0544
  21741216.961   -17137437.414 9 -13333554.01947  21741219.019    21741227.6634
  24414652.004    -3208870.583 7  -2486184.42845  24414661.038    24414672.9454
  21386022.843   -18347181.149 9 -14250079.50347  21386026.914    21386036.8624
  24494598.598    -1390996.442 7  -1073930.32545  24494601.234    24494611.7264
  24755673.337    -1425748.363 7  -1092095.11745  24755685.621    24755700.1124
  24500525.861    -1858152.131 7  -1432812.61345  24500531.752    24500543.7564
 00  3 23  3 16  0.0000000  0  8 09 17 23 06 26 03 21 29
  21747719.334   -15101247.783 8 -11500989.96247  21747721.350    21747731.4164
  20023379.295   -24280777.093 9 -18900343.65248  20023379.268    20023387.9494
  21732591.991   -17182763.323 9 -13368872.87847  21732594.227    21732602.2624
  24433348.752    -3110602.115 7  -2409611.72945  24433360.254    24433374.2724
  21400936.854   -18268822.714 9 -14189021.03347  21400938.692    21400947.6314
  24488956.543    -1420665.401 7  -1097048.98845  24488957.116    24488968.6234
  24740876.376    -1503563.697 7  -1152730.32945  24740880.758    24740892.8844
  24482654.735    -1952123.572 7  -1506037.00145  24482649.833    24482662.3994
 00  3 23  3 16 30.0000000  0  8 09 17 23 06 26 03 21 29
  21733413.519   -15176419.238 8 -11559565.02847  21733416.823    21733426.7484
  20023499.034   -24280121.784 9 -18899833.02148  20023503.868    20023512.4574
  21723990.353   -17227965.416 9 -13404095.25547  21723991.705    21724000.2954
  24452058.450    -3012378.923 8  -2333074.27545  24452052.856    24452065.9434
  21415897.496   -18190196.331 9 -14127753.75447  21415900.447    21415909.8204
  24483413.023    -1449824.962 7  -1119770.65545  24483405.740    24483416.8744
  24726066.329    -1581416.948 7  -1213395.02445  24726064.813    24726078.1124
  24464789.386    -2045954.189 7  -1579151.63345  24464793.374    24464806.8164
 00  3 23  3 17  0.0000000  0  8 09 17 23 06 26 03 21 29
  21719195.376   -15251151.795 9 -11617798.10047  21719196.121    21719205.7414
  20023743.318   -24278852.593 9 -18898844.03848  20023745.900    20023754.3244
  21715414.604   -17273030.162 9 -13439210.60347  21715416.373    21715424.9244
  24470744.515    -2914193.448 8  -2256566.16245  24470736.758    24470749.3694
  21430913.256   -18111291.444 9 -14066269.47547  21430916.037    21430925.1914
  24477949.415    -1478468.435 7  -1142090.21745  24477957.509    24477967.1584
  24711241.624    -1659313.997 7  -1274093.87345  24711241.361    24711253.0044
  24446962.497    -2139624.670 7  -1652141.48345  24446968.260    24446981.0424
 00  3 23  3 17 30.0000000  0  8 09 17 23 06 26 03 21 29
  21705057.208   -15325445.931 9 -11675689.53547  21705057.995    21705067.9584
  20024100.638   -24276979.650 9 -18897384.60948  20024102.115    20024110.8314
  21706865.674   -17317941.583 9 -13474206.47447  21706869.721    21706878.5294
  24489415.151    -2816048.303 8  -2180089.52345  24489412.028    24489424.8844
  21445986.796   -18032098.309 9 -14004560.57647  21445986.195    21445995.1624
  24472605.937    -1506583.176 7  -1163997.80145  24472605.142    24472617.1714
  24696406.777    -1737240.708 7  -1334815.84045  24696412.524    24696424.1104
  24429174.440    -2233131.475 7  -1725003.80145  24429172.828    24429186.2364
 00  3 23  3 18  0.0000000  0  8 09 17 23 06 26 03 21 29
  21691003.133   -15399296.273 9 -11733235.16747  21691004.807    21691014.5034
  20024569.051   -24274511.017 9 -18895461.00148  20024571.653    20024580.2894
  21698349.963   -17362708.959 9 -13509090.10747  21698351.524    21698360.0864
  24508080.070    -2717941.144 7  -2103642.47245  24508080.838    24508093.9664
  21461104.741   -17952629.120 9 -13942636.58047  21461108.153    21461118.1344
  24467348.723    -1534170.111 7  -1185494.07645  24467355.289    24467366.6394
  24681575.785    -1815204.558 7  -1395566.71745  24681577.592    24681589.4604
  24411404.192    -2326481.761 7  -1797744.20445  24411409.576    24411421.8064
 00  3 23  3 18 30.0000000  0  7 09 17 23 26 03 21 29
  21677033.999   -15472703.604 9 -11790435.59147  21677036.128    21677045.4704
  20025152.020   -24271449.003 9 -18893075.01548  20025154.678    20025162.8334
  21689854.001   -17407351.223 9 -13543876.22847  21689855.617    21689865.2264
  21476282.382   -17872892.458 9 -13880504.16847  21476282.380    21476291.0544
  24462201.871    -1561232.019 7  -1206581.27245  24462208.020    24462217.8714
  24666733.656    -1893211.413 7  -1456351.15045  24666732.175    24666746.0434
  24393681.920    -2419682.041 7  -1870367.74545  24393674.635    24393687.1514
 00  3 23  3 19  0.0000000  0  7 09 17 23 26 03 21 29
  21663149.789   -15545667.102 9 -11847290.17447  21663151.538    21663160.8234
  20025846.520   -24267796.655 9 -18890229.02748  20025849.579    20025858.0074
  21681379.427   -17451876.387 9 -13578571.12047  21681382.676    21681392.0004
  21491502.910   -17792889.517 9 -13818164.23947  21491505.640    21491514.3804
  24457160.225    -1587768.782 7  -1227259.26945  24457157.899    24457167.6064
  24651872.121    -1971242.427 7  -1517154.43445  24651882.928    24651894.5044
  24375959.811    -2512758.243 7  -1942894.54245  24375963.389    24375976.4664
 00  3 23  3 19 30.0000000  0  7 09 17 23 26 03 21 29
  21649350.416   -15618179.114 9 -11903792.96247  21649352.960    21649362.4864
  20026655.933   -24263549.060 9 -18886919.21448  20026657.598    20026666.2614
  21672927.355   -17496300.347 9 -13613187.13547  21672929.076    21672938.2544
  21506776.279   -17712637.382 9 -13755630.15947  21506778.017    21506786.1424
  24452200.098    -1613792.673 7  -1247537.64745  24452203.463    24452216.0764
  24637028.019    -2049283.329 7  -1577965.33245  24637031.173    24637045.6054
  24358269.309    -2605710.922 7  -2015325.09745  24358275.161    24358287.7174
 00  3 23  3 20  0.0000000  0  7 09 17 23 26 03 21 29
  21635640.591   -15690229.523 8 -11959936.05847  21635641.383    21635650.7614
  20027579.565   -24258694.697 9 -18883136.59448  20027581.607    20027590.2894
  21664489.925   -17540637.758 9 -13647735.72747  21664492.591    21664501.1374
  21522090.220   -17632148.573 9 -13692911.64947  21522094.638    21522102.7524
  24447342.330    -1639305.774 7  -1267417.99445  24447349.802    24447361.7534
  24622175.690    -2127332.304 7  -1638782.61545  24622178.948    24622191.6194
  24340617.679    -2698528.689 8  -2087650.60045  24340613.355    24340623.9804
 00  3 23  3 20 30.0000000  0  7 09 17 23 26 03 21 29
  21622012.212   -15761828.970 8 -12015727.76747  21622016.713    21622026.2094
  20028616.561   -24253241.753 9 -18878887.55248  20028619.188    20028627.9534
  21656072.312   -17584875.551 9 -13682206.68347  21656073.849    21656082.8444
  21537454.434   -17551423.499 9 -13630009.03347  21537456.087    21537464.3094
  24442591.764    -1664315.641 8  -1286906.22545  24442590.292    24442601.5394
  24607327.986    -2205381.475 7  -1699599.99845  24607328.146    24607339.2864
  24322979.227    -2791182.023 8  -2159847.92545  24322982.562    24322993.4884
 00  3 23  3 21  0.0000000  0  7 09 17 23 26 03 21 29
  21608474.462   -15832966.732 8 -12071159.71747  21608479.497    21608489.1464
  20029767.842   -24247194.993 9 -18874175.79148  20029769.557    20029778.5194
  21647675.897   -17628998.680 9 -13716588.27647  21647677.429    21647686.5024
  21552861.014   -17470464.571 9 -13566924.19047  21552861.900    21552870.1454
  24437919.427    -1688828.847 7  -1306007.37045  24437925.747    24437937.5644
  24592466.949    -2283431.282 7  -1760417.82445  24592474.558    24592487.7754
  24305386.679    -2883657.856 7  -2231906.93845  24305384.209    24305394.1614
 00  3 23  3 21 30.0000000  0  7 09 17 23 26 03 21 29
  21595029.399   -15903644.427 9 -12126233.15747  21595030.012    21595039.6534
  20031028.621   -24240566.262 9 -18869010.55148  20031031.243    20031040.2414
  21639299.850   -17673004.381 9 -13750878.38647  21639303.450    21639312.4774
  21568308.618   -17389269.519 9 -13503655.35147  21568312.133    21568320.7364
  24433352.999    -1712840.692 8  -1324717.85845  24433356.256    24433367.6424
  24577621.172    -2361493.029 7  -1821245.04645  24577620.001    24577632.4984
  24287809.803    -2975943.011 7  -2303817.35045  24287821.089    24287832.9414
 00  3 23  3 22  0.0000000  0  7 09 17 23 26 03 21 29
  21581663.390   -15973875.175 9 -12180958.34047  21581665.438    21581674.7674
  20032400.468   -24233359.942 9 -18863395.24348  20032402.860    20032411.4644
  21630953.513   -17716874.573 9 -13785062.92247  21630955.445    21630963.7304
  21583803.473   -17307831.017 9 -13440196.80847  21583809.604    21583817.9904
  24428881.934    -1736339.803 8  -1343028.77545  24428884.504    24428897.8504
  24562757.393    -2439582.114 7  -1882093.50645  24562760.444    24562771.2244
  24270303.383    -3068039.965 8  -2375581.14145  24270296.187    24270307.8374
 00  3 23  3 22 30.0000000  0  7 09 17 23 26 03 21 29
  21568380.317   -16043658.186 8 -12235334.61447  21568385.897    21568395.9044
  20033884.048   -24225565.578 9 -18857321.71448  20033885.756    20033894.4204
  21622631.088   -17760602.106 9 -13819136.28847  21622634.106    21622642.3384
  21599353.198   -17226142.707 9 -13376543.60247  21599355.327    21599363.2274
  24424512.331    -1759326.937 8  -1360940.74445  24424510.545    24424522.6004
  24547878.911    -2517707.464 7  -1942970.25345  24547891.020    24547906.2404
  24252800.214    -3159959.471 7  -2447206.62045  24252803.441    24252816.0034
 00  3 23  3 23  0.0000000  0  7 09 17 23 26 03 21 29
  21555195.317   -16112973.991 9 -12289346.86747  21555195.800    21555205.0904
  20035482.303   -24217161.571 9 -18850773.14448  20035485.017    20035493.8304
  21614333.254   -17804204.669 9 -13853112.27247  21614336.544    21614344.9374
  21614943.840   -17144197.398 9 -13312690.13647  21614949.069    21614956.7024
  24420234.260    -1781785.356 8  -1378440.75845  24420237.692    24420248.2454
  24533007.868    -2595880.617 7  -2003884.30545  24533015.863    24533030.1314
  24235353.628    -3251714.144 7  -2518703.66045  24235343.348    24235357.4344
 00  3 23  3 23 30.0000000  0  7 09 17 23 26 03 21 29
  21542092.706   -16181828.045 9 -12342999.30547  21542092.864    21542102.1674
  20037200.199   -24208139.238 9 -18843742.75848  20037202.097    20037210.7644
  21606060.954   -17847677.683 9 -13886987.30547  21606064.470    21606072.9994
  21630589.344   -17062001.715 9 -13248641.57847  21630590.233    21630597.3164
  24416069.131    -1803705.978 8  -1395521.70045  24416064.447    24416076.8024
  24518130.751    -2674097.510 7  -2064832.41445  24518131.720    24518144.8584
  24217913.989    -3343303.072 7  -2590071.52245  24217915.282    24217927.9814
 00  3 23  3 24  0.0000000  0  7 09 17 23 26 03 21 29
  21529076.432   -16250208.929 9 -12396283.03447  21529080.586    21529089.3584
  20039035.353   -24198484.263 9 -18836219.40948  20039039.432    20039048.0974
  21597814.101   -17891012.587 9 -13920754.72747  21597817.461    21597826.6084
  21646272.025   -16979570.999 9 -13184409.88447  21646275.868    21646283.9434
  24411986.331    -1825092.735 8  -1412186.62945  24411996.265    24412006.4594
  24503241.247    -2752353.485 7  -2125810.92645  24503241.370    24503250.9784
  24200518.544    -3434723.814 7  -2661308.37645  24200518.352    24200530.7964
 00  3 23  3 24 30.0000000  0  7 09 17 23 26 03 21 29
  21516159.896   -16318098.795 9 -12449184.15247  21516161.506    21516170.3774
  20040992.297   -24188209.135 9 -18828212.82448  20040994.950    20041003.4444
  21589594.697   -17934212.486 9 -13954416.95347  21589597.435    21589605.8784
  21662005.692   -16896917.101 9 -13120004.28947  21662004.297    21662012.3854
  24408037.584    -1845933.308 7  -1428426.01445  24408028.835    24408041.2514
  24488337.263    -2830652.395 7  -2186822.90145  24488341.358    24488353.7714
  24183155.903    -3525971.675 7  -2732410.47045  24183155.030    24183166.5334
 00  3 23  3 25  0.0000000  0  7 09 17 23 26 03 21 29
  21503332.151   -16385502.930 9 -12501706.78947  21503335.365    21503344.5734
  20043062.339   -24177335.727 9 -18819740.04348  20043063.905    20043072.4544
  21581399.119   -17977280.170 9 -13987976.16447  21581401.576    21581409.9524
  21677770.259   -16814059.990 8 -13055440.32947  21677771.286    21677779.5014
  24404157.988    -1866226.641 7  -1444238.95745  24404166.944    24404179.7184
  24473429.120    -2908983.152 7  -2247859.72345  24473435.015    24473447.4494
  24165811.424    -3617037.895 7  -2803370.99345  24165825.386    24165836.5684
 00  3 23  3 25 30.0000000  0  7 09 17 23 26 03 21 29
  21490598.906   -16452431.924 9 -12553859.17947  21490598.677    21490608.4484
  20045240.832   -24165883.723 9 -18810816.40948  20045243.106    20045251.6544
  21573233.793   -18020198.674 9 -14021419.12047  21573234.053    21573242.7324
  21693572.315   -16731012.828 8 -12990728.29147  21693574.487    21693583.5214
  24400400.788    -1885990.326 7  -1459639.22845  24400407.679    24400418.5984
  24458527.711    -2987341.203 7  -2308917.77145  24458522.644    24458535.7524
  24148531.406    -3707931.993 7  -2874197.41145  24148527.682    24148540.0914
 00  3 23  3 26  0.0000000  0  7 09 17 23 26 03 21 29
  21477950.974   -16518873.584 9 -12605631.82747  21477954.754    21477965.0214
  20047527.929   -24153862.137 9 -18801448.95148  20047530.807    20047539.3754
  21565092.087   -18062984.110 9 -14054758.38947  21565092.641    21565101.0314
  21709414.453   -16647769.661 9 -12925863.51247  21709415.939    21709424.1354
  24396738.562    -1905235.320 7  -1474635.38345  24396742.921    24396754.7194
  24443595.328    -3065736.998 7  -2370005.29345  24443605.205    24443617.7164
  24131259.205    -3798661.226 7  -2944895.36645  24131262.824    24131274.0664
 00  3 23  3 26 30.0000000  0  7 09 17 23 26 03 21 29
  21465403.735   -16584829.309 9 -12657025.81947  21465404.023    21465413.7894
  20049925.448   -24141265.677 9 -18791633.53448  20049927.946    20049936.5154
  21556970.280   -18105655.786 9 -14088009.01947  21556972.322    21556980.9534
  21725296.141   -16564314.324 8 -12860833.39847  21725296.608    21725305.2964
  24393176.341    -1923964.783 7  -1489229.73545  24393180.290    24393191.3024
  24428671.000    -3144167.092 7  -2431119.52345  24428681.267    24428691.4074
  24114019.193    -3889225.047 8  -3015464.39845  24114028.913    24114039.7944
 00  3 23  3 27  0.0000000  0  7 09 17 23 26 03 21 29
  21452944.223   -16650305.946 9 -12708046.50947  21452944.359    21452953.6224
  20052436.207   -24128075.911 9 -18781355.80948  20052437.823    20052446.6114
  21548870.345   -18148220.419 9 -14121176.22347  21548872.307    21548881.0144
  21741215.366   -16480641.048 8 -12795633.47947  21741219.038    21741228.0234
  24389706.364    -1942204.809 7  -1503442.66045  24389710.963    24389720.8774
  24413753.737    -3222611.646 8  -2492245.03345  24413753.376    24413763.6024
  24096817.380    -3979633.285 8  -3085912.21445  24096826.042    24096836.7744
 00  3 23  3 27 30.0000000  0  7 09 17 23 26 03 21 29
  21440575.448   -16715285.416 9 -12758679.78547  21440579.256    21440588.0614
  20055060.717   -24114279.449 9 -18770605.32848  20055063.113    20055071.8034
  21540793.443   -18190674.155 9 -14154257.01947  21540793.696    21540802.3384
  21757187.482   -16396743.434 8 -12730258.74347  21757183.865    21757193.1764
  24386331.321    -1959954.251 7  -1517273.35445  24386332.923    24386342.7794
  24398826.144    -3301067.691 8  -2553379.49045  24398822.946    24398833.4484
  24079644.242    -4069897.034 7  -3156247.37145  24079648.190    24079659.8954
 00  3 23  3 28  0.0000000  0  7 09 17 23 26 03 21 29
  21428310.091   -16779763.819 9 -12808922.62147  21428309.520    21428318.1014
  20057803.979   -24099863.167 9 -18759371.87048  20057806.414    20057814.8494
  21532732.230   -18233026.108 9 -14187258.49947  21532734.320    21532742.6904
  21773187.635   -16312620.875 8 -12664708.73747  21773192.188    21773200.2264
  24383048.795    -1977189.440 7  -1530703.30545  24383052.679    24383063.5524
  24383897.184    -3379518.419 8  -2614509.82845  24383894.517    24383906.5874
  24062505.857    -4160005.096 8  -3226461.26645  24062501.041    24062513.0724
 00  3 23  3 28 30.0000000  0  7 09 17 23 26 03 21 29
  21416128.072   -16843754.867 9 -12858785.71547  21416132.226    21416141.7624
  20060665.747   -24084828.993 9 -18747656.93848  20060667.378    20060675.8664
  21524696.425   -18275262.687 9 -14220170.08247  21524697.672    21524705.4174
  21789237.866   -16228284.613 8 -12598992.19547  21789241.006    21789248.9034
  24379868.509    -1993903.421 7  -1543727.12545  24379871.436    24379884.4344
  24368968.395    -3457947.003 7  -2675622.84645  24368969.209    24368980.8474
  24045386.111    -4249947.885 8  -3296546.28845  24045386.508    24045396.9394
 00  3 23  3 29  0.0000000  0  7 09 17 23 26 03 21 29
  21404041.999   -16907254.959 9 -12908266.23147  21404047.986    21404058.2534
  20063640.106   -24069188.970 9 -18735469.91248  20063643.569    20063652.0094
  21516682.400   -18317373.781 9 -14252983.88347  21516683.835    21516691.6644
  21805325.894   -16143748.133 9 -12533119.63947  21805328.422    21805336.4094
  24376788.350    -2010103.964 7  -1556350.88445  24376788.809    24376800.5484
  24354042.152    -3536375.558 8  -2736735.85545  24354045.802    24354056.5544
  24028301.492    -4339730.842 8  -3366506.85945  24028299.979    24028312.3744
 00  3 23  3 29 30.0000000  0  7 09 17 23 26 03 21 29
  21392056.093   -16970259.339 9 -12957360.49347  21392058.801    21392067.7254
  20066731.403   -24052949.350 9 -18722815.66848  20066733.870    20066742.1734
  21508696.204   -18359350.121 9 -14285692.67847  21508696.296    21508704.0864
  21821451.871   -16059013.535 9 -12467092.69947  21821452.557    21821461.2984
  24373804.480    -2025770.657 7  -1568558.65345  24373806.418    24373819.1544
  24339115.921    -3614828.734 8  -2797868.09845  24339117.677    24339127.7544
  24011238.132    -4429341.800 7  -3436333.32545  24011246.624    24011260.2194
 00  3 23  3 30  0.0000000  0  7 09 17 23 26 03 21 29
  21380159.218   -17032785.762 9 -13006082.31847  21380160.513    21380169.4014
  20069934.458   -24036109.508 9 -18709693.72348  20069938.133    20069946.7684
  21500732.702   -18401192.108 9 -14318296.77847  21500733.927    21500741.0594
  21837613.506   -15974071.721 8 -12400904.30247  21837616.171    21837625.0344
  24370923.469    -2040902.689 7  -1580349.75745  24370928.906    24370938.4514
  24324180.486    -3693329.538 8  -2859037.45345  24324178.754    24324189.7844
  23994231.446    -4518763.994 8  -3506012.73445  23994229.906    23994241.4164
 00  3 23  3 30 30.0000000  0  7 09 17 23 26 03 21 29
  21368353.361   -17094822.043 9 -13054422.21147  21368355.394    21368364.9284
  20073256.048   -24018660.839 9 -18696097.37448  20073258.829    20073267.2824
  21492794.633   -18442905.615 9 -14350800.77547  21492796.232    21492803.6124
  21853817.889   -15888918.369 8 -12334551.07847  21853820.397    21853829.3194
  24368142.391    -2055516.665 7  -1591737.18845  24368147.834    24368158.5774
  24309225.238    -3771897.087 8  -2920258.77845  24309227.005    24309238.7134
  23977247.507    -4607997.474 8  -3575545.08445  23977249.680    23977261.4754
 00  3 23  3 31  0.0000000  0  7 09 17 23 26 03 21 29
  21356643.791   -17156353.299 9 -13102368.58047  21356645.639    21356655.8914
  20076695.073   -24000591.815 9 -18682017.61748  20076697.289    20076705.7504
  21484879.408   -18484497.959 9 -14383210.35747  21484880.752    21484889.0064
  21870063.748   -15803555.552 8 -12268034.62347  21870064.213    21870073.3964
  24365467.598    -2069600.157 7  -1602711.26345  24365466.840    24365478.4254
  24294260.779    -3850534.679 8  -2981534.67145  24294262.755    24294275.4264
  23960296.951    -4697048.732 8  -3644935.46945  23960302.792    23960314.5144
 00  3 23  3 31 30.0000000  0  7 09 17 23 26 03 21 29
  21345028.122   -17217376.780 9 -13149919.26847  21345033.660    21345043.1554
  20080252.181   -23981896.166 9 -18667449.58748  20080254.505    20080263.3094
  21476983.756   -18525969.685 9 -14415525.96447  21476988.818    21476997.3994
  21886343.082   -15717990.134 8 -12201360.33347  21886346.993    21886356.0074
  24362888.571    -2083127.053 7  -1613251.67545  24362892.961    24362905.0794
  24279288.383    -3929214.749 8  -3042843.66745  24279290.947    24279303.0354
  23943395.212    -4785906.738 8  -3714175.27745  23943395.096    23943406.8924
 00  3 23  3 32  0.0000000  0  7 09 17 23 26 03 21 29
  21333517.856   -17277884.754 9 -13197068.27947  21333519.417    21333528.6444
  20083928.576   -23962578.192 9 -18652396.62848  20083930.825    20083939.2484
  21469114.639   -18567340.389 9 -14447762.84147  21469116.484    21469124.9084
  21902668.642   -15632225.382 9 -12134530.69047  21902668.019    21902676.1634
  24360415.851    -2096112.297 7  -1623369.94545  24360422.233    24360433.0064
  24264308.848    -4007912.890 8  -3104166.77745  24264314.714    24264326.3424
  23926526.927    -4874567.501 7  -3783261.31745  23926521.375    23926534.9014
 00  3 23  3 32 30.0000000  0  7 09 17 23 26 03 21 29
  21322100.615   -17337860.896 9 -13243802.87747  21322105.921    21322115.0964
  20087721.441   -23942644.448 9 -18636863.84848  20087723.997    20087732.8884
  21461263.280   -18608608.691 9 -14479919.92947  21461263.584    21461271.5304
  21919023.514   -15546281.125 9 -12067561.17147  21919022.104    21919029.9014
  24358049.616    -2108554.395 7  -1633065.03345  24358053.317    24358066.4334
  24249334.634    -4086608.285 8  -3165487.81145  24249338.477    24249350.8004
  23909680.970    -4963036.610 8  -3852198.04745  23909687.892    23909698.6304
 00  3 23  3 33  0.0000000  0  7 09 17 23 26 03 21 29
  21310793.405   -17397303.512 9 -13290121.73947  21310794.591    21310804.5644
  20091627.734   -23922107.644 9 -18620861.15348  20091632.256    20091641.0564
  21453432.143   -18649753.936 9 -14511981.13347  21453433.784    21453441.4794
  21935404.056   -15460168.129 8 -12000460.15947  21935409.510    21935417.1474
  24355788.854    -2120452.306 7  -1642336.13045  24355790.201    24355801.1314
  24234352.567    -4165301.691 7  -3226807.21645  24234364.152    24234375.7624
  23892884.439    -5051316.133 8  -3920987.05345  23892887.236    23892899.2134
 00  3 23  3 33 30.0000000  0  7 09 17 23 26 03 21 29
  21299583.565   -17456204.764 9 -13336018.74747  21299586.208    21299595.6344
  20095651.238   -23900972.792 9 -18604392.44248  20095653.971    20095662.6444
  21445627.629   -18690765.405 9 -14543938.08847  21445629.445    21445637.5094
  21951828.966   -15373877.250 8 -11933220.54547  21951830.477    21951838.2784
  24353624.706    -2131824.579 7  -1651197.57745  24353625.600    24353637.1704
  24219386.792    -4243994.102 8  -3288125.84245  24219388.401    24219403.0574
  23876125.452    -5139397.099 8  -3989621.34245  23876127.900    23876138.2944
 00  3 23  3 34  0.0000000  0  7 09 17 23 26 03 21 29
  21288479.647   -17514561.304 9 -13381491.31447  21288481.602    21288490.9074
  20099787.036   -23879241.409 9 -18587458.90948  20099789.469    20099797.6834
  21437852.033   -18731630.065 9 -14575780.64147  21437853.519    21437861.7124
  21968283.843   -15287403.652 8 -11865838.55547  21968285.386    21968293.4074
  24351556.527    -2142688.453 7  -1659662.90445  24351557.531    24351569.9404
  24204404.890    -4322697.774 8  -3349453.27245  24204412.558    24204424.4474
  23859402.434    -5227287.577 8  -4058107.24545  23859401.752    23859413.0704
 00  3 23  3 34 30.0000000  0  7 09 17 23 26 03 21 29
  21277478.399   -17572373.316 9 -13426539.57747  21277480.145    21277488.8704
  20104035.535   -23856913.922 9 -18570060.87248  20104038.223    20104046.3824
  21430105.580   -18772328.482 9 -14607493.66047  21430108.394    21430116.7564
  21984770.795   -15200752.388 8 -11798318.12547  21984774.025    21984782.9294
  24349580.230    -2153036.874 7  -1667726.60445  24349588.300    24349600.9744
  24189428.002    -4401423.254 8  -3410797.68645  24189432.800    24189444.3504
  23842713.030    -5314999.326 8  -4126453.83445  23842709.960    23842720.6174
 00  3 23  3 35  0.0000000  0  7 09 17 23 26 03 21 29
  21266582.048   -17629635.637 9 -13471159.51547  21266583.257    21266592.1454
  20108398.200   -23833988.681 9 -18552197.05848  20108400.766    20108409.2084
  21422391.764   -18812863.817 9 -14639079.60147  21422394.891    21422403.1434
  22001299.397   -15113914.499 8 -11730652.27947  22001299.115    22001308.0854
  24347723.843    -2162882.411 7  -1675398.42445  24347715.956    24347726.2174
  24174448.082    -4480175.682 8  -3472163.11045  24174446.479    24174456.9964
  23826035.411    -5402530.997 7  -4194660.13445  23826052.139    23826063.8764
 00  3 23  3 35 30.0000000  0  7 09 17 23 26 03 21 29
  21255787.760   -17686357.146 9 -13515358.03447  21255789.551    21255798.5694
  20112875.869   -23810461.621 9 -18533864.29948  20112877.807    20112886.1584
  21414707.063   -18853249.931 9 -14670549.26247  21414709.058    21414717.8504
  22017852.533   -15026898.539 8 -11662847.68047  22017857.401    22017866.4104
  24345933.533    -2172222.514 7  -1682676.35945  24345935.865    24345949.7404
  24159451.044    -4558948.423 8  -3533544.34145  24159455.758    24159467.1254
  23809436.341    -5489879.816 7  -4262723.93345  23809430.128    23809441.3584
 00  3 23  3 36  0.0000000  0  7 09 17 23 26 03 21 29
  21245094.802   -17742552.704 9 -13559146.73247  21245095.768    21245104.5334
  20117467.458   -23786337.304 9 -18515066.13748  20117468.560    20117477.0894
  21407049.961   -18893490.917 9 -14701905.83847  21407051.788    21407060.7074
  22034437.032   -14939722.150 8 -11594918.06547  22034446.247    22034455.3124
  24344251.855    -2181056.908 7  -1689560.22845  24344257.262    24344266.9984
  24144447.630    -4637745.925 8  -3594944.87045  24144459.782    24144472.2474
  23792835.795    -5577056.547 8  -4330653.66245  23792841.916    23792851.7904
 00  3 23  3 36 30.0000000  0  7 09 17 23 26 03 21 29
  21234503.409   -17798218.299 9 -13602522.46847  21234503.131    21234512.0434
  20122168.723   -23761609.876 9 -18495798.02548  20122173.910    20122182.6984
  21399420.950   -18933592.238 9 -14733153.59048  21399421.205    21399429.3754
  22051059.679   -14852401.110 8 -11526875.73347  22051062.877    22051071.8774
  24342662.345    -2189389.561 7  -1696053.16745  24342669.424    24342680.3544
  24129459.747    -4716576.201 8  -3656370.96445  24129460.445    24129469.8624
  23776287.395    -5664054.087 8  -4398443.77545  23776288.060    23776297.7384
 00  3 23  3 37  0.0000000  0  7 09 17 23 26 03 21 29
  21224006.805   -17853353.149 9 -13645484.63347  21224011.027    21224020.0794
  20126993.323   -23736270.547 9 -18476053.10448  20126995.724    20127004.6714
  21391815.156   -18973552.932 9 -14764291.75548  21391816.567    21391825.0644
  22067701.559   -14764941.769 8 -11458725.64847  22067706.072    22067714.3784
  24341176.402    -2197223.663 7  -1702157.64345  24341180.695    24341191.0154
  24114446.697    -4795441.554 8  -3717824.38045  24114451.822    24114463.5964
  23759770.527    -5750860.991 8  -4466085.30545  23759768.132    23759778.8444
 00  3 23  3 37 30.0000000  0  7 09 17 23 26 03 21 29
  21213610.936   -17907969.062 9 -13688042.42747  21213617.307    21213626.7434
  20131930.531   -23710324.041 9 -18455835.06048  20131932.952    20131941.8974
  21384236.301   -19013372.751 9 -14795320.15747  21384238.922    21384246.9974
  22084371.101   -14677348.933 8 -11390471.53547  22084374.709    22084383.2704
  24339789.660    -2204552.425 7  -1707868.28245  24339783.835    24339798.4744
  24099436.194    -4874334.281 8  -3779299.13445  24099438.149    24099448.7544
  23743282.411    -5837479.188 8  -4533579.81145  23743285.221    23743295.4814
 00  3 23  3 38  0.0000000  0  7 09 17 23 26 03 21 29
  21203323.456   -17962054.810 9 -13730187.11247  21203325.651    21203335.2224
  20136983.023   -23683773.457 9 -18435146.30948  20136985.850    20136994.4254
  21376684.644   -19053054.395 9 -14826240.91047  21376687.813    21376696.2314
  22101066.439   -14589599.091 8 -11322095.07247  22101072.793    22101082.4184
  24338475.599    -2211379.884 7  -1713188.36445  24338485.188    24338496.5384
  24084418.710    -4953255.593 8  -3840796.16145  24084420.178    24084431.9864
  23726830.763    -5923904.880 8  -4600924.29745  23726837.129    23726849.8074
 00  3 23  3 38 30.0000000  0  7 09 17 23 26 03 21 29
  21193134.497   -18015598.826 9 -13771909.66747  21193136.499    21193145.5694
  20142154.396   -23656608.187 9 -18413978.58148  20142155.474    20142163.9104
  21369160.736   -19092604.744 9 -14857059.32747  21369161.355    21369169.9164
  22117798.805   -14501670.988 8 -11253579.70347  22117805.049    22117814.0894
  24337279.149    -2217694.204 7  -1718108.57045  24337284.759    24337295.7164
  24069397.605    -5032200.635 8  -3902311.65845  24069398.767    24069409.7004
  23710434.496    -6010123.127 8  -4668107.19645  23710431.530    23710441.3414
 00  3 23  3 39  0.0000000  0  7 09 17 23 26 03 21 29
  21183047.849   -18068608.493 9 -13813215.84347  21183049.487    21183058.2274
  20147439.598   -23628829.388 9 -18392332.78248  20147441.371    20147449.7844
  21361657.671   -19132031.073 9 -14887781.11947  21361659.202    21361667.3814
  22134572.749   -14413541.162 8 -11184907.14647  22134576.058    22134584.4664
  24336178.797    -2223484.942 7  -1722620.80245  24336182.449    24336194.0144
  24054369.139    -5111150.929 8  -3963831.25245  24054374.844    24054384.8174
  23694061.163    -6096138.680 8  -4735132.10045  23694063.955    23694074.3114
 00  3 23  3 39 30.0000000  0  7 09 17 23 26 03 21 29
  21173061.861   -18121080.802 9 -13854103.31147  21173064.026    21173072.8474
  20152839.487   -23600439.983 9 -18370211.18148  20152843.906    20152851.9864
  21354179.442   -19171329.470 9 -14918403.21848  21354180.774    21354189.4824
  22151384.288   -14325201.692 8 -11116071.23547  22151386.212    22151395.5024
  24335178.315    -2228742.371 7  -1726717.44045  24335182.199    24335193.7104
  24039350.725    -5190094.750 8  -4025345.81145  24039352.465    24039362.0844
  23677729.213    -6181962.427 8  -4802007.56345  23677731.107    23677742.4324
 00  3 23  3 40  0.0000000  0  7 09 17 23 26 03 21 29
  21163181.899   -18172999.819 9 -13894559.63347  21163184.049    21163193.0434
  20158363.334   -23571425.817 9 -18347602.75148  20158365.173    20158373.4194
  21346725.044   -19210490.176 9 -14948918.02448  21346728.778    21346737.4724
  22168233.401   -14236655.513 8 -11047074.26347  22168236.438    22168245.0884
  24334286.174    -2233464.633 7  -1730397.08545  24334284.180    24334296.5784
  24024330.995    -5269039.356 8  -4086860.97345  24024329.955    24024339.3274
  23661433.897    -6267594.538 8  -4868733.69646  23661436.536    23661447.5514
 00  3 23  3 40 30.0000000  0  7 09 17 23 26 03 21 29
  21153407.289   -18224365.220 9 -13934584.57647  21153409.743    21153418.1724
  20164001.900   -23541786.028 9 -18324506.82848  20164005.414    20164013.5544
  21339303.478   -19249501.698 9 -14979316.59147  21339304.942    21339313.2794
  22185118.550   -14147937.136 8 -10977943.11447  22185119.283    22185127.8564
  24333481.017    -2237640.066 7  -1733650.59745  24333487.700    24333500.5234
  24009304.389    -5347978.416 8  -4148371.84345  24009308.163    24009318.2004
  23645169.982    -6353035.240 8  -4935310.70646  23645177.199    23645188.3024
 00  3 23  3 41  0.0000000  0  7 09 17 23 26 03 21 29
  21143738.868   -18275167.402 9 -13974170.63747  21143742.253    21143751.2174
  20169759.739   -23511536.152 9 -18300935.50348  20169761.692    20169770.0904
  21331907.708   -19288356.207 9 -15009592.80748  21331911.119    21331919.8344
  22202028.627   -14059069.200 8 -10908695.41047  22202030.015    22202038.8624
  24332792.037    -2241278.581 7  -1736485.82545  24332795.347    24332808.9624
  23994281.369    -5426912.361 8  -4209878.72246  23994286.860    23994297.1894
  23628945.585    -6438289.766 8  -5001742.64746  23628954.019    23628964.0454
 00  3 23  3 41 30.0000000  0  7 09 17 23 26 03 21 29
  21134181.408   -18325391.576 9 -14013306.30747  21134185.159    21134193.9684
  20175629.182   -23480685.085 9 -18276895.72848  20175632.308    20175641.0634
  21324544.634   -19327058.567 9 -15039750.46848  21324546.549    21324554.7414
  22218959.909   -13970072.850 8 -10839347.64447  22218965.045    22218974.5054
  24332198.603    -2244389.757 7  -1738910.06845  24332202.275    24332216.2174
  23979264.211    -5505851.304 8  -4271389.46945  23979264.607    23979275.5284
  23612765.845    -6523349.397 8  -5068022.71046  23612767.474    23612778.6054
 00  3 23  3 42  0.0000000  0  7 09 17 23 26 03 21 29
  21124735.227   -18375039.433 9 -14051992.89347  21124737.078    21124746.4294
  20181614.968   -23449240.770 9 -18252393.68648  20181616.092    20181624.6494
  21317205.639   -19365622.446 9 -15069800.22048  21317207.742    21317216.1034
  22235920.776   -13880957.652 8 -10769907.27147  22235923.040    22235933.1614
  24331706.341    -2246978.357 7  -1740927.14845  24331712.154    24331722.3664
  23964242.583    -5584810.901 8  -4332916.30846  23964239.642    23964251.1264
  23596620.665    -6608202.184 8  -5134141.57545  23596618.412    23596630.7954
 00  3 23  3 42 30.0000000  0  7 09 17 23 26 03 21 29
  21115397.725   -18424115.352 9 -14090233.82347  21115398.657    21115407.5014
  20187707.175   -23417223.812 9 -18227445.42048  20187708.717    20187717.0804
  21309892.819   -19404047.260 9 -15099741.59448  21309895.732    21309904.2164
  22252900.862   -13791723.081 8 -10700373.90546  22252903.827    22252913.7014
  24331321.657    -2249041.647 7  -1742534.88245  24331319.588    24331328.8544
  23949208.139    -5663795.712 8  -4394462.81646  23949210.142    23949220.0884
  23580506.936    -6692838.147 8  -5200091.50945  23580513.820    23580524.3624
 00  3 23  3 43  0.0000000  0  7 09 17 23 26 03 21 29
  21106166.582   -18472617.592 9 -14128027.73847  21106169.102    21106177.7624
  20193907.766   -23384635.383 9 -18202051.85648  20193910.371    20193918.2984
  21302607.874   -19442341.823 9 -15129581.49248  21302608.317    21302616.9934
  22269908.067   -13702348.702 8 -10630731.57847  22269911.851    22269921.3154
  24331012.175    -2250594.111 7  -1743744.61345  24331022.992    24331035.0304
  23934173.884    -5742806.175 8  -4456029.32246  23934175.449    23934184.4244
  23564444.147    -6777271.363 8  -5265883.47245  23564446.647    23564456.5834
 00  3 23  3 43 30.0000000  0  7 09 17 23 26 03 21 29
  21097043.898   -18520559.714 9 -14165385.20047  21097045.810    21097054.0884
  20200218.953   -23351465.358 9 -18176205.09748  20200222.342    20200230.5054
  21295344.857   -19480503.198 9 -15159317.61748  21295346.761    21295355.0134
  22286944.722   -13612826.070 8 -10560973.74747  22286947.346    22286957.0244
  24330832.553    -2251634.467 7  -1744555.27445  24330826.275    24330836.4664
  23919128.384    -5821842.971 8  -4517616.32045  23919133.700    23919144.7024
  23548411.439    -6861508.650 8  -5331522.75945  23548417.219    23548427.8734
 00  3 23  3 44  0.0000000  0  7 09 17 23 26 03 21 29
  21088023.542   -18567945.225 9 -14202308.92747  21088027.920    21088036.6904
  20206644.135   -23317700.687 9 -18149894.98648  20206647.311    20206655.9024
  21288111.812   -19518516.212 9 -15188938.12348  21288112.918    21288121.3674
  22304012.098   -13523146.511 8 -10491093.63846  22304013.007    22304022.1014
  24330722.978    -2252165.311 7  -1744968.92045  24330724.415    24330735.8534
  23904080.804    -5900907.963 8  -4579225.29945  23904086.835    23904098.9224
  23532422.014    -6945549.811 8  -5397009.19645  23532424.905    23532434.5604
 00  3 23  3 44 30.0000000  0  7 09 17 23 26 03 21 29
  21079117.646   -18614767.573 9 -14238793.81747  21079118.305    21079126.7644
  20213186.535   -23283330.001 9 -18123112.65348  20213187.807    20213196.6444
  21280906.071   -19556378.940 9 -15218441.53248  21280907.746    21280916.2624
  22321101.675   -13433307.517 8 -10421089.27846  22321108.352    22321116.9954
  24330716.969    -2252200.184 7  -1744996.09945  24330717.356    24330729.5054
  23889028.991    -5979994.627 8  -4640851.19045  23889037.539    23889049.4544
  23516468.096    -7029395.289 8  -5462343.19245  23516469.465    23516478.8864
 00  3 23  3 45  0.0000000  0  7 09 17 23 26 03 21 29
  21070312.501   -18661026.323 9 -14274839.56147  21070315.409    21070324.1764
  20219845.870   -23248332.416 9 -18095841.82848  20219847.745    20219856.3844
  21273725.452   -19594103.060 9 -15247836.94047  21273729.190    21273737.5314
  22338235.614   -13343314.045 8 -10350964.53546  22338233.663    22338242.1584
  24330797.493    -2251750.950 7  -1744646.01545  24330804.698    24330812.7624
  23873982.327    -6059099.389 8  -4702491.18145  23873985.253    23873995.5124
  23500545.754    -7113052.027 8  -5527530.10945  23500549.489    23500559.2604
 00  3 23  3 45 30.0000000  0  7 09 17 23 26 03 21 29
  21061618.013   -18706722.095 9 -14310446.62047  21061619.494    21061628.6854
  20226626.633   -23212702.641 9 -18068078.38748  20226628.100    20226636.0594
  21266578.039   -19631678.639 9 -15277116.60248  21266579.147    21266587.1204
  22355381.800   -13253181.999 8 -10280731.80146  22355385.495    22355393.3834
  24330976.188    -2250814.911 7  -1743916.66845  24330981.366    24330992.7694
  23858919.328    -6138234.565 8  -4764154.86145  23858925.870    23858936.1904
  23484666.421    -7196496.108 8  -5592551.36145  23484671.596    23484680.6744
 00  3 23  3 46  0.0000000  0  7 09 17 23 26 03 21 29
  21053032.787   -18751838.486 9 -14345602.20447  21053034.635    21053043.5524
  20233524.892   -23176445.220 9 -18039825.86748  20233527.699    20233535.6914
  21259456.070   -19669107.788 9 -15306282.15448  21259456.674    21259464.7214
  22372559.008   -13162921.844 8 -10210399.25946  22372561.907    22372570.1514
  24331250.827    -2249386.764 7  -1742803.82745  24331254.214    24331264.0204
  23843854.553    -6217396.181 8  -4825839.10745  23843860.333    23843872.3894
  23468831.150    -7279717.389 8  -5657398.96946  23468834.170    23468845.2554
 00  3 23  3 46 30.0000000  0  7 09 17 23 26 03 21 29
  21044559.277   -18796364.284 9 -14380297.58847  21044561.006    21044569.9524
  20240540.389   -23139575.080 9 -18011095.91048  20240543.563    20240552.0194
  21252360.134   -19706390.585 9 -15335333.66147  21252361.503    21252369.8794
  22389757.797   -13072548.550 8 -10139978.57046  22389758.714    22389767.7354
  24331622.127    -2247454.617 7  -1741298.26345  24331620.905    24331629.8614
  23828792.528    -6296573.879 8  -4887535.94645  23828793.253    23828804.4494
  23453034.183    -7362726.546 8  -5722081.26645  23453037.107    23453048.3764
 00  3 23  3 47  0.0000000  0  7 09 17 23 26 03 21 29
  21036200.849   -18840291.685 9 -14414526.68947  21036201.914    21036210.5774
  20247671.399   -23102100.931 9 -17981895.29848  20247674.721    20247683.2924
  21245293.141   -19743516.871 9 -15364263.21548  21245296.742    21245304.9724
  22406970.972   -12982066.654 8 -10069473.24346  22406977.014    22406986.4414
  24332088.349    -2245005.101 7  -1739389.51345  24332087.406    24332097.9114
  23813719.338    -6375757.579 8  -4949237.43645  23813726.229    23813735.8554
  23437276.395    -7445534.162 8  -5786606.51245  23437279.619    23437289.1784
 00  3 23  3 47 30.0000000  0  7 09 17 23 26 03 21 29
  21027957.880   -18883609.495 9 -14448280.78847  21027959.107    21027968.0384
  20254915.563   -23064038.944 9 -17952236.62648  20254917.874    20254926.2094
  21238258.910   -19780480.723 9 -15393066.21148  21238262.554    21238270.9314
  22424216.196   -12891470.243 8  -9998878.68946  22424216.862    22424226.1914
  24332654.482    -2242030.462 7  -1737071.59245  24332653.522    24332663.4354
  23798656.205    -6454933.134 8  -5010932.62645  23798659.920    23798668.4044
  23421558.347    -7528144.972 8  -5850978.40445  23421559.211    23421569.2114
 00  3 23  3 48  0.0000000  0  7 09 17 23 26 03 21 29
  21019833.655   -18926304.655 9 -14481549.69747  21019835.006    21019843.3964
  20262267.908   -23025398.271 9 -17922127.02748  20262270.681    20262279.3054
  21231257.411   -19817287.593 9 -15421746.86648  21231258.431    21231267.0174
  22441477.676   -12800755.435 8  -9928191.88346  22441479.405    22441488.9604
  24333318.724    -2238529.882 7  -1734343.83145  24333320.347    24333327.7664
  23783587.239    -6534094.511 8  -5072616.73245  23783594.625    23783605.9814
  23405875.985    -7610571.504 8  -5915206.73745  23405874.776    23405883.9824
 00  3 23  3 48 30.0000000  0  7 09 17 23 26 03 21 29
  21011824.566   -18968390.005 9 -14514343.43648  21011826.386    21011834.9024
  20269732.956   -22986180.478 9 -17891567.73548  20269733.832    20269742.1634
  21224282.662   -19853940.989 9 -15450307.93848  21224284.174    21224292.1484
  22458764.101   -12709916.308 8  -9857408.21946  22458765.449    22458774.0164
  24334082.675    -2234509.007 7  -1731210.68545  24334084.680    24334095.0044
  23768538.488    -6613254.412 8  -5134299.67845  23768531.558    23768543.1204
  23390221.879    -7692815.558 8  -5979292.87945  23390223.419    23390232.7764
 00  3 23  3 49  0.0000000  0  7 09 17 23 26 03 21 29
  21003924.936   -19009889.838 9 -14546680.92247  21003929.188    21003937.4564
  20277306.945   -22946374.023 9 -17860549.74448  20277308.594    20277317.0254
  21217335.063   -19890446.370 9 -15478753.68148  21217337.199    21217345.1294
  22476069.897   -12618947.353 8  -9786523.37546  22476075.926    22476084.7474
  24334938.099    -2229976.799 7  -1727679.08345  24334946.762    24334958.5444
  23753466.703    -6692421.479 8  -5195988.21345  23753467.260    23753476.8954
  23374606.819    -7774873.908 8  -6043234.31046  23374608.978    23374618.9044
 00  3 23  3 49 30.0000000  0  7 09 17 23 26 03 21 29
  20996140.794   -19050812.407 9 -14578568.60547  20996141.570    20996149.9844
  20284992.735   -22905972.453 9 -17829068.02548  20284996.565    20285005.3634
  21210414.539   -19926810.957 9 -15507089.70448  21210417.261    21210424.8674
  22493405.699   -12527850.014 8  -9715538.48746  22493411.496    22493420.7184
  24335908.550    -2224936.681 7  -1723751.77145  24335906.736    24335918.3914
  23738393.989    -6771613.658 8  -5257696.29946  23738398.078    23738407.3584
  23359026.001    -7856727.141 8  -6107015.92346  23359032.540    23359041.2144
 00  3 23  3 50  0.0000000  0  7 09 17 23 26 03 21 29
  20988460.550   -19091167.319 9 -14610013.95047  20988462.558    20988470.7974
  20292796.492   -22864974.895 9 -17797121.90048  20292798.336    20292807.2214
  21203525.318   -19963022.815 9 -15535306.72448  21203526.598    21203534.3024
  22510765.430   -12436639.250 8  -9644465.24646  22510768.719    22510777.7934
  24336954.081    -2219383.320 7  -1719424.42845  24336963.107    24336974.1504
  23723314.992    -6850846.499 8  -5319436.12846  23723320.034    23723329.4414
  23343495.402    -7938362.686 8  -6170627.89946  23343498.128    23343507.6974
 00  3 23  3 50 30.0000000  0  7 09 17 23 26 03 21 29
  20980886.418   -19130971.004 9 -14641029.77447  20980888.312    20980896.2284
  20300714.496   -22823369.378 9 -17764702.04448  20300715.682    20300724.3974
  21196665.846   -19999072.226 9 -15563397.18648  21196667.073    21196674.4334
  22528139.288   -12345318.991 8  -9573306.66446  22528147.164    22528156.0894
  24338118.253    -2213318.234 7  -1714698.41545  24338118.966    24338127.9454
  23708233.721    -6930109.505 8  -5381199.39446  23708236.846    23708245.4154
  23328004.987    -8019785.426 8  -6234074.08946  23328004.095    23328013.2754
 00  3 23  3 51  0.0000000  0  7 09 17 23 26 03 21 29
  20973416.091   -19170214.293 9 -14671608.92647  20973420.128    20973428.2274
  20308744.745   -22781151.602 9 -17731805.10848  20308749.171    20308758.4584
  21189836.909   -20034955.408 9 -15591358.09848  21189838.133    21189846.4634
  22545542.971   -12253897.678 8  -9502069.33046  22545543.435    22545553.2874
  24339369.214    -2206740.929 7  -1709573.24445  24339369.841    24339377.9624
  23693148.784    -7009384.755 8  -5442972.23446  23693151.087    23693159.5124
  23312546.597    -8100994.365 8  -6297353.62946  23312548.815    23312559.2024
 00  3 23  3 51 30.0000000  0  7 09 17 23 26 03 21 29
  20966058.181   -19208873.341 9 -14701732.82448  20966063.286    20966072.2494
  20316893.660   -22738333.944 9 -17698440.73048  20316897.349    20316906.2294
  21183041.071   -20070659.850 9 -15619179.72748  21183043.694    21183052.2344
  22562950.176   -12162377.522 8  -9430754.98746  22562957.979    22562968.5084
  24340715.365    -2199654.417 7  -1704051.27945  24340719.093    24340730.1764
  23678063.860    -7088660.805 8  -5504745.71446  23678065.644    23678075.3284
  23297137.120    -8181978.188 8  -6360457.79346  23297137.666    23297148.7514
 00  3 23  3 52  0.0000000  0  7 09 17 23 26 03 21 29
  20958816.945   -19246947.093 9 -14731400.65148  20958818.404    20958826.8584
  20325156.779   -22694919.476 9 -17664611.30248  20325159.023    20325167.1454
  21176279.898   -20106183.235 9 -15646860.27248  21176283.545    21176291.6384
  22580387.318   -12070761.639 8  -9359366.04446  22580392.825    22580402.4704
  24342163.950    -2192071.012 7  -1698142.13045  24342159.502    24342170.6504
  23662982.930    -7167917.304 8  -5566503.97046  23662984.192    23662993.2414
  23281766.248    -8262750.027 8  -6423396.77646  23281768.148    23281778.6904
 00  3 23  3 52 30.0000000  0  7 09 17 23 26 03 21 29
  20951680.336   -19284437.745 9 -14760614.10247  20951683.743    20951692.6444
  20333531.079   -22650905.354 9 -17630314.60748  20333534.587    20333542.8754
  21169551.526   -20141546.716 9 -15674416.22148  21169554.587    21169562.6494
  22597844.407   -11979045.846 8  -9287899.27346  22597846.409    22597855.5724
  24343685.859    -2184008.968 7  -1691860.06745  24343694.594    24343705.1204
  23647910.518    -7247141.232 8  -5628236.82246  23647907.669    23647916.2724
  23266438.969    -8343311.832 8  -6486172.10346  23266438.278    23266447.7014
 00  3 23  3 53  0.0000000  0  7 09 17 23 26 03 21 29
  20944664.046   -19321332.751 9 -14789363.42247  20944662.781    20944671.2724
  20342017.736   -22606310.751 9 -17595565.59548  20342020.615    20342029.3184
  21162853.887   -20176747.161 9 -15701845.14348  21162855.829    21162863.9534
  22615312.675   -11887221.681 8  -9216348.03146  22615320.514    22615328.6434
  24345317.134    -2175461.976 7  -1685200.07345  24345321.642    24345331.0234
  23632833.397    -7326343.087 8  -5689952.47846  23632835.275    23632844.3594
  23251143.328    -8423657.255 8  -6548778.84646  23251148.291    23251157.7494
 00  3 23  3 53 30.0000000  0  7 09 17 23 26 03 21 29
  20937755.219   -19357626.968 9 -14817644.59247  20937756.525    20937764.7904
  20350615.948   -22561134.571 9 -17560363.40848  20350617.415    20350625.9364
  21156185.089   -20211781.922 9 -15729144.94748  21156189.085    21156197.2894
  22632811.551   -11795290.485 8  -9144713.39446  22632814.234    22632823.6094
  24347038.748    -2166439.848 7  -1678169.81845  24347039.039    24347046.5354
  23617763.932    -7405534.414 8  -5751659.92446  23617765.905    23617774.7584
  23235894.965    -8503786.454 8  -6611217.06446  23235898.947    23235909.7034
 00  3 23  3 54  0.0000000  0  7 09 17 23 26 03 21 29
  20930960.092   -19393323.523 9 -14845460.05447  20930963.515    20930972.0284
  20359323.262   -22515370.109 9 -17524702.81748  20359326.286    20359334.7484
  21149550.702   -20246666.486 9 -15756327.72448  21149550.512    21149558.8244
  22650324.995   -11703251.384 8  -9072994.68546  22650328.601    22650338.1574
  24348846.480    -2156937.904 7  -1670765.70845  24348847.152    24348855.3324
  23602695.493    -7484726.459 8  -5813367.94146  23602695.646    23602705.0804
  23220689.955    -8583710.695 8  -6673495.56546  23220690.195    23220701.0144
 00  3 23  3 54 30.0000000  0  7 09 17 23 26 03 21 29
  20924284.703   -19428407.407 9 -14872798.11347  20924287.154    20924295.9024
  20368143.244   -22469015.173 9 -17488582.11848  20368147.148    20368155.8014
  21142939.448   -20281385.254 9 -15783381.30148  21142943.585    21142951.8774
  22667858.619   -11611100.103 8  -9001188.55046  22667864.396    22667874.0054
  24350744.889    -2146935.236 7  -1662971.40145  24350747.587    24350760.2474
  23587618.933    -7563933.657 8  -5875087.77246  23587623.182    23587633.5124
  23205513.621    -8663429.707 8  -6735614.19146  23205520.179    23205529.3784
 00  3 23  3 55  0.0000000  0  7 09 17 23 26 03 21 29
  20917730.519   -19462854.036 9 -14899639.60247  20917732.116    20917740.8004
  20377081.423   -22422063.953 9 -17451996.78148  20377081.698    20377090.3884
  21136367.950   -20315929.457 9 -15810298.86048  21136369.833    21136378.2134
  22685419.600   -11518845.578 8  -8929301.96946  22685419.931    22685429.6494
  24352749.127    -2136425.029 7  -1654781.64545  24352749.773    24352758.7204
  23572541.382    -7643162.050 8  -5936824.09946  23572546.673    23572556.4584
  23190388.388    -8742946.271 8  -6797575.08246  23190389.392    23190398.7744
 00  3 23  3 55 30.0000000  0  7 09 17 23 26 03 21 29
  20911300.844   -19496650.578 9 -14925974.53047  20911301.124    20911309.8454
  20386133.124   -22374497.324 9 -17414931.90048  20386133.519    20386142.3154
  21129825.025   -20350322.848 9 -15837098.89048  21129825.139    21129833.9134
  22702988.965   -11426499.942 8  -8857344.41746  22702992.606    22703002.2084
  24354839.560    -2125413.070 7  -1646200.91445  24354844.717    24354855.7924
  23557461.332    -7722401.577 8  -5998569.11046  23557467.471    23557477.2734
  23175291.092    -8822248.985 8  -6859369.30346  23175297.822    23175307.6334
 00  3 23  3 56  0.0000000  0  7 09 17 23 26 03 21 29
  20904989.281   -19529797.861 9 -14951803.54548  20904993.418    20905001.7594
  20395296.966   -22326327.710 9 -17377397.17048  20395299.478    20395308.7394
  21123308.099   -20384566.249 9 -15863782.04648  21123309.158    21123317.8714
  22720579.896   -11334058.754 8  -8785312.39746  22720582.636    22720593.2834
  24357032.370    -2113882.600 7  -1637216.21045  24357037.182    24357053.7914
  23542383.853    -7801639.706 8  -6060313.03746  23542388.091    23542399.0114
  23160243.280    -8901338.623 8  -6920997.49746  23160247.148    23160258.0894
 00  3 23  3 56 30.0000000  0  7 09 17 23 26 03 21 29
  20898806.956   -19562296.597 9 -14977127.20347  20898808.696    20898817.1154
  20404575.631   -22277559.251 9 -17339395.81448  20404579.833    20404589.0764
  21116821.270   -20418656.343 9 -15890345.74148  21116822.176    21116830.3604
  22738184.705   -11241534.935 8  -8713215.96746  22738189.675    22738198.8104
  24359337.256    -2101834.407 7  -1627827.96545  24359331.199    24359342.0274
  23527306.506    -7880875.131 8  -6122054.87546  23527310.674    23527320.9314
  23145240.475    -8980202.832 8  -6982450.02446  23145240.376    23145250.4184
 00  3 23  3 57  0.0000000  0  7 09 17 23 26 03 21 29
  20892744.453   -19594159.740 9 -15001955.60447  20892745.267    20892753.5754
  20413969.736   -22228203.251 9 -17300936.62648  20413972.580    20413980.9734
  21110358.801   -20452606.356 9 -15916800.29648  21110361.536    21110369.5944
  22755807.624   -11148936.222 8  -8641061.19546  22755810.438    22755821.1034
  24361711.032    -2089281.380 7  -1618046.35445  24361719.903    24361731.4284
  23512232.426    -7960099.724 8  -6183788.26446  23512234.570    23512244.4004
  23130278.467    -9058829.924 8  -7043717.80446  23130278.675    23130287.2714
 00  3 23  3 57 30.0000000  0  7 09 17 23 26 03 21 29
  20886795.489   -19625418.615 9 -15026313.13247  20886797.002    20886805.4444
  20423473.593   -22178269.613 9 -17262027.32348  20423474.573    20423482.8684
  21103929.441   -20486399.482 9 -15943132.59448  21103930.634    21103939.1704
  22773451.686   -11056255.209 8  -8568842.30746  22773447.734    22773456.8634
  24364198.795    -2076219.542 7  -1607868.29045  24364205.567    24364217.6924
  23497162.632    -8039309.791 8  -6245510.33946  23497162.077    23497172.1284
  23115358.925    -9137221.693 8  -7104802.18046  23115359.661    23115370.7184
 00  3 23  3 58  0.0000000  0  7 09 17 23 26 03 21 29
  20880958.748   -19656097.117 9 -15050218.42448  20880959.306    20880968.1864
  20433084.213   -22127770.266 9 -17222677.21648  20433084.328    20433092.9564
  21097533.370   -20520010.470 9 -15969322.95348  21097534.832    21097543.4334
  22791096.060   -10963491.634 8  -8496559.07946  22791099.892    22791109.0024
  24366784.600    -2062659.004 7  -1597301.63445  24366786.404    24366797.7974
  23482076.550    -8118519.059 8  -6307231.78846  23482087.600    23482099.0384
  23100477.949    -9215392.206 8  -7165714.17546  23100483.781    23100494.7884
 00  3 23  3 58 30.0000000  0  7 09 17 23 26 03 21 29
  20875228.881   -19686198.201 9 -15073673.79148  20875231.480    20875239.6744
  20442800.193   -22076691.014 9 -17182875.22948  20442804.376    20442812.7024
  21091172.811   -20553436.273 9 -15995369.02548  21091174.067    21091182.4424
  22808761.167   -10870654.132 8  -8424218.23546  22808766.453    22808775.2554
  24369446.401    -2048618.715 7  -1586361.10245  24369457.020    24369470.0884
  23467014.583    -8197731.424 8  -6368955.62246  23467014.559    23467026.3894
  23085649.686    -9293339.332 8  -7226452.09346  23085652.052    23085661.5324
 00  3 23  3 59  0.0000000  0  7 09 17 23 26 03 21 29
  20869611.615   -19715716.047 9 -15096674.67448  20869613.967    20869622.2384
  20452631.871   -22025032.633 9 -17142621.97748  20452634.242    20452643.1144
  21084846.758   -20586670.569 9 -16021265.87648  21084849.497    21084857.9754
  22826446.990   -10777730.648 8  -8351810.38946  22826449.085    22826459.1844
  24372225.221    -2034114.779 7  -1575059.35345  24372217.310    24372229.8944
  23451943.728    -8276940.524 8  -6430676.92746  23451942.517    23451952.5244
  23070853.394    -9371080.051 8  -7287029.16146  23070857.712    23070867.8584
 00  3 23  3 59 30.0000000  0  7 09 17 23 26 03 21 29
  20864105.486   -19744640.990 9 -15119213.55747  20864109.465    20864118.0224
  20462571.324   -21972795.655 9 -17101917.86748  20462574.774    20462583.4694
  21078557.504   -20619715.802 9 -16047015.39448  21078561.369    21078569.7144
  22844149.406   -10684718.210 8  -8279333.22346  22844149.740    22844158.9414
  24375063.871    -2019157.289 7  -1563404.19145  24375064.235    24375075.7594
  23436869.950    -8356158.475 8  -6492405.13346  23436867.333    23436876.5594
  23056098.461    -9448628.791 8  -7347456.66246  23056100.342    23056110.8584
 00  3 23  4  0  0.0000000  0  7 09 17 23 26 03 21 29
  20858724.630   -19772942.157 9 -15141266.38747  20858724.305    20858732.4114
  20472621.891   -21919992.587 9 -17060772.66248  20472622.814    20472631.5874
  21072304.496   -20652588.427 9 -16072630.42148  21072305.862    21072314.2094
  22861862.718   -10591621.685 8  -8206790.52346  22861865.217    22861873.9234
  24377992.093    -2003749.881 7  -1551398.37045  24377994.971    24378006.9394
  23421788.824    -8435387.782 8  -6554142.21546  23421790.045    23421799.7534
  23041372.253    -9525984.937 8  -7407734.06446  23041380.859    23041389.9274
 00  3 23  4  0 30.0000000  0  7 09 17 23 26 03 21 29
  20853462.920   -19800595.350 9 -15162814.29947  20853461.922    20853470.2224
  20482774.157   -21866635.321 9 -17019195.61148  20482776.790    20482785.2484
  21066079.435   -20685299.752 9 -16098119.75648  21066081.032    21066089.3614
  22879600.416   -10498437.830 8  -8134179.77046  22879597.496    22879606.9544
  24381021.820    -1987888.138 7  -1539038.57245  24381016.327    24381025.2114
  23406706.278    -8514618.552 8  -6615880.41746  23406713.283    23406722.9824
  23026696.302    -9603141.570 8  -7467856.00846  23026698.130    23026707.2924
 00  3 23  4  1  0.0000000  0  7 09 17 23 26 03 21 29
  20848319.998   -19827597.142 9 -15183854.63248  20848323.484    20848332.0354
  20493031.012   -21812747.352 9 -16977205.01948  20493031.237    20493039.5574
  21059884.884   -20717849.501 9 -16123483.18248  21059887.171    21059895.1784
  22897340.312   -10405168.724 8  -8061502.63046  22897345.493    22897355.6674
  24384117.157    -1971560.799 7  -1526315.96545  24384122.212    24384131.9494
  23391632.226    -8593855.936 8  -6677623.77946  23391635.155    23391645.0394
  23012049.942    -9680096.605 8  -7527820.87446  23012054.561    23012064.1874
 00  3 23  4  1 30.0000000  0  7 09 17 23 26 03 21 29
  20843303.826   -19853955.526 9 -15204393.60548  20843307.679    20843316.3754
  20503384.660   -21758329.934 9 -16934801.86948  20503386.308    20503395.0664
  21053719.825   -20750245.091 9 -16148726.48848  21053722.543    21053730.5274
  22915104.056   -10311820.146 8  -7988763.55246  22915108.985    22915119.0634
  24387320.017    -1954750.811 7  -1513217.26945  24387319.937    24387331.8864
  23376555.778    -8673089.413 8  -6739364.08846  23376557.395    23376567.1614
  22997451.984    -9756828.577 8  -7587611.93146  22997452.569    22997461.4204
 00  3 23  4  2  0.0000000  0  7 09 17 23 26 03 21 29
  20838409.137   -19879675.177 9 -15224434.86248  20838413.505    20838422.1954
  20513840.896   -21703373.125 9 -16891978.41448  20513844.507    20513853.3184
  21047588.264   -20782476.792 9 -16173842.08448  21047589.299    21047597.0834
  22932882.575   -10218405.005 8  -7915972.59446  22932885.347    22932894.9274
  24390606.765    -1937448.223 7  -1499734.74544  24390612.442    24390626.2674
  23361479.060    -8752297.795 8  -6801084.86746  23361483.927    23361493.4734
  22982893.350    -9833329.482 8  -7647222.90246  22982894.648    22982903.0444
 00  3 23  4  2 30.0000000  0  7 09 17 23 26 03 21 29
  20833635.278   -19904776.837 9 -15243994.55848  20833636.434    20833645.6034
  20524407.757   -21647854.633 9 -16848717.29148  20524409.148    20524418.1144
  21041486.444   -20814533.453 9 -16198821.29848  21041488.568    21041496.5624
  22950667.554   -10124929.226 8  -7843134.37046  22950673.780    22950682.7434
  24393996.632    -1919659.151 7  -1485873.09645  24393999.621    24394009.3184
  23346409.879    -8831477.558 8  -6862783.32546  23346415.870    23346425.7464
  22968378.535    -9909592.171 8  -7706648.27746  22968382.789    22968391.8304
 00  3 23  4  3  0.0000000  0  7 09 17 23 26 03 21 29
  20828974.675   -19929269.073 9 -15263079.38248  20828976.009    20828984.3744
  20535080.658   -21591760.780 9 -16805007.83948  20535083.519    20535092.7754
  21035421.424   -20846410.080 9 -16223660.22448  21035423.053    21035431.0184
  22968471.773   -10031402.090 8  -7770256.13646  22968471.642    22968480.6064
  24397473.949    -1901372.130 7  -1471623.47144  24397478.204    24397487.1814
  23331346.536    -8910624.209 8  -6924455.94846  23331354.595    23331364.7164
  22953915.460    -9985619.709 8  -7765890.41246  22953916.060    22953924.2684
 00  3 23  4  3 30.0000000  0  7 09 17 23 26 03 21 29
  20824430.974   -19953142.740 9 -15281682.21448  20824432.941    20824441.5224
  20545869.186   -21535065.451 9 -16760829.70248  20545872.261    20545881.2284
  21029392.623   -20878099.299 9 -16248353.10748  21029393.016    21029400.5854
  22986275.760    -9937822.612 8  -7697337.12946  22986278.019    22986287.8614
  24401046.137    -1882592.050 7  -1456989.59944  24401051.792    24401062.9014
  23316297.239    -8989727.879 8  -6986095.10246  23316303.490    23316311.9914
  22939487.583   -10061414.363 8  -7824951.09446  22939491.872    22939501.3804
 00  3 23  4  4  0.0000000  0  7 09 17 23 26 03 21 29
  20820006.507   -19976390.119 9 -15299797.03648  20820009.040    20820017.8514
  20556773.133   -21477758.953 9 -16716175.33048  20556777.208    20556786.1054
  21023399.714   -20909586.358 9 -16272888.48548  21023401.080    21023408.8594
  23004089.285    -9844195.369 8  -7624380.88846  23004094.385    23004103.1294
  24404720.142    -1863331.531 7  -1441981.38045  24404718.889    24404726.7914
  23301254.389    -9068804.964 8  -7047713.56546  23301255.500    23301263.1744
  22925108.464   -10136983.513 8  -7883836.03946  22925110.449    22925120.7394
 00  3 23  4  4 30.0000000  0  7 09 17 23 26 03 21 29
  20815704.598   -19998997.201 9 -15317412.92248  20815706.965    20815715.9464
  20567791.744   -21419863.326 9 -16671061.88948  20567794.732    20567803.1594
  21017443.860   -20940879.108 9 -16297272.44548  21017446.285    21017454.0754
  23021916.238    -9750499.361 8  -7551371.03746  23021924.782    23021934.2094
  24408472.212    -1843591.580 7  -1426599.61645  24408475.584    24408484.0694
  23286205.937    -9147866.868 8  -7109320.20846  23286209.889    23286217.9064
  22910772.537   -10212312.531 8  -7942533.84146  22910776.754    22910785.3154
 00  3 23  4  5  0.0000000  0  7 09 17 23 26 03 21 29
  20811525.425   -20020958.683 9 -15334525.73748  20811527.849    20811536.7044
  20578920.766   -21361383.341 9 -16625493.10148  20578923.153    20578931.6224
  21011525.272   -20971989.887 9 -16321514.60248  21011525.994    21011534.0704
  23039768.123    -9656731.804 8  -7478305.45646  23039768.623    23039777.6984
  24412319.390    -1823370.254 7  -1410842.70345  24412322.434    24412331.3514
  23271155.279    -9226920.014 8  -7170919.99546  23271165.066    23271175.8444
  22896484.561   -10287410.431 8  -8001051.61046  22896485.970    22896494.4374
 00  3 23  4  5 30.0000000  0  7 09 17 23 26 03 21 29
  20807468.282   -20042278.799 9 -15351138.79548  20807470.830    20807479.3914
  20590161.306   -21302316.394 9 -16579466.94548  20590162.962    20590172.1044
  21005638.305   -21002920.313 9 -16345616.22748  21005640.028    21005648.5034
  23057620.908    -9562892.342 8  -7405183.84546  23057625.993    23057634.1704
  24416256.631    -1802682.639 7  -1394722.45745  24416258.569    24416267.5214
  23256120.089    -9305971.146 8  -7232518.22646  23256123.608    23256134.0764
  22882236.977   -10362268.127 8  -8059382.19246  22882241.507    22882248.9544
 00  3 23  4  6  0.0000000  0  7 09 17 23 26 03 21 29
  20803530.340   -20062970.376 9 -15367262.08048  20803533.253    20803541.9374
  20601508.487   -21242688.950 9 -16533004.05448  20601509.480    20601518.8934
  20999782.539   -21033680.819 9 -16369585.45348  20999786.559    20999794.9564
  23075494.946    -9468976.891 8  -7332003.00546  23075497.384    23075506.1794
  24420290.071    -1781528.089 7  -1378238.42945  24420285.087    24420295.4534
  23241075.057    -9385027.654 8  -7294120.65346  23241079.763    23241088.7144
  22868039.853   -10436880.561 8  -8117521.64546  22868042.509    22868051.9594
 00  3 23  4  6 30.0000000  0  7 09 17 23 26 03 21 29
  20799713.266   -20083041.358 9 -15382901.78648  20799714.287    20799722.6844
  20612957.508   -21182516.029 9 -16486116.11048  20612960.339    20612969.6474
  20993961.889   -21064278.672 9 -16393427.92548  20993964.119    20993972.0774
  23093380.325    -9374988.768 8  -7258765.56446  23093383.073    23093391.9894
  24424386.786    -1759902.917 7  -1361387.66345  24424398.146    24424407.8714
  23226031.098    -9464083.378 8  -7355722.44646  23226033.895    23226044.4664
  22853882.629   -10511256.370 8  -8175476.72046  22853888.677    22853898.6504
 00  3 23  4  7  0.0000000  0  7 09 17 23 26 03 21 29
  20796009.266   -20102507.511 9 -15398070.20248  20796009.503    20796017.8084
  20624517.052   -21121773.645 9 -16438784.42848  20624519.310    20624528.3914
  20988175.215   -21094697.938 9 -16417131.24048  20988175.467    20988183.7014
  23111273.610    -9280952.262 8  -7185490.41046  23111277.584    23111286.9824
  24428602.376    -1737817.252 7  -1344178.01945  24428603.205    24428612.5904
  23210988.593    -9543138.967 8  -7417324.13446  23210991.392    23211001.1304
  22839778.402   -10585417.100 8  -8233264.20446  22839776.376    22839785.9564
 00  3 23  4  7 30.0000000  0  7 09 17 23 26 03 21 29
  20792419.037   -20121356.195 9 -15412757.47148  20792422.590    20792430.8964
  20636183.182   -21060479.247 9 -16391022.60048  20636183.242    20636192.2734
  20982420.652   -21124923.689 9 -16440683.76248  20982423.438    20982431.9994
  23129184.125    -9186864.455 8  -7112175.30246  23129182.236    23129191.8534
  24432889.422    -1715274.652 7  -1326612.35045  24432892.411    24432901.4504
  23195943.161    -9622189.129 8  -7478921.62746  23195949.333    23195957.9044
  22825704.359   -10659356.257 8  -8290879.04646  22825706.483    22825715.2394
 00  3 23  4  8  0.0000000  0  7 09 17 23 26 03 21 29
  20788953.546   -20139578.275 9 -15426956.47148  20788955.547    20788963.9264
  20647944.451   -20998651.288 9 -16342845.01948  20647948.872    20647957.7454
  20976707.523   -21154952.715 9 -16464083.00348  20976709.122    20976717.5034
  23147091.589    -9092724.973 8  -7038819.90146  23147096.695    23147105.6254
  24437266.264    -1692280.731 7  -1308695.06045  24437266.361    24437277.5914
  23180903.950    -9701224.521 8  -7540507.57346  23180908.823    23180918.6834
  22811675.536   -10733087.027 8  -8348331.48246  22811676.290    22811685.0174
 00  3 23  4  8 30.0000000  0  7 09 17 23 26 03 21 29
  20785606.464   -20157164.032 9 -15440659.64148  20785609.314    20785617.0764
  20659818.060   -20936272.395 9 -16294238.13648  20659819.564    20659827.9684
  20971029.753   -21184776.495 9 -16487322.30148  20971033.339    20971042.0464
  23165013.509    -8998540.712 8  -6965429.60546  23165019.091    23165027.9684
  24441721.068    -1668842.555 7  -1290431.49645  24441725.364    24441738.3864
  23165865.573    -9780247.774 8  -7602084.04346  23165870.446    23165881.2034
  22797679.100   -10806617.174 8  -8405627.62446  22797683.426    22797691.6434
 00  3 23  4  9  0.0000000  0  7 09 17 23 26 03 21 29
  20782384.024   -20174099.369 9 -15453855.98848  20782386.342    20782394.4504
  20671791.319   -20873342.410 9 -16245201.82148  20671794.434    20671803.2094
  20965397.924   -21214391.213 9 -16510398.69248  20965398.732    20965406.8044
  23182956.852    -8904309.002 8  -6892002.35146  23182950.639    23182960.1704
  24446268.144    -1644960.073 7  -1271821.78545  24446271.943    24446282.2734
  23150835.149    -9859257.840 8  -7663650.26246  23150836.451    23150845.4694
  22783728.133   -10879939.396 8  -8462761.71746  22783730.372    22783738.9594
 00  3 23  4  9 30.0000000  0  7 09 17 23 26 03 21 29
  20779289.358   -20190367.290 9 -15466532.26948  20779290.445    20779298.7704
  20683867.039   -20809887.290 9 -16195756.31948  20683869.602    20683878.7994
  20959797.494   -21243813.778 9 -16533325.35548  20959799.572    20959807.9154
  23200892.759    -8810020.557 8  -6818530.89846  23200892.739    23200902.0294
  24450894.542    -1620629.425 7  -1252862.86545  24450904.145    24450912.3474
  23135806.871    -9938240.454 8  -7725195.11146  23135806.483    23135815.5244
  22769817.381   -10953037.104 8  -8519720.88746  22769819.819    22769829.5044
 00  3 23  4 10  0.0000000  0  7 09 17 23 26 03 21 29
  20776317.781   -20205985.317 9 -15478702.13748  20776318.286    20776326.9134
  20696046.543   -20745891.126 9 -16145889.22448  20696047.580    20696056.9474
  20954232.912   -21273046.854 9 -16556104.35448  20954236.598    20954245.1974
  23218838.497    -8715686.776 8  -6745024.10446  23218844.085    23218853.6714
  24455619.910    -1595849.133 7  -1233553.53545  24455616.897    24455627.8004
  23120778.438   -10017199.138 8  -7786721.28846  23120780.022    23120789.9944
  22755950.678   -11025907.886 8  -8576503.20746  22755953.685    22755963.2634
 00  3 23  4 10 30.0000000  0  7 09 17 23 26 03 21 29
  20773468.868   -20220948.281 9 -15490361.57348  20773471.081    20773479.4304
  20708328.985   -20681339.686 9 -16095589.44748  20708331.387    20708340.4964
  20948708.712   -21302084.211 9 -16578730.85248  20948710.897    20948719.3954
  23236797.795    -8621316.036 8  -6671488.52146  23236801.846    23236811.8154
  24460415.421    -1570610.841 7  -1213887.33645  24460421.390    24460432.0164
  23105753.549   -10096145.802 8  -7848238.09946  23105756.909    23105766.9674
  22742130.481   -11098537.464 8  -8633097.60446  22742132.225    22742141.9334
 00  3 23  4 11  0.0000000  0  7 09 17 23 26 03 21 29
  20770743.808   -20235256.152 9 -15501510.54748  20770748.367    20770756.2324
  20720716.752   -20616249.584 9 -16044869.92847  20720717.582    20720726.6194
  20943218.365   -21330931.139 9 -16601208.96248  20943221.668    20943229.7504
  23254766.539    -8526915.487 8  -6597929.73846  23254765.894    23254776.0444
  24465302.974    -1544917.734 7  -1193866.71645  24465308.470    24465319.4734
  23090735.372   -10175062.115 8  -7909731.25746  23090739.631    23090749.8864
  22728357.900   -11170921.723 8  -8689500.83746  22728358.063    22728367.0214
 00  3 23  4 11 30.0000000  0  7 09 17 23 26 03 21 29
  20768144.333   -20248923.257 9 -15512160.21548  20768147.573    20768155.5114
  20733203.396   -20550608.466 9 -15993721.05447  20733208.541    20733217.3414
  20937764.511   -21359596.831 9 -16623545.85248  20937766.740    20937774.6294
  23272730.409    -8432488.378 8  -6524350.22546  23272735.218    23272744.6154
  24470280.976    -1518781.554 7  -1173500.88445  24470280.415    24470294.0544
  23075731.063   -10253943.463 8  -7971197.17346  23075729.746    23075740.5164
  22714623.587   -11243063.703 8  -8745715.26146  22714629.116    22714638.0454
